     2              OBSERVATION DATA    GPS                 RINEX VERSION / TYPE
teqc 2000Feb29 simon 20000627 22:32:45UTC                   PGM / RUN BY / DATE
                                                            COMMENT
L2: 1 -> 1; 150 -> 5; 250 -> 9                              COMMENT
L2: 1 -> 1; 150 -> 5; 250 -> 9                              COMMENT
L2: 1 -> 1; 150 -> 5; 250 -> 9                              COMMENT
L2: 1 -> 1; 150 -> 5; 250 -> 9                              COMMENT
L2: 1 -> 1; 150 -> 5; 250 -> 9                              COMMENT
Original Marker Name: GS13                                  COMMENT
Campaign Name: China Lake April 2000                        COMMENT
4-Character Station Name: GS13                              COMMENT
6-Character Antenna Code: ASHGD3                            COMMENT
Vertical Measurement Point: TGP                             COMMENT
Vertical Offset to Rinex Ref. Point: 0.0640                 COMMENT
Radial Measurement Point: RRP                               COMMENT
Radial Offset to Rinex Ref. Point: 0.0000                   COMMENT
Antenna Height from Field Measurement: 0.2000 m             COMMENT
Additional Antenna Identification Info.:                    COMMENT
The Whopper (700718AB)                                      COMMENT
Original XYZ: -2371640.3400 -4624703.7000 3685222.9500      COMMENT
New XYZ position is based on association with SCEC monument COMMENT
E1F4C5X4+0011. Position of that monument is believed to be  COMMENT
valid to within 1 m horizontally; vertical accuracy         COMMENT
should be no worse than 3-times this value.                 COMMENT
                                                            COMMENT
Revised Rinex header created by UCSD GPS archive for        COMMENT
GSAC on 14-Sep-2001 (2001:257) 20:12:19 GMT                 COMMENT
For assistance contact dagnew@ucsd.edu                      COMMENT
or anderson@python.ucsd.edu                                 COMMENT
                                                            COMMENT
GO13                                                        MARKER NAME
gs13                                                        MARKER NUMBER
LCS US NATIONAL IMAGERY MAPPING AGENCY                      OBSERVER / AGENCY
496 ASHTECH Z-XII3 4J30                                     REC # / TYPE / VERS
965 ASHTECH GEODETIC III                                    ANT # / TYPE
 -2371696.9690 -4624983.9737  3685648.0703                  APPROX POSITION XYZ
        0.1360        0.0000        0.0000                  ANTENNA: DELTA H/E/N
     1     1     0                                          WAVELENGTH FACT L1/2
     7    L1    L2    C1    P1    P2    S1    S2            # / TYPES OF OBSERV
    30                                                      INTERVAL
  2000     4    26    14    45    0.000000                  TIME OF FIRST OBS
  2000     4    26    21    29   60.000000                  TIME OF LAST OBS
                                                            END OF HEADER
 00  4 26 14 45  0.0000000  0  6G27G 2G26G 7G 8G11
     82961.84759     49908.81556  18642576.665    18642574.298    18642585.113
       226.000         183.000
    -12332.78859     -7872.72257  17485220.616    17485218.321    17485226.403
       241.000         205.000
     -7101.64159     -4389.60457  18814095.557    18814094.922    18814103.902
       234.000         194.000
    -40953.02459    -25079.73457  16910742.636    16910740.458    16910748.698
       237.000         207.000
     46436.74859     22486.47957  17782376.671    17782373.991    17782382.930
       237.000         201.000
      4742.67053                  20270658.527
       214.000          74.000
 00  4 26 14 46  0.0000000  0  6G27G 2G26G 7G 8G11
    232576.65349    166491.41546  22568348.779    22568347.394    22568358.007
       225.000         183.000
    -30622.24049    -22124.32347  21379041.539    21379039.982    21379048.035
       241.000         205.000
    -18329.29449    -13138.52247  22709261.015    22709260.335    22709269.328
       234.000         194.000
   -113922.66949    -81939.21647  20794158.418    20794156.843    20794165.112
       237.000         207.000
    172168.06259    120458.67147  21703603.231    21703601.748    21703610.868
       238.000         201.000
     64820.94059     41920.39156  24177038.308    24177036.569    24177048.290
       219.000         163.000
 00  4 26 14 46 30.0000000  0  8G27G 2G26G 7G 8G 9G11G13
    307926.50449    225205.40346  22582687.302    22582686.065    22582696.739
       225.000         182.000
    -39505.17549    -29046.11347  21377351.124    21377349.644    21377357.716
       241.000         205.000
    -23094.93449    -16852.04047  22708354.100    22708353.417    22708362.457
       234.000         194.000
   -149696.73049   -109815.10847  20787350.795    20787349.298    20787357.569
       236.000         206.000
    235585.82649    169874.99247  21715671.216    21715669.821    21715678.924
       237.000         201.000
   -363552.67659   -258118.20755  25037228.547    25037227.295    25037239.925
       216.000         156.000
     89470.44749     61127.65846  24181728.804    24181727.461    24181739.651
       220.000         169.000
    275684.14059    198032.07755  24414269.487    24414268.815    24414281.263
       216.000         151.000
 00  4 26 14 47  0.0000000  0  9G27G 2G26G 4G 7G 8G 9G11G13
    383596.29549    284168.70646  22597086.833    22597085.647    22597096.328
       226.000         183.000
    -48252.05949    -35861.89847  21375686.607    21375685.182    21375693.275
       241.000         205.000
    -27343.84449    -20162.91547  22707545.552    22707544.885    22707553.949
       234.000         194.000
   -226877.11155                  24689320.934                    24689335.385
       206.000         143.000
   -185028.11249   -137346.05547  20780627.440    20780625.999    20780634.275
       236.000         206.000
    299348.33149    219559.94647  21727804.792    21727803.458    21727812.605
       237.000         201.000
   -479237.98349   -348262.85845  25015214.308    25015213.370    25015225.179
       211.000         144.000
    114605.76949     80713.60646  24186511.966    24186510.833    24186522.722
       222.000         166.000
    364556.95159    267283.43955  24431181.522    24431181.518    24431191.564
       216.000         156.000
 00  4 26 14 47 30.0000000  0  9G27G 2G26G 4G 7G 8G 9G11G13
    459566.28749    343365.92446  22611543.533    22611542.354    22611553.026
       225.000         180.000
    -56900.49749    -42600.97847  21374040.871    21374039.484    21374047.578
       241.000         205.000
    -31107.10249    -23095.35847  22706829.418    22706828.795    22706837.854
       234.000         194.000
   -443166.30949   -319199.71145  24666774.537    24666772.349    24666788.768
       207.000         145.000
   -219935.87949   -164546.91047  20773984.689    20773983.294    20773991.571
       236.000         207.000
    363450.64949    269509.69447  21740003.126    21740001.798    21740010.938
       236.000         200.000
   -594922.83349   -438407.01245  24993200.305    24993199.496    24993211.291
       210.000         147.000
    140204.61049    100660.70446  24191383.176    24191382.107    24191393.975
       218.000         164.000
    453418.68649    336526.17045  24448091.417    24448091.447    24448101.788
       217.000         156.000
 00  4 26 14 48  0.0000000  0  9G27G 2G26G 4G 7G 8G 9G11G13
    535855.55349    402811.92046  22626060.900    22626059.826    22626070.456
       224.000         181.000
    -65449.29049    -49262.42047  21372414.113    21372412.748    21372420.843
       241.000         205.000
    -34351.55449    -25623.54247  22706212.004    22706211.407    22706220.494
       234.000         194.000
   -561726.64959   -411584.19355  24644213.113    24644211.940    24644227.280
       205.000         143.000
   -254412.79449   -191412.03947  20767423.968    20767422.574    20767430.854
       236.000         206.000
    427919.53649    319745.07247  21752271.186    21752269.883    21752279.044
       236.000         200.000
   -710570.13349   -528522.01545  24971193.573    24971192.583    24971204.166
       217.000         153.000
    166278.03349    120977.60946  24196344.831    24196343.786    24196355.609
       221.000         168.000
    542278.20949    405767.14245  24465000.978    24465000.969    24465011.342
       216.000         151.000
 00  4 26 14 48 30.0000000  0  9G27G 2G26G 4G 7G 8G 9G11G13
    612469.23549    462510.68646  22640640.108    22640639.001    22640649.658
       224.000         180.000
    -73897.31549    -55845.32947  21370806.521    21370805.183    21370813.266
       241.000         205.000
    -37081.72049    -27750.98447  22705692.496    22705691.918    22705700.992
       234.000         194.000
   -680385.29849   -504045.25745  24621633.069    24621632.670    24621647.131
       204.000         139.000
   -288463.76149   -217945.26247  20760944.300    20760942.914    20760951.187
       236.000         207.000
    492755.76549    370266.69147  21764609.126    21764607.874    21764617.028
       236.000         200.000
   -826176.17849   -618604.72145  24949194.479    24949193.575    24949205.213
       214.000         148.000
    192814.01149    141654.93245  24201394.468    24201393.440    24201405.201
       214.000         155.000
    631127.64849    475000.20545  24481908.626    24481908.567    24481919.133
       216.000         151.000
 00  4 26 14 49  0.0000000  0  9G27G 2G26G 4G 7G 8G 9G11G13
    689403.91849    522459.62646  22655280.517    22655279.328    22655289.946
       224.000         180.000
    -82252.86049    -62356.17647  21369216.565    21369215.204    21369223.299
       241.000         205.000
    -39312.78449    -29489.52047  22705268.013    22705267.396    22705276.465
       234.000         195.000
   -799169.40549   -596604.08645  24599029.212    24599028.789    24599043.313
       204.000         137.000
   -322102.15249   -244156.99747  20754543.092    20754541.743    20754549.996
       236.000         206.000
    557941.90049    421060.96047  21777013.717    21777012.462    21777021.608
       236.000         200.000
   -941762.69349   -708672.38145  24927199.208    24927198.339    24927209.790
       214.000         148.000
    219805.67049    162687.35446  24206530.810    24206529.768    24206541.589
       217.000         164.000
    719952.57549    544214.20045  24498811.612    24498811.443    24498822.126
       218.000         155.000
 00  4 26 14 49 30.0000000  0  9G27G 2G26G 4G 7G 8G 9G11G13
    766658.25549    582657.62646  22669981.710    22669980.451    22669991.097
       224.000         179.000
    -90508.19349    -68788.93347  21367645.685    21367644.317    21367652.417
       241.000         205.000
    -41040.46449    -30835.80947  22704939.332    22704938.658    22704947.741
       234.000         194.000
   -918079.71249   -689261.24245  24576401.286    24576400.740    24576415.646
       207.000         136.000
   -355337.01549   -270054.29447  20748218.668    20748217.361    20748225.603
       236.000         206.000
    623470.79149    472122.29347  21789483.570    21789482.275    21789491.443
       236.000         200.000
  -1057311.81849   -798710.76145  24905211.056    24905210.057    24905221.652
       217.000         152.000
    247261.77749    184081.60946  24211755.535    24211754.462    24211766.374
       214.000         164.000
    808759.92149    613414.55545  24515711.301    24515711.003    24515721.680
       214.000         156.000
 00  4 26 14 50  0.0000000  0  9G27G 2G26G 4G 7G 8G 9G11G13
    844240.12049    643110.83946  22684745.054    22684743.859    22684754.569
       224.000         180.000
    -98617.16249    -75107.64547  21366102.605    21366101.269    21366109.375
       241.000         205.000
    -42243.67549    -31773.42347  22704710.394    22704709.737    22704718.842
       234.000         194.000
  -1037083.77249   -781991.47545  24553755.523    24553755.049    24553769.885
       208.000         139.000
   -388151.49849   -295624.02647  20741974.307    20741972.992    20741981.234
       235.000         206.000
    689351.39049    523457.68447  21802020.328    21802019.007    21802028.183
       236.000         199.000
  -1172797.84449   -888700.02945  24883234.805    24883233.823    24883245.461
       214.000         155.000
    275203.39549    205854.22046  24217072.807    24217071.667    24217083.582
       221.000         168.000
    897580.30849    682625.06645  24532613.447    24532613.062    24532623.696
       215.000         149.000
 00  4 26 14 50 30.0000000  0  9G27G 2G26G 4G 7G 8G 9G11G13
    922160.13149    703827.59646  22699572.945    22699571.684    22699582.373
       224.000         179.000
   -106537.71949    -81279.54247  21364595.411    21364594.083    21364602.205
       241.000         205.000
    -42914.37549    -32296.09847  22704582.812    22704582.161    22704591.273
       234.000         195.000
  -1156139.61549   -874762.01945  24531099.838    24531099.470    24531114.117
       208.000         142.000
   -420512.08049   -320840.05947  20735816.319    20735815.011    20735823.250
       235.000         206.000
    755605.60649    575084.22047  21814628.201    21814626.862    21814636.078
       235.000         199.000
  -1288228.93949   -978646.51145  24861269.151    24861268.137    24861279.817
       214.000         147.000
    303653.11049    228022.78646  24222486.666    24222485.511    24222497.489
       219.000         166.000
    986433.46249    751860.98845  24549521.773    24549521.354    24549532.149
       212.000         152.000
 00  4 26 14 51  0.0000000  0  9G27G 2G26G 4G 7G 8G 9G11G13
   1000426.41849    764814.12446  22714466.647    22714465.397    22714476.086
       223.000         181.000
   -114250.10249    -87289.22947  21363127.804    21363126.515    21363134.649
       241.000         205.000
    -43037.29449    -32391.93147  22704559.485    22704558.822    22704567.941
       235.000         195.000
  -1275211.71349   -967545.22345  24508440.930    24508440.746    24508455.370
       206.000         140.000
   -452397.74649   -345686.03747  20729748.716    20729747.407    20729755.634
       235.000         206.000
    822255.52449    627019.09047  21827311.341    21827310.027    21827319.233
       235.000         198.000
  -1403599.14449  -1068545.54145  24839315.098    24839314.045    24839325.676
       214.000         155.000
    332622.55949    250596.28646  24227999.435    24227998.247    24228010.247
       217.000         166.000
   1075342.75849    821140.80045  24566440.851    24566440.352    24566451.126
       214.000         159.000
 00  4 26 14 51 30.0000000  0  9G27G 2G26G 4G 7G 8G 9G11G13
   1079021.42449    826056.79746  22729422.872    22729421.633    22729432.373
       222.000         177.000
   -121759.91049    -93141.06547  21361698.767    21361697.478    21361705.622
       241.000         205.000
    -42623.62249    -32069.64547  22704638.301    22704637.597    22704646.731
       235.000         195.000
  -1394311.00249  -1060349.58245  24485776.808    24485776.745    24485791.503
       207.000         140.000
   -483814.77749   -370166.84447  20723770.263    20723768.963    20723777.193
       235.000         205.000
    889278.03849    679244.29147  21840065.515    21840064.110    21840073.327
       235.000         198.000
  -1518917.77449  -1158404.36145  24817370.742    24817369.691    24817381.377
       218.000         153.000
    362077.77649    273548.37846  24233604.649    24233603.461    24233615.435
       218.000         163.000
   1164286.16549    890447.12345  24583366.355    24583365.815    24583376.656
       219.000         153.000
 00  4 26 14 52  0.0000000  0  9G27G 2G26G 4G 7G 8G 9G11G13
   1157953.82849    887562.40746  22744443.389    22744442.133    22744452.867
       223.000         180.000
   -129037.85349    -98812.22247  21360313.850    21360312.568    21360320.716
       241.000         205.000
    -41660.13149    -31318.92947  22704821.663    22704820.991    22704830.149
       235.000         194.000
  -1513428.93549  -1153168.50345  24463109.258    24463109.193    24463123.984
       209.000         139.000
   -514731.17349   -394257.54547  20717887.080    20717885.805    20717894.033
       235.000         205.000
    956692.42349    731774.84447  21852894.069    21852892.726    21852901.963
       235.000         199.000
  -1634176.35749  -1248216.34745  24795437.930    24795436.820    24795448.566
       218.000         153.000
    392029.86849    296887.59345  24239304.281    24239303.159    24239315.125
       211.000         157.000
   1253274.27149    959788.20645  24600300.380    24600299.793    24600310.729
       216.000         155.000
 00  4 26 14 52 30.0000000  0  9G27G 2G26G 4G 7G 8G 9G11G13
   1237222.51049    949330.00646  22759527.822    22759526.576    22759537.374
       222.000         177.000
   -136103.10449   -104317.63547  21358969.426    21358968.150    21358976.317
       241.000         205.000
    -40143.80349    -30137.42647  22705110.249    22705109.607    22705118.753
       235.000         195.000
  -1632571.07449  -1246006.34445  24440437.190    24440437.098    24440451.871
       208.000         139.000
   -545149.98449   -417960.51447  20712098.578    20712097.310    20712105.554
       234.000         205.000
   1024503.83149    784614.78347  21865798.216    21865796.898    21865806.156
       235.000         198.000
  -1749370.11849  -1337977.91445  24773517.414    24773516.309    24773527.920
       215.000         154.000
    422478.38949    320613.63745  24245098.372    24245097.329    24245109.306
       215.000         160.000
   1342299.35349   1029158.22345  24617241.472    24617240.879    24617251.814
       214.000         154.000
 00  4 26 14 53  0.0000000  0  9G27G 2G26G 4G 7G 8G 9G11G13
   1316828.37349   1011360.37646  22774676.508    22774675.235    22774686.036
       218.000         176.000
   -142973.98549   -109671.60247  21357661.997    21357660.707    21357668.882
       241.000         205.000
    -38066.52749    -28518.83047  22705505.575    22705504.955    22705514.085
       234.000         195.000
  -1751735.48249  -1338861.52845  24417760.769    24417760.753    24417775.443
       207.000         140.000
   -575077.73949   -441280.84247  20706403.495    20706402.263    20706410.497
       234.000         205.000
   1092707.51049    837760.39047  21878777.091    21878775.727    21878785.037
       235.000         197.000
  -1864466.01449  -1427663.16445  24751615.553    24751614.429    24751626.058
       217.000         157.000
    453427.20449    344729.51945  24250987.705    24250986.717    24250998.660
       214.000         158.000
   1431356.34049   1098553.01345  24634188.663    24634188.022    24634199.000
       214.000         149.000
 00  4 26 14 53 30.0000000  0  9G27G 2G26G 4G 7G 8G 9G11G13
   1396817.17549   1073689.11846  22789897.991    22789896.740    22789907.625
       223.000         178.000
   -149613.34749   -114845.16447  21356398.532    21356397.298    21356405.507
       241.000         205.000
    -35378.06749    -26423.98347  22706017.211    22706016.591    22706025.735
       235.000         195.000
  -1870867.98949  -1431691.84845  24395090.491    24395090.507    24395105.072
       207.000         141.000
   -604464.53949   -464179.65047  20700811.310    20700810.126    20700818.371
       235.000         204.000
   1161334.74649    891236.04147  21891836.586    21891835.192    21891844.514
       235.000         198.000
  -1979402.91849  -1517224.53045  24729743.854    24729742.748    24729754.437
       217.000         158.000
    484925.09449    369273.22645  24256981.581    24256980.572    24256992.518
       214.000         159.000
   1520472.55049   1167993.98945  24651147.183    24651146.418    24651157.446
       215.000         156.000
 00  4 26 14 54  0.0000000  0  9G27G 2G26G 4G 7G 8G 9G11G13
   1477127.09349   1136268.10246  22805180.618    22805179.347    22805190.248
       222.000         175.000
   -156094.20549   -119895.20247  21355165.341    21355164.090    21355172.301
       241.000         205.000
    -32130.23949    -23893.27047  22706635.320    22706634.717    22706643.853
       234.000         195.000
  -1990010.35849  -1524529.86445  24372418.213    24372418.332    24372432.883
       207.000         141.000
   -633374.96649   -486707.25447  20695309.835    20695308.673    20695316.925
       234.000         204.000
   1230335.35849    945002.62647  21904967.141    21904965.701    21904975.026
       234.000         198.000
  -2094220.54149  -1606692.96145  24707894.859    24707893.735    24707905.491
       219.000         157.000
    516937.92449    394218.15546  24263073.598    24263072.496    24263084.431
       218.000         167.000
   1609582.45649   1237430.06345  24668104.471    24668103.616    24668114.718
       216.000         151.000
 00  4 26 14 54 30.0000000  0  9G27G 2G26G 4G 7G 8G 9G11G13
   1557760.56149   1199099.20346  22820524.825    22820523.544    22820534.485
       224.000         178.000
   -162434.31049   -124835.58247  21353958.939    21353957.664    21353965.870
       241.000         205.000
    -28330.81249    -20932.74047  22707358.395    22707357.793    22707366.940
       236.000         194.000
  -2109145.23549  -1617362.07845  24349747.417    24349747.514    24349762.051
       207.000         139.000
   -661827.04649   -508877.71447  20689895.627    20689894.444    20689902.692
       234.000         204.000
   1299693.74649    999047.97247  21918165.681    21918164.278    21918173.654
       236.000         198.000
  -2208913.63349  -1696064.30545  24686069.641    24686068.500    24686080.372
       217.000         155.000
    549461.81249    419561.29446  24269262.835    24269261.713    24269273.643
       214.000         163.000
   1698666.52549   1306845.94045  24685056.820    24685055.884    24685067.076
       214.000         153.000
 00  4 26 14 55  0.0000000  0  9G27G 2G26G 4G 7G 8G 9G11G13
   1638743.25749   1262202.41946  22835935.314    22835934.125    22835945.127
       223.000         176.000
   -168608.43749   -129646.62147  21352784.084    21352782.821    21352791.031
       241.000         205.000
    -23971.50249    -17535.93147  22708187.991    22708187.398    22708196.560
       234.000         194.000
  -2228257.65549  -1710176.80445  24327080.951    24327081.015    24327095.572
       207.000         139.000
   -689796.99649   -530672.47947  20684573.138    20684571.967    20684580.221
       234.000         204.000
   1369424.47049   1053383.46147  21931435.067    21931433.717    21931443.105
       235.000         197.000
  -2323467.97349  -1785327.58845  24664270.731    24664269.686    24664281.521
       215.000         154.000
    582516.81749    445318.28245  24275553.089    24275551.943    24275563.908
       214.000         161.000
   1787743.55549   1376256.37545  24702007.784    24702006.870    24702018.123
       213.000         150.000
 00  4 26 14 55 30.0000000  0  9G27G 2G26G 4G 7G 8G 9G11G13
   1720078.34649   1325580.24446  22851413.040    22851411.844    22851422.879
       221.000         178.000
   -174600.25049   -134315.60047  21351643.910    21351642.661    21351650.867
       241.000         205.000
    -19054.56249    -13704.60347  22709123.740    22709123.103    22709132.292
       235.000         194.000
  -2347357.64249  -1802981.82945  24304416.888    24304416.875    24304431.483
       209.000         146.000
   -717281.18149   -552088.73447  20679343.082    20679341.923    20679350.179
       234.000         204.000
   1439520.98249   1108003.98847  21944774.117    21944772.749    21944782.160
       235.000         197.000
  -2437880.72049  -1874480.56145  24642498.959    24642497.835    24642509.596
       218.000         155.000
    616101.89349    471488.34045  24281944.246    24281943.098    24281955.099
       214.000         162.000
   1876816.68849   1445663.75645  24718957.967    24718957.046    24718968.389
       215.000         152.000
 00  4 26 14 56  0.0000000  0  9G27G 2G26G 4G 7G 8G 9G11G13
   1801752.26949   1389222.05246  22866955.181    22866954.012    22866965.086
       225.000         176.000
   -180409.09149   -138842.00247  21350538.575    21350537.310    21350545.523
       241.000         205.000
    -13597.71049     -9452.56947  22710162.104    22710161.551    22710170.751
       235.000         194.000
  -2466466.02849  -1895793.43645  24281751.186    24281751.269    24281765.872
       207.000         144.000
   -744295.92349   -573139.19047  20674202.366    20674201.207    20674209.473
       234.000         204.000
   1509980.01249   1162906.98647  21958182.110    21958180.774    21958190.209
       233.000         196.000
  -2552169.21549  -1963536.60645  24620750.669    24620749.573    24620761.431
       215.000         156.000
    650212.43049    498067.80045  24288435.268    24288434.163    24288446.265
       210.000         156.000
   1965881.58249   1515064.69145  24735906.652    24735905.711    24735917.142
       216.000         152.000
 00  4 26 14 56 30.0000000  0  9G27G 2G26G 4G 7G 8G 9G11G13
   1883756.48549   1453121.24046  22882560.220    22882559.045    22882570.156
       222.000         176.000
   -186039.17849   -143229.10747  21349467.255    21349465.977    21349474.201
       242.000         205.000
     -7628.92749     -4801.62347  22711298.014    22711297.432    22711306.644
       235.000         194.000
  -2585608.75349  -1988631.81645  24259079.057    24259079.116    24259093.691
       207.000         141.000
   -770854.23749   -593833.98647  20669148.492    20669147.337    20669155.619
       233.000         204.000
   1580781.42749   1218076.80447  21971655.320    21971653.961    21971663.451
       232.000         196.000
  -2666365.88549  -2052521.16945  24599019.949    24599018.819    24599030.621
       220.000         161.000
    684814.98249    525030.60645  24295019.842    24295018.801    24295031.020
       213.000         157.000
   2054946.33249   1584465.55245  24752855.310    24752854.408    24752865.772
       211.000         147.000
 00  4 26 14 57  0.0000000  0  9G27G 2G26G 4G 7G 8G 9G11G13
   1966085.44549   1517273.46146  22898227.066    22898225.862    22898237.053
       224.000         176.000
   -191485.19649   -147472.78147  21348430.956    21348429.675    21348437.904
       241.000         205.000
     -1136.02349       257.71747  22712533.660    22712533.043    22712542.253
       235.000         194.000
  -2704802.96949  -2081510.31645  24236397.102    24236397.137    24236411.610
       211.000         147.000
   -796954.52649   -614171.88347  20664181.772    20664180.642    20664188.927
       233.000         204.000
   1651920.96949   1273510.07947  21985192.886    21985191.494    21985200.987
       234.000         195.000
  -2780483.63949  -2141444.19045  24577304.125    24577303.044    24577314.870
       219.000         159.000
    719909.82049    552377.06345  24301698.335    24301697.216    24301709.492
       218.000         160.000
   2144016.46849   1653870.60245  24769804.919    24769804.098    24769815.490
       215.000         154.000
 00  4 26 14 57 30.0000000  0  9G27G 2G26G 4G 7G 8G 9G11G13
   2048722.76249   1581665.97146  22913952.670    22913951.403    22913962.588
       224.000         178.000
   -196762.84649   -151585.25447  21347426.670    21347425.403    21347433.650
       241.000         205.000
      5876.08949      5721.64447  22713868.067    22713867.458    22713876.662
       235.000         194.000
  -2824055.51249  -2174434.27745  24213704.021    24213704.049    24213718.425
       206.000         146.000
   -822621.88049   -634172.43247  20659297.451    20659296.317    20659304.615
       233.000         204.000
   1723382.30149   1329194.09147  21998791.528    21998790.221    21998799.798
       234.000         196.000
  -2894534.25149  -2230314.86745  24555601.080    24555600.068    24555612.013
       221.000         162.000
    755478.13549    580092.49945  24308466.924    24308465.776    24308478.044
       219.000         158.000
   2233066.40449   1723259.86745  24786750.755    24786749.923    24786761.380
       212.000         147.000
 00  4 26 14 58  0.0000000  0  9G27G 2G26G 4G 7G 8G 9G11G13
   2131682.96949   1646310.05846  22929739.694    22929738.389    22929749.628
       223.000         176.000
   -201873.57749   -155567.67147  21346454.165    21346452.906    21346461.141
       241.000         205.000
     13407.65349     11590.33747  22715301.301    22715300.710    22715309.919
       235.000         193.000
  -2943345.88849  -2267387.67645  24191003.625    24191003.709    24191018.048
       209.000         142.000
   -847844.92849   -653826.77047  20654497.728    20654496.560    20654504.865
       234.000         204.000
   1795189.61549   1385147.69247  22012455.998    22012454.784    22012464.388
       232.000         195.000
  -3008516.02749  -2319131.92245  24533911.195    24533910.153    24533922.143
       218.000         158.000
    791520.69049    608177.48645  24315325.820    24315324.608    24315336.835
       226.000         161.000
   2322109.90949   1792644.23245  24803695.448    24803694.470    24803706.042
       214.000         151.000
 00  4 26 14 58 30.0000000  0  9G27G 2G26G 4G 7G 8G 9G11G13
   2214986.95249   1711222.01746  22945592.025    22945590.718    22945602.027
       223.000         175.000
   -206811.00449   -159415.04047  21345514.609    21345513.376    21345521.628
       241.000         205.000
     21480.89049     17881.11647  22716837.669    22716837.058    22716846.260
       235.000         194.000
  -3062639.58249  -2360343.75945  24168302.788    24168302.826    24168317.099
       209.000         146.000
   -872592.08049   -673110.28047  20649788.538    20649787.375    20649795.679
       234.000         204.000
   1867368.13049   1441390.55547  22026191.300    22026190.053    22026199.684
       232.000         193.000
  -3122401.64449  -2407874.03846  24512239.595    24512238.535    24512250.606
       221.000         164.000
    828045.55849    636638.28246  24322276.527    24322275.257    24322287.399
       227.000         164.000
   2411161.66549   1862034.86445  24820641.638    24820640.636    24820652.313
       213.000         149.000
 00  4 26 14 59  0.0000000  0  9G27G 2G26G 4G 7G 8G 9G11G13
   2298631.05549   1776399.01846  22961509.177    22961507.845    22961519.211
       223.000         178.000
   -211566.79949   -163120.88947  21344609.644    21344608.408    21344616.659
       241.000         205.000
     30109.79549     24604.87547  22718479.723    22718479.126    22718488.367
       235.000         194.000
  -3181915.10849  -2453285.58145  24145605.402    24145605.379    24145619.557
       209.000         148.000
   -896844.10949   -692007.97647  20645173.565    20645172.407    20645180.707
       233.000         204.000
   1939934.03149   1497935.26847  22040000.259    22039999.004    22040008.652
       233.000         195.000
  -3236166.40549  -2496521.96245  24490590.962    24490589.882    24490602.055
       217.000         157.000
    865070.00149    665488.37345  24329322.234    24329320.982    24329333.037
       228.000         161.000
   2500200.55149   1931415.59045  24837585.381    24837584.435    24837596.052
       213.000         148.000
 00  4 26 14 59 30.0000000  0  9G27G 2G26G 4G 7G 8G 9G11G13
   2382593.07249   1841823.74546  22977486.728    22977485.421    22977496.866
       224.000         175.000
   -216148.83749   -166691.35447  21343737.740    21343736.518    21343744.767
       241.000         205.000
     39263.99649     31737.96447  22720221.808    22720221.184    22720230.417
       236.000         193.000
  -3301166.17349  -2546208.37045  24122912.510    24122912.497    24122926.750
       209.000         144.000
   -920610.96049   -710527.60647  20640650.917    20640649.756    20640658.078
       233.000         204.000
   2012898.67549   1554790.69947  22053885.122    22053883.828    22053893.500
       232.000         194.000
  -3349811.48449  -2585076.63545  24468964.983    24468963.984    24468976.174
       221.000         160.000
    902564.84649    694705.06845  24336457.444    24336456.135    24336468.190
       227.000         159.000
   2589215.54449   2000777.59645  24854524.524    24854523.613    24854535.264
       212.000         148.000
 00  4 26 15  0  0.0000000  0  9G27G 2G26G 4G 7G 8G 9G11G13
   2466845.36449   1907474.67546  22993519.607    22993518.288    22993529.735
       221.000         174.000
   -220555.08549   -170124.82847  21342899.319    21342898.088    21342906.333
       241.000         205.000
     48928.21449     39268.47147  22722060.921    22722060.302    22722069.538
       235.000         194.000
  -3420391.10449  -2639110.82945  24100224.608    24100224.661    24100238.866
       209.000         145.000
   -943888.98149   -728666.33947  20636221.261    20636220.123    20636228.448
       233.000         204.000
   2086253.51049   1611950.16347  22067844.235    22067842.920    22067852.604
       234.000         194.000
  -3463352.32549  -2673550.07545  24447358.903    24447357.974    24447370.203
       217.000         161.000
    940511.23749    724273.56345  24343678.535    24343677.216    24343689.263
       226.000         161.000
   2678208.48049   2070122.47745  24871459.581    24871458.587    24871470.313
       215.000         151.000
 00  4 26 15  0 30.0000000  0  9G27G 2G26G 4G 7G 8G 9G11G13
   2551369.04649   1973337.04046  23009604.031    23009602.756    23009614.282
       222.000         174.000
   -224762.67949   -173403.50947  21342098.628    21342097.434    21342105.704
       241.000         205.000
     59118.04449     47208.54647  22724000.054    22723999.428    22724008.684
       235.000         194.000
  -3539578.36049  -2731983.90645  24077543.986    24077543.972    24077558.197
       211.000         150.000
   -966688.71349   -746432.37547  20631882.593    20631881.473    20631889.814
       233.000         204.000
   2159984.30349   1669402.57247  22081874.906    22081873.546    22081883.269
       232.000         193.000
  -3576784.26749  -2761938.65445  24425773.563    24425772.647    24425784.905
       221.000         161.000
    978916.00049    754199.20346  24350986.860    24350985.542    24350997.582
       226.000         167.000
   2767169.38949   2139442.41945  24888388.498    24888387.501    24888399.246
       210.000         143.000
 00  4 26 15  1  0.0000000  0  9G27G 2G26G 4G 7G 8G 9G11G13
   2636184.35249   2039426.67246  23025743.952    23025742.727    23025754.315
       219.000         172.000
   -228728.04849   -176493.44147  21341344.063    21341342.890    21341351.166
       241.000         205.000
     69858.27649     55577.50547  22726043.914    22726043.299    22726052.542
       235.000         194.000
  -3658706.55149  -2824810.92045  24054874.443    24054874.516    24054888.806
       207.000         145.000
   -989012.72549   -763827.72447  20627634.471    20627633.374    20627641.723
       233.000         204.000
   2234101.66749   1727156.19347  22095979.083    22095977.731    22095987.447
       231.000         191.000
  -3690083.48049  -2850223.81745  24404213.480    24404212.575    24404224.861
       217.000         162.000
   1017800.15349    784498.41646  24358386.376    24358385.082    24358397.151
       225.000         168.000
   2856120.09949   2208754.36445  24905315.411    24905314.426    24905326.247
       215.000         151.000
 00  4 26 15  1 30.0000000  0  9G27G 2G26G 4G 7G 8G 9G11G13
   2721284.16649   2105737.97946  23041938.092    23041936.862    23041948.510
       224.000         175.000
   -232461.51449   -179402.65347  21340633.643    21340632.470    21340640.750
       241.000         205.000
     81134.64949     64364.23147  22728189.764    22728189.182    22728198.434
       235.000         194.000
  -3777792.57649  -2917605.09745  24032213.140    24032213.130    24032227.396
       211.000         150.000
  -1010882.95649   -780869.47347  20623472.722    20623471.632    20623479.996
       233.000         204.000
   2308573.11349   1785185.74147  22110150.724    22110149.330    22110159.053
       232.000         192.000
  -3803264.00649  -2938416.45645  24382675.936    24382675.106    24382687.414
       220.000         161.000
   1057136.86549    815150.29446  24365872.030    24365870.742    24365882.850
       221.000         165.000
   2945064.64249   2278061.48345  24922241.258    24922240.182    24922252.139
       209.000         144.000
 00  4 26 15  2  0.0000000  0  9G27G 2G26G 4G 7G 8G 9G11G13
   2806682.03549   2172281.52146  23058188.971    23058187.713    23058199.421
       221.000         171.000
   -235990.05649   -182152.17947  21339962.232    21339961.050    21339969.347
       242.000         205.000
     92948.93549     73570.12047  22730438.002    22730437.433    22730446.694
       235.000         194.000
  -3896840.77049  -3010369.79345  24009558.997    24009558.992    24009573.171
       210.000         147.000
  -1032308.66049   -797564.83547  20619395.552    20619394.474    20619402.858
       233.000         205.000
   2383365.82149   1843465.60047  22124383.423    22124382.023    22124391.805
       232.000         192.000
  -3916329.17349  -3026519.24545  24361160.399    24361159.590    24361171.878
       215.000         158.000
   1096933.56349    846160.61545  24373445.087    24373443.859    24373456.071
       217.000         160.000
   3033983.14049   2347348.32245  24939161.995    24939160.966    24939172.983
       212.000         142.000
 00  4 26 15  2 30.0000000  0  9G27G 2G26G 4G 7G 8G 9G11G13
   2892408.32149   2239080.98446  23074502.346    23074501.056    23074512.819
       223.000         174.000
   -239329.67449   -184754.50547  21339326.722    21339325.585    21339333.879
       241.000         205.000
    105298.60449     83193.18647  22732788.112    22732787.560    22732796.815
       235.000         194.000
  -4015857.01149  -3103109.62745  23986910.854    23986910.876    23986925.004
       210.000         150.000
  -1053305.67649   -813926.16147  20615399.970    20615398.904    20615407.296
       233.000         205.000
   2458480.50949   1901996.38047  22138677.346    22138675.973    22138685.807
       231.000         191.000
  -4029266.79149  -3114522.55646  24339669.002    24339668.283    24339680.731
       220.000         164.000
   1137205.82549    877541.48245  24381108.747    24381107.528    24381119.772
       215.000         160.000
   3122857.47049   2416600.79145  24956074.416    24956073.442    24956085.466
       212.000         148.000
 00  4 26 15  3  0.0000000  0  9G27G 2G26G 4G 7G 8G 9G11G13
   2978504.20849   2306168.43646  23090885.933    23090884.721    23090896.550
       221.000         172.000
   -242491.56349   -187218.35947  21338725.070    21338723.942    21338732.227
       242.000         205.000
    118191.96649     93239.90547  22735241.659    22735241.143    22735250.399
       236.000         194.000
  -4134839.61349  -3195823.12645  23964269.117    23964269.144    23964283.229
       213.000         151.000
  -1073850.78349   -829935.35147  20611490.426    20611489.321    20611497.729
       234.000         205.000
   2533946.38249   1960800.81747  22153038.120    22153036.758    22153046.613
       230.000         190.000
  -4142057.35649  -3202411.34145  24318205.692    24318205.009    24318217.487
       218.000         159.000
   1177970.07749    909305.64445  24388866.002    24388864.824    24388877.101
       215.000         162.000
   3211706.25249   2485833.28445  24972981.931    24972981.031    24972993.145
       209.000         144.000
 00  4 26 15  3 30.0000000  0  9G27G 2G26G 4G 7G 8G 9G11G13
   3064968.77449   2373543.17846  23107339.892    23107338.593    23107350.409
       222.000         172.000
   -245505.64349   -189567.03047  21338151.528    21338150.416    21338158.701
       241.000         205.000
    131612.67549    103697.54547  22737795.576    22737795.056    22737804.329
       235.000         194.000
  -4253787.22849  -3288509.46345  23941634.153    23941634.115    23941648.188
       212.000         150.000
  -1093934.30449   -845584.85647  20607668.680    20607667.586    20607675.997
       233.000         205.000
   2609763.27049   2019878.72247  22167465.611    22167464.360    22167474.265
       231.000         190.000
  -4254709.64949  -3290192.34546  24296768.720    24296768.017    24296780.553
       220.000         165.000
   1219227.27149    941453.92345  24396717.072    24396715.889    24396728.254
       210.000         159.000
   3300521.93649   2555039.94345  24989883.176    24989882.282    24989894.455
       210.000         142.000
 00  4 26 15  4  0.0000000  0  9G27G 2G26G 4G 7G 8G 9G11G13
   3151788.69049   2441194.81046  23123861.364    23123860.082    23123871.930
       220.000         171.000
   -248378.66249   -191805.79447  21337604.827    21337603.734    21337612.027
       242.000         206.000
    145558.75449    114564.56447  22740449.459    22740448.966    22740458.252
       235.000         194.000
  -4372688.98549  -3381160.01245  23919007.710    23919007.750    23919021.780
       211.000         150.000
  -1113560.62649   -860878.10547  20603933.917    20603932.846    20603941.267
       233.000         204.000
   2685930.96949   2079230.03447  22181959.916    22181958.712    22181968.662
       230.000         190.000
  -4367228.41649  -3377869.28545  24275357.103    24275356.466    24275369.043
       218.000         161.000
   1260994.48449    973999.61545  24404665.155    24404663.973    24404676.469
       206.000         154.000
   3389286.87549   2624207.18545  25006774.809    25006773.906    25006786.037
       213.000         141.000
 00  4 26 15  4 30.0000000  0  9G27G 2G26G 4G 7G 8G 9G11G13
   3238916.04149   2509086.01346  23140441.321    23140440.079    23140451.961
       221.000         171.000
   -251101.41449   -193927.45147  21337086.792    21337085.659    21337093.969
       242.000         205.000
    160010.12449    125825.31647  22743199.530    22743199.039    22743208.317
       236.000         193.000
  -4491572.07349  -3473796.03945  23896384.867    23896384.950    23896398.946
       212.000         152.000
  -1132740.75549   -875823.66747  20600284.064    20600283.001    20600291.434
       234.000         204.000
   2762430.80149   2138840.11547  22196517.398    22196516.245    22196526.253
       231.000         190.000
  -4479632.55649  -3465456.92946  24253967.304    24253966.712    24253979.262
       218.000         164.000
   1303250.60849   1006926.31445  24412706.310    24412704.616    24412718.614
       203.000         153.000
   3477990.07649   2693326.29145  25023654.695    25023653.774    25023666.071
       210.000         142.000
 00  4 26 15  5  0.0000000  0  9G27G 2G26G 4G 7G 8G 9G11G13
   3326337.03249   2577206.02846  23157077.323    23157075.961    23157087.883
       222.000         171.000
   -253636.72049   -195903.03547  21336604.368    21336603.248    21336611.566
       242.000         205.000
    174987.03649    137495.57447  22746049.618    22746049.108    22746058.396
       235.000         193.000
  -4610415.13349  -3566400.84845  23873769.688    23873769.803    23873783.780
       212.000         153.000
  -1151444.12149   -890397.73347  20596724.914    20596723.867    20596732.305
       233.000         205.000
   2839271.64349   2198715.92047  22211139.966    22211138.726    22211148.750
       230.000         189.000
  -4591901.25349  -3552938.99746  24232603.297    24232602.708    24232615.314
       217.000         164.000
   1345999.37549   1040236.93545  24420841.061    24420840.163    24420853.793
       207.000         156.000
   3566666.64749   2762424.52845  25040529.531    25040528.593    25040540.983
       209.000         143.000
 00  4 26 15  5 30.0000000  0  9G27G 2G26G 4G 7G 8G 9G11G13
   3414026.78849   2645535.44746  23173764.312    23173762.989    23173774.920
       221.000         170.000
   -255962.18649   -197715.11047  21336161.855    21336160.767    21336169.106
       242.000         206.000
    190487.43549    149573.75047  22748999.298    22748998.804    22749008.102
       234.000         194.000
  -4729199.20449  -3658959.71645  23851165.694    23851165.832    23851179.810
       212.000         151.000
  -1169672.86849   -904601.97047  20593256.064    20593255.057    20593263.500
       233.000         204.000
   2916438.85549   2258846.05147  22225824.521    22225823.287    22225833.350
       231.000         190.000
  -4704034.05349  -3640315.18946  24211265.143    24211264.603    24211277.121
       218.000         164.000
   1389236.06249   1073927.76345  24429068.748    24429068.031    24429081.470
       213.000         161.000
   3655305.45649   2831493.41245  25057397.143    25057396.216    25057408.702
       210.000         144.000
 00  4 26 15  6  0.0000000  0  9G27G 2G26G 4G 7G 8G 9G11G13
   3501974.57649   2714065.96646  23190500.422    23190499.116    23190511.046
       220.000         168.000
   -258058.69249   -199348.77947  21335762.932    21335761.854    21335770.200
       241.000         206.000
    206508.99849    162058.02447  22752048.146    22752047.684    22752056.977
       235.000         193.000
  -4847934.71049  -3751480.72545  23828570.921    23828571.131    23828585.083
       214.000         152.000
  -1187428.62249   -918437.63547  20589877.206    20589876.258    20589884.690
       233.000         204.000
   2993932.29849   2319230.36447  22240571.109    22240569.912    22240580.058
       229.000         188.000
  -4816025.57349  -3727581.26046  24189953.946    24189953.346    24189965.917
       219.000         163.000
   1432953.14149   1107992.91346  24437387.903    24437387.264    24437400.615
       217.000         163.000
   3743900.30449   2900528.05545  25074256.480    25074255.533    25074268.004
       211.000         141.000
 00  4 26 15  6 30.0000000  0  9G27G 2G26G 4G 7G 8G 9G11G13
   3590192.05749   2782806.59946  23207287.847    23207286.561    23207298.532
       219.000         169.000
   -259921.88949   -200800.65447  21335408.388    21335407.330    21335415.692
       242.000         205.000
    223045.98749    174943.92547  22755195.054    22755194.624    22755203.930
       235.000         193.000
  -4966637.01449  -3843975.89145  23805982.566    23805982.741    23805996.647
       213.000         153.000
  -1204721.20049   -931912.38247  20586586.550    20586585.591    20586594.037
       233.000         204.000
   3071764.24749   2379878.45547  22255382.132    22255380.977    22255391.121
       231.000         188.000
  -4927863.14149  -3814727.38446  24168672.018    24168671.395    24168683.928
       218.000         164.000
   1477134.59649   1142419.89346  24445795.423    24445794.844    24445808.090
       220.000         164.000
   3832450.70849   2969528.06845  25091107.225    25091106.334    25091118.904
       209.000         136.000
 00  4 26 15  7  0.0000000  0  9G27G 2G26G 4G 7G 8G 9G11G13
   3678719.36649   2851788.65946  23224134.217    23224132.978    23224145.011
       221.000         168.000
   -261542.85849   -202063.78747  21335099.952    21335098.908    21335107.270
       242.000         206.000
    240120.14649    188248.41847  22758444.219    22758443.796    22758453.123
       235.000         193.000
  -5085265.79949  -3936413.73545  23783408.111    23783408.309    23783422.277
       213.000         151.000
  -1221539.31949   -945017.41847  20583386.162    20583385.211    20583393.641
       234.000         204.000
   3149971.06049   2440818.65746  22270264.577    22270263.391    22270273.562
       230.000         187.000
  -5039500.73149  -3901717.64046  24147428.064    24147427.469    24147440.041
       220.000         166.000
   1521810.81549   1177232.39846  24454297.152    24454296.545    24454309.739
       219.000         164.000
   3920975.16549   3038507.86145  25107953.183    25107952.273    25107964.943
       205.000         137.000
 00  4 26 15  7 30.0000000  0  9G27G 2G26G 4G 7G 8G 9G11G13
   3767543.65449   2921002.16046  23241037.146    23241035.884    23241047.953
       219.000         168.000
   -262948.86549   -203159.40247  21334832.433    21334831.393    21334839.765
       242.000         205.000
    257704.17549    201950.20747  22761790.394    22761789.984    22761799.324
       235.000         193.000
  -5203829.60149  -4028800.99245  23760845.986    23760846.241    23760860.189
       213.000         154.000
  -1237898.99849   -957765.22947  20580273.065    20580272.086    20580280.512
       233.000         204.000
   3228538.48449   2502039.84946  22285215.594    22285214.406    22285224.615
       229.000         187.000
  -5150947.78949  -3988559.46046  24126220.466    24126219.865    24126232.344
       220.000         165.000
   1566965.86849   1212418.03946  24462889.952    24462889.346    24462902.519
       218.000         165.000
   4009432.29749   3107435.12845  25124786.214    25124785.292    25124798.048
       207.000         141.000
 00  4 26 15  8  0.0000000  0  9G27G 2G26G 4G 7G 8G 9G11G13
   3856666.35349   2990448.19546  23257996.842    23257995.589    23258007.690
       219.000         168.000
   -264142.17949   -204089.27347  21334605.352    21334604.342    21334612.730
       241.000         205.000
    275799.57449    216050.47047  22765233.840    22765233.460    22765242.825
       234.000         192.000
  -5322329.01949  -4121138.04745  23738296.139    23738296.402    23738310.345
       214.000         155.000
  -1253795.75649   -970152.32647  20577248.074    20577247.081    20577255.481
       233.000         204.000
   3307461.35449   2563537.99846  22300234.291    22300233.064    22300243.352
       231.000         187.000
  -5262192.03449  -4075243.19546  24105051.365    24105050.803    24105063.300
       218.000         166.000
   1612603.20949   1247979.46646  24471574.581    24471573.940    24471587.058
       218.000         165.000
   4097836.95349   3176321.51845  25141609.229    25141608.401    25141621.209
       209.000         145.000
 00  4 26 15  8 30.0000000  0  9G27G 2G26G 4G 7G 8G 9G11G13
   3946070.51449   3060113.51846  23275009.997    23275008.830    23275021.027
       217.000         163.000
   -265144.01349   -204869.94547  21334414.733    21334413.740    21334422.131
       242.000         205.000
    294412.39249    230553.90047  22768775.774    22768775.407    22768784.791
       235.000         192.000
  -5440753.48649  -4213416.67845  23715760.672    23715760.888    23715774.859
       213.000         155.000
  -1269243.28249   -982189.38447  20574308.549    20574307.541    20574315.949
       232.000         204.000
   3386722.80849   2625299.97846  22315317.273    22315316.130    22315326.467
       229.000         186.000
  -5373235.27449  -4161770.34646  24083920.561    24083920.021    24083932.445
       218.000         166.000
   1658713.82649   1283909.66546  24480349.246    24480348.589    24480361.668
       221.000         165.000
   4186180.72549   3245160.48745  25158420.775    25158419.937    25158432.787
       210.000         146.000
 00  4 26 15  9  0.0000000  0  9G27G 2G26G 4G 7G 8G 9G11G13
   4035740.72549   3129986.21446  23292073.846    23292072.662    23292084.907
       219.000         165.000
   -265963.83249   -205508.76647  21334258.704    21334257.738    21334266.166
       242.000         206.000
    313542.15749    245460.16547  22772416.098    22772415.731    22772425.130
       235.000         192.000
  -5559092.58049  -4305628.81145  23693241.431    23693241.625    23693255.527
       214.000         153.000
  -1284230.82849   -993868.00847  20571456.512    20571455.520    20571463.920
       234.000         204.000
   3466313.40149   2687318.45646  22330463.065    22330461.869    22330472.224
       230.000         186.000
  -5484100.63149  -4248158.86246  24062823.497    24062823.041    24062835.477
       219.000         166.000
   1705287.74449   1320200.86846  24489212.085    24489211.380    24489224.471
       222.000         165.000
   4274455.40149   3313945.62445  25175219.110    25175218.274    25175231.274
       211.000         146.000
 00  4 26 15  9 30.0000000  0  9G27G 2G26G 4G 7G 8G 9G11G13
   4125679.49049   3200068.13546  23309188.794    23309187.592    23309199.952
       217.000         165.000
   -266591.78549   -205998.10447  21334139.209    21334138.271    21334146.710
       242.000         205.000
    333187.57349    260768.22647  22776154.498    22776154.168    22776163.581
       234.000         192.000
  -5677335.53449  -4397766.02945  23670740.471    23670740.678    23670754.480
       214.000         153.000
  -1298744.58649  -1005177.45147  20568694.633    20568693.651    20568702.064
       233.000         204.000
   3546228.34049   2749589.61446  22345670.470    22345669.303    22345679.730
       230.000         187.000
  -5594814.87049  -4334429.62446  24041755.147    24041754.772    24041767.211
       218.000         164.000
   1752314.87549   1356845.23346  24498161.188    24498160.440    24498173.545
       225.000         164.000
   4362665.72649   3382680.59945  25192005.284    25192004.454    25192017.443
       210.000         141.000
 00  4 26 15 10  0.0000000  0  9G27G 2G26G 4G 7G 8G 9G11G13
   4215889.08049   3270361.11446  23326355.293    23326354.085    23326366.510
       218.000         163.000
   -267039.39849   -206346.93447  21334054.036    21334053.113    21334061.556
       242.000         205.000
    353355.64949    276483.54747  22779992.347    22779992.062    22780001.494
       235.000         193.000
  -5795487.09249  -4489832.00045  23648256.849    23648257.119    23648270.871
       215.000         156.000
  -1312804.27549  -1016133.06947  20566019.173    20566018.220    20566026.631
       233.000         204.000
   3626461.74449   2812108.96646  22360938.482    22360937.350    22360947.813
       229.000         185.000
  -5705398.24949  -4420598.43246  24020711.858    24020711.482    24020723.865
       220.000         167.000
   1799782.68349   1393833.00345  24507194.140    24507193.365    24507206.472
       223.000         160.000
   4450815.09049   3451367.80544  25208779.826    25208778.992    25208792.168
       202.000         127.000
 00  4 26 15 10 30.0000000  0  9G27G 2G26G 4G 7G 8G 9G11G13
   4306405.93049   3340893.53446  23343580.214    23343579.032    23343591.518
       217.000         163.000
   -267294.46849   -206545.73647  21334005.528    21334004.611    21334013.061
       241.000         206.000
    374057.96149    292615.16547  22783931.875    22783931.629    22783941.073
       235.000         192.000
  -5913526.34949  -4581810.48745  23625794.579    23625794.885    23625808.612
       215.000         155.000
  -1326397.82549  -1026725.45747  20563432.431    20563431.477    20563439.904
       233.000         204.000
   3707054.25049   2874908.13246  22376274.828    22376273.722    22376284.263
       228.000         184.000
  -5815846.44249  -4506661.89946  23999694.144    23999693.806    23999706.190
       220.000         167.000
   1847702.59049   1431173.07845  24516313.097    24516312.348    24516325.403
       223.000         154.000
   4538906.70249   3520010.61644  25225543.537    25225542.535    25225555.732
       200.000         126.000
 00  4 26 15 11  0.0000000  0  9G27G 2G26G 4G 7G 8G 9G11G13
   4397246.08449   3411677.83846  23360866.716    23360865.520    23360878.060
       218.000         165.000
   -267339.56149   -206580.90447  21333996.974    21333996.070    21334004.529
       241.000         206.000
    395265.30949    309140.29447  22787967.540    22787967.313    22787976.752
       234.000         193.000
  -6031455.05949  -4673702.83445  23603353.465    23603353.724    23603367.388
       212.000         156.000
  -1339516.82549  -1036948.07447  20560935.951    20560935.061    20560943.481
       233.000         204.000
   3788007.75749   2937988.58546  22391679.899    22391678.800    22391689.393
       229.000         186.000
  -5926167.53849  -4592626.31846  23978700.675    23978700.350    23978712.747
       216.000         164.000
   1896074.30949   1468865.26845  24525517.995    24525517.272    24525530.353
       221.000         148.000
   4626936.11649   3588604.54644  25242295.247    25242294.195    25242307.417
       197.000         119.000
 00  4 26 15 11 30.0000000  0  9G27G 2G26G 4G 7G 8G 9G11G13
   4488444.55449   3482741.39245  23378221.452    23378220.225    23378232.762
       217.000         160.000
   -267122.38749   -206411.71147  21334038.325    21334037.434    21334045.918
       242.000         206.000
    417008.71349    326083.14147  22792105.237    22792104.980    22792114.451
       236.000         193.000
  -6149237.92549  -4765481.53645  23580939.948    23580940.272    23580953.917
       214.000         156.000
  -1352128.93249  -1046775.70347  20558535.992    20558535.091    20558543.507
       233.000         204.000
   3869356.78449   3001377.24946  22407160.244    22407159.152    22407169.807
       229.000         184.000
  -6036306.69049  -4678448.96546  23957741.886    23957741.551    23957753.936
       219.000         167.000
   1944939.38649   1506941.93345  24534816.789    24534816.084    24534829.193
       216.000         143.000
   4714942.61948   3657180.75744  25259042.626    25259041.247    25259054.951
       190.000         115.000
 00  4 26 15 12  0.0000000  0  9G27G 2G26G 4G 7G 8G 9G11G13
   4579936.09249   3554033.32845  23395631.837    23395630.671    23395643.197
       215.000         160.000
   -266708.86249   -206089.51247  21334117.063    21334116.170    21334124.650
       241.000         206.000
    439226.13549    343395.34647  22796333.106    22796332.863    22796342.350
       236.000         193.000
  -6266955.27249  -4857209.16445  23558538.987    23558539.293    23558552.937
       212.000         155.000
  -1364304.67449  -1056263.31547  20556218.972    20556218.117    20556226.547
       233.000         204.000
   3951031.76249   3065019.91146  22422702.591    22422701.513    22422712.204
       228.000         185.000
  -6146305.23649  -4764162.03246  23936809.626    23936809.371    23936821.923
       221.000         165.000
   1994245.32349   1545362.13145  24544199.459    24544198.798    24544211.912
       214.000         145.000
                   3725685.75144  25275772.437                    25275785.221
       184.000         105.000
 00  4 26 15 12 30.0000000  0  9G27G 2G26G 4G 7G 8G 9G11G13
   4671735.75449   3625565.30045  23413100.877    23413099.739    23413112.309
       217.000         162.000
   -266058.67649   -205582.88647  21334240.804    21334239.925    21334248.428
       242.000         206.000
    461929.19149    361085.97147  22800653.313    22800653.137    22800662.663
       235.000         193.000
  -6384577.98649  -4948863.08245  23536155.924    23536156.330    23536169.875
       215.000         154.000
  -1376004.65849  -1065380.20447  20553992.532    20553991.705    20554000.136
       233.000         204.000
   4033057.94449   3128936.24546  22438311.786    22438310.746    22438321.453
       229.000         184.000
  -6256113.68749  -4849727.03646  23915913.766    23915913.547    23915925.982
       215.000         164.000
   2044037.20449   1584160.94445  24553674.669    24553673.980    24553687.109
       210.000         145.000
                   3794139.89644  25292490.024
       178.000         103.000
 00  4 26 15 13  0.0000000  0  9G27G 2G26G 4G 7G 8G 9G11G13
   4763810.88249   3697311.91845  23430622.317    23430621.245    23430633.840
       216.000         158.000
   -265175.10049   -204894.41647  21334408.959    21334408.075    21334416.607
       242.000         206.000
    485115.14649    379152.86847  22805065.490    22805065.325    22805074.882
       236.000         193.000
  -6502114.89249  -5040450.13445  23513789.267    23513789.640    23513803.222
       215.000         157.000
  -1387238.25949  -1074133.67747  20551854.900    20551854.041    20551862.478
       234.000         204.000
   4115399.99749   3193098.67546  22453981.096    22453980.056    22453990.836
       229.000         185.000
  -6365725.65249  -4935138.87846  23895055.132    23895055.019    23895067.514
       221.000         167.000
   2094303.85449   1623329.71845  24563240.205    24563239.509    24563252.606
       207.000         144.000
                   3862540.74054  25309194.445
       177.000          98.000
 00  4 26 15 13 30.0000000  0  9G27G 2G26G 4G 7G 8G 9G11G13
   4856135.04349   3769252.58045  23448191.037    23448190.055    23448202.710
       215.000         159.000
   -264088.80049   -204047.95947  21334615.672    21334614.827    21334623.363
       241.000         206.000
    508790.59049    397601.17747  22809570.887    22809570.689    22809580.248
       236.000         194.000
  -6619570.12349  -5131973.54645  23491438.089    23491438.482    23491452.104
       215.000         157.000
  -1398030.82449  -1082543.48647  20549801.162    20549800.307    20549808.747
       232.000         204.000
   4198038.47249   3257492.09946  22469706.887    22469705.814    22469716.608
       228.000         182.000
  -6475133.70349  -5020391.80946  23874235.306    23874235.236    23874247.777
       220.000         165.000
   2145032.47049   1662858.42845  24572893.675    24572892.887    24572905.959
       205.000         147.000
                   3930880.87153  25325884.076
       172.000          91.000
 00  4 26 15 14  0.0000000  0  9G27G 2G26G 4G 7G 8G 9G11G13
   4948717.95149   3841394.87945  23465809.223    23465808.208    23465820.924
       216.000         162.000
   -262805.94049   -203048.35847  21334859.798    21334858.960    21334867.497
       242.000         206.000
    532962.11949    416436.04947  22814170.682    22814170.422    22814180.002
       236.000         193.000
  -6736923.16849  -5223417.34245  23469106.373    23469106.783    23469120.375
       214.000         156.000
  -1408375.25449  -1090604.09447  20547832.679    20547831.846    20547840.258
       233.000         204.000
   4280985.06049   3322125.60646  22485491.276    22485490.178    22485501.002
       229.000         185.000
  -6584326.71449  -5105477.21346  23853456.602    23853456.517    23853469.035
       219.000         167.000
   2196233.16149   1702754.99445  24582636.872    24582636.095    24582649.218
       207.000         151.000
                     61064.23153  25342560.010
       171.000          74.000
 00  4 26 15 14 30.0000000  0  9G27G 2G26G 4G 7G 8G 9G11G13
   5041539.42249   3913723.03845  23483472.764    23483471.695    23483484.525
       212.000         158.000
   -261334.89149   -201902.13847  21335139.755    21335138.924    21335147.460
       242.000         206.000
    557623.08049    435652.29547  22818863.606    22818863.315    22818872.902
       236.000         193.000
  -6854171.58849  -5314779.62845  23446794.701    23446795.066    23446808.590
       215.000         157.000
  -1418279.45949  -1098321.67747  20545948.020    20545947.166    20545955.563
       233.000         204.000
   4364243.54249   3387002.14446  22501334.918    22501333.888    22501344.762
       228.000         183.000
  -6693318.40149  -5190405.74346  23832716.098    23832716.009    23832728.430
       221.000         168.000
   2247875.16249   1742995.44045  24592464.032    24592463.288    24592476.459
       207.000         155.000
                    129366.36153  25359219.779
       168.000          88.000
 00  4 26 15 15  0.0000000  0  9G27G 2G26G 4G 7G 8G 9G11G13
   5134641.59149   3986269.94745  23501189.697    23501188.659    23501201.502
       215.000         158.000
   -259648.37949   -200588.02147  21335460.784    21335459.895    21335468.430
       242.000         206.000
    582810.63349    455278.88447  22823656.709    22823656.399    22823666.000
       236.000         193.000
  -6971275.04149  -5406028.93445  23424510.620    23424510.872    23424524.383
       217.000         159.000
  -1427717.47749  -1105675.99347  20544152.059    20544151.190    20544159.598
       233.000         204.000
   4447849.89749   3452149.78246  22517244.966    22517243.846    22517254.713
       227.000         182.000
  -6802079.28849  -5275154.36346  23812019.386    23812019.383    23812031.948
       217.000         163.000
   2299972.15849   1783590.43645  24602377.729    24602377.022    24602390.309
       210.000         159.000
                    197619.83753  25375867.886
       162.000          65.000
 00  4 26 15 15 30.0000000  0  8G27G 2G26G 4G 7G 8G 9G11
   5227997.01149   4059014.21745  23518954.839    23518953.773    23518966.709
       214.000         158.000
   -257783.80949   -199135.12247  21335815.632    21335814.738    21335823.286
       242.000         206.000
    608484.17049    475284.16247  22828542.291    22828541.980    22828551.567
       235.000         193.000
  -7088263.78149  -5497188.89845  23402248.287    23402248.586    23402262.021
       218.000         160.000
  -1436719.58949  -1112690.64347  20542439.047    20542438.174    20542446.582
       233.000         204.000
   4531777.33049   3517547.60046  22533216.009    22533214.878    22533225.798
       227.000         182.000
  -6910639.34449  -5359746.57746  23791361.219    23791361.086    23791373.477
       222.000         169.000
   2352489.73849   1824513.14845  24612371.449    24612370.821    24612384.142
       213.000         161.000
 00  4 26 15 16  0.0000000  0  8G27G 2G26G 4G 7G 8G 9G11
   5321627.58549   4131972.81945  23536772.350    23536771.247    23536784.290
       212.000         157.000
   -255710.05149   -197519.22747  21336210.267    21336209.377    21336217.951
       242.000         206.000
    634659.36249    495680.33447  22833523.325    22833523.019    22833532.614
       236.000         192.000
  -7205129.64649  -5588253.10945  23380009.386    23380009.688    23380023.038
       218.000         160.000
  -1445263.60749  -1119348.34347  20540813.211    20540812.338    20540820.738
       234.000         204.000
   4616041.40549   3583207.72446  22549250.989    22549249.912    22549260.926
       227.000         182.000
  -7018992.27549  -5444177.32246  23770742.299    23770742.157    23770754.622
       222.000         168.000
   2405438.87949   1865772.15845  24622447.361    24622446.762    24622460.106
       214.000         162.000
 00  4 26 15 16 30.0000000  0  8G27G 2G26G 4G 7G 8G 9G11
   5415526.41449   4205140.50945  23554640.947    23554639.802    23554652.872
       213.000         156.000
   -253420.93649   -195735.52947  21336645.885    21336645.021    21336653.603
       241.000         206.000
    661342.63849    516472.41347  22838601.064    22838600.745    22838610.349
       236.000         192.000
  -7321868.55649  -5679218.39045  23357794.647    23357794.955    23357808.192
       217.000         162.000
  -1453358.92949  -1125656.41347  20539272.793    20539271.875    20539280.261
       234.000         204.000
   4700613.69149   3649108.02846  22565344.589    22565343.605    22565354.660
       224.000         180.000
  -7127141.62849  -5528449.49046  23750162.251    23750162.054    23750174.369
       220.000         168.000
   2458800.81949   1907352.80445  24632601.861    24632601.235    24632614.619
       215.000         162.000
 00  4 26 15 17  0.0000000  0  8G27G 2G26G 4G 7G 8G 9G11
   5509688.18749   4278513.08445  23572559.448    23572558.372    23572571.495
       211.000         157.000
   -250912.66549   -193781.05447  21337123.258    21337122.363    21337130.955
       242.000         206.000
    688527.86149    537655.62047  22843774.242    22843773.967    22843783.599
       235.000         192.000
  -7438479.18849  -5770083.72646  23335604.430    23335604.648    23335617.794
       219.000         163.000
  -1461011.51949  -1131619.48747  20537816.584    20537815.655    20537824.023
       234.000         204.000
   4785468.18949   3715228.23246  22581492.099    22581491.039    22581502.127
       228.000         182.000
  -7235084.73049  -5612560.89346  23729621.389    23729621.155    23729633.529
       224.000         172.000
   2512582.58049   1949260.58645  24642836.238    24642835.622    24642849.018
       217.000         162.000
 00  4 26 15 17 30.0000000  0  8G27G 2G26G 4G 7G 8G 9G11
   5604119.58049   4352095.69045  23590529.278    23590528.250    23590541.428
       213.000         156.000
   -248167.47049   -191641.96447  21337645.627    21337644.775    21337653.376
       242.000         206.000
    716222.48849    559235.76847  22849044.399    22849044.132    22849053.789
       235.000         192.000
  -7554958.41149  -5860846.71546  23313439.171    23313439.376    23313452.370
       216.000         163.000
  -1468209.62349  -1137228.42147  20536446.823    20536445.943    20536454.297
       235.000         204.000
   4870616.73649   3781577.54846  22597695.451    22597694.402    22597705.535
       224.000         180.000
  -7342815.28549  -5696506.69646  23709120.831    23709120.665    23709132.985
       218.000         168.000
   2566800.88249   1991508.55045  24653153.754    24653153.094    24653166.492
       216.000         160.000
 00  4 26 15 18  0.0000000  0  8G27G 2G26G 4G 7G 8G 9G11
   5698829.08649   4425895.02945  23608552.094    23608551.094    23608564.277
       212.000         157.000
   -245170.60449   -189306.76647  21338215.933    21338215.073    21338223.676
       242.000         206.000
    744433.61349    581218.38147  22854412.793    22854412.594    22854422.286
       235.000         192.000
  -7671290.06049  -5951494.66245  23291301.950    23291302.127    23291315.081
       218.000         162.000
  -1474953.59049  -1142483.46847  20535163.521    20535162.651    20535170.994
       234.000         204.000
   4956079.89349   3848172.00946  22613958.778    22613957.685    22613968.841
       225.000         180.000
  -7450326.34149  -5780281.44546  23688662.215    23688661.972    23688674.313
       220.000         170.000
   2621466.05749   2034104.69445  24663556.304    24663555.629    24663568.993
       216.000         158.000
 00  4 26 15 18 30.0000000  0  8G27G 2G26G 4G 7G 8G 9G11
   5793818.73449   4499912.66745  23626628.215    23626627.242    23626640.421
       211.000         153.000
   -241917.71349   -186772.08447  21338834.980    21338834.136    21338842.716
       242.000         206.000
    773147.95749    603593.11247  22859877.038    22859876.813    22859886.525
       235.000         192.000
  -7787457.53249  -6042014.68846  23269195.914    23269196.152    23269209.074
       219.000         163.000
  -1481232.27649  -1147375.96947  20533968.743    20533967.897    20533976.228
       235.000         204.000
   5041876.49649   3915026.29646  22630285.382    22630284.320    22630295.580
       226.000         180.000
  -7557602.35849  -5863873.10746  23668248.164    23668247.983    23668260.250
       220.000         171.000
   2676593.54949   2077061.10945  24674046.792    24674046.142    24674059.539
       213.000         155.000
 00  4 26 15 19  0.0000000  0  8G27G 2G26G 4G 7G 8G 9G11
   5889080.74049   4574142.51545  23644756.261    23644755.228    23644768.457
       213.000         157.000
   -238425.69449   -184051.07047  21339499.534    21339498.682    21339507.274
       242.000         207.000
    802321.73449    626325.84947  22865428.693    22865428.472    22865438.198
       234.000         192.000
  -7903483.56949  -6132424.50946  23247116.780    23247117.045    23247129.943
       220.000         166.000
  -1487065.04149  -1151920.99647  20532858.819    20532857.986    20532866.342
       234.000         204.000
   5128017.76149   3982149.16246  22646677.714    22646676.637    22646687.905
       222.000         178.000
  -7664652.25049  -5947288.47346  23647877.118    23647876.966    23647889.328
       219.000         170.000
   2732189.50349   2120382.60345  24684626.394    24684625.761    24684639.190
       210.000         153.000
 00  4 26 15 19 30.0000000  0  8G27G 2G26G 4G 7G 8G 9G11
   5984625.50149   4648592.70745  23662938.165    23662937.029    23662950.288
       212.000         157.000
   -234710.15749   -181155.88747  21340206.611    21340205.766    21340214.349
       242.000         206.000
    831945.76449    649409.41947  22871065.949    22871065.795    22871075.550
       234.000         191.000
  -8019362.15149  -6222719.43246  23225065.660    23225065.990    23225078.850
       218.000         164.000
  -1492461.75749  -1156126.24447  20531831.844    20531831.030    20531839.391
       234.000         204.000
   5214511.85349   4049546.94746  22663137.162    22663136.100    22663147.380
       223.000         178.000
  -7771474.17749  -6030526.30246  23627549.540    23627549.426    23627561.592
       221.000         170.000
   2788253.64049   2164068.89345  24695295.092    24695294.485    24695307.943
       211.000         149.000
 00  4 26 15 20  0.0000000  0  8G27G 2G26G 4G 7G 8G 9G11
   6080446.79049   4723258.38945  23681172.492    23681171.389    23681184.752
       208.000         154.000
   -230772.78349   -178087.83447  21340955.893    21340955.050    21340963.642
       241.000         206.000
    862024.34049    672847.18747  22876789.737    22876789.595    22876799.361
       235.000         191.000
  -8135067.18849  -6312879.10646  23203047.611    23203047.987    23203060.824
       217.000         164.000
  -1497416.89549  -1159987.40547  20530888.863    20530888.095    20530896.476
       234.000         204.000
   5301344.37249   4117208.47346  22679660.890    22679659.904    22679671.233
       224.000         179.000
  -7878062.25149  -6113581.82646  23607266.516    23607266.327    23607278.556
       221.000         170.000
   2844784.25749   2208118.64145  24706052.537    24706051.922    24706065.430
       208.000         145.000
 00  4 26 15 20 30.0000000  0  8G27G 2G26G 4G 7G 8G 9G11
   6176522.87049   4798122.59945  23699455.345    23699454.238    23699467.648
       211.000         154.000
   -226626.95349   -174857.34547  21341744.798    21341744.002    21341752.617
       241.000         206.000
    892547.37649    696631.29747  22882598.135    22882597.994    22882607.772
       234.000         190.000
  -8250603.82049  -6402907.58346  23181061.677    23181062.010    23181074.818
       217.000         166.000
  -1501935.10549  -1163508.10547  20530029.089    20530028.331    20530036.723
       234.000         204.000
   5388484.69749   4185109.83146  22696243.449    22696242.358    22696253.725
       224.000         178.000
  -7984424.98949  -6196461.81546  23587026.202    23587026.051    23587038.214
       223.000         171.000
   2901769.93049   2252522.99145  24716896.535    24716895.929    24716909.571
       206.000         142.000
 00  4 26 15 21  0.0000000  0  8G27G 2G26G 4G 7G 8G 9G11
   6272851.80149   4873183.82045  23717786.388    23717785.258    23717798.755
       209.000         155.000
   -222272.67949   -171464.43547  21342573.408    21342572.624    21342581.261
       241.000         206.000
    923541.72049    720782.64147  22888496.241    22888496.104    22888505.896
       234.000         190.000
  -8365966.60149  -6492800.57546  23159108.801    23159109.115    23159121.923
       216.000         164.000
  -1506019.86849  -1166691.05747  20529251.818    20529251.052    20529259.433
       234.000         204.000
   5475927.90649   4253247.21246  22712883.443    22712882.384    22712893.795
       224.000         180.000
  -8090567.71549  -6279170.33946  23566827.913    23566827.785    23566839.937
       215.000         165.000
   2959203.00049   2297275.95945  24727825.742    24727825.131    24727838.758
       202.000         138.000
 00  4 26 15 21 30.0000000  0  8G27G 2G26G 4G 7G 8G 9G11
   6369421.10949   4948432.35545  23736163.058    23736161.998    23736175.528
       209.000         153.000
   -217705.18349   -167905.38247  21343442.591    21343441.825    21343450.461
       241.000         206.000
    955025.61849    745315.46647  22894487.484    22894487.345    22894497.163
       234.000         190.000
  -8481144.72349  -6582549.67246  23137190.942    23137191.337    23137204.151
       218.000         163.000
  -1509658.41749  -1169526.31147  20528559.404    20528558.672    20528567.039
       234.000         204.000
   5563664.77049   4321613.42846  22729579.416    22729578.342    22729589.840
       223.000         176.000
  -8196491.18949  -6361708.02646  23546671.187    23546671.160    23546683.261
       223.000         176.000
   3017065.94449   2342363.87345  24738836.706    24738836.171    24738849.586
       200.000         136.000
 00  4 26 15 22  0.0000000  0  8G27G 2G26G 4G 7G 8G 9G11
   6466207.32849   5023849.90545  23754581.013    23754579.971    23754593.610
       209.000         154.000
   -212919.92149   -164176.63647  21344353.244    21344352.471    21344361.108
       242.000         206.000
    986994.15349    770225.93347  22900570.978    22900570.837    22900580.657
       236.000         190.000
  -8596145.06149  -6672160.22846  23115307.001    23115307.425    23115320.251
       219.000         165.000
  -1512850.69449  -1172013.80047  20527951.892    20527951.189    20527959.568
       235.000         203.000
   5651691.02349   4390205.13346  22746330.346    22746329.330    22746340.829
       225.000         178.000
  -8302203.62849  -6444081.24846  23526554.506    23526554.590    23526566.714
       222.000         168.000
   3075347.80849   2387778.20244  24749927.355    24749926.875    24749940.403
       200.000         129.000
 00  4 26 15 22 30.0000000  0  8G27G 2G26G 4G 7G 8G 9G11
   6563217.53549   5099441.99845  23773041.694    23773040.601    23773054.277
       212.000         152.000
   -207903.96849   -160268.14247  21345307.799    21345307.023    21345315.644
       242.000         206.000
   1019447.90349    795514.48047  22906746.782    22906746.641    22906756.487
       234.000         190.000
  -8710982.06649  -6761643.51146  23093454.312    23093454.623    23093467.416
       218.000         165.000
  -1515604.23849  -1174159.43547  20527427.877    20527427.220    20527435.592
       234.000         204.000
   5740028.40349   4459039.24746  22763140.501    22763139.533    22763151.099
       221.000         175.000
  -8407688.74249  -6526277.30646  23506481.176    23506481.326    23506493.520
       221.000         172.000
   3134051.44549   2433521.17744  24761098.352    24761097.762    24761111.460
       197.000         125.000
 00  4 26 15 23  0.0000000  0  8G27G 2G26G 4G 7G 8G 9G11
   6660458.53849   5175213.93745  23791546.277    23791545.190    23791558.857
       207.000         152.000
   -202654.76149   -156177.89447  21346306.716    21346305.941    21346314.562
       242.000         207.000
   1052379.25549    821175.18947  22913013.486    22913013.328    22913023.182
       233.000         189.000
  -8825655.81449  -6850999.58346  23071632.598    23071632.850    23071645.645
       221.000         166.000
  -1517930.72949  -1175972.30147  20526985.195    20526984.527    20526992.905
       234.000         204.000
   5828682.62449   4528120.27846  22780011.058    22780010.026    22780021.562
       223.000         177.000
  -8512948.58249  -6608297.89946  23486450.971    23486451.048    23486463.069
       218.000         169.000
   3193167.58449   2479585.58844  24772347.778    24772347.286    24772360.748
       195.000         122.000
 00  4 26 15 23 30.0000000  0  8G27G 2G26G 4G 7G 8G 9G11
   6757931.66649   5251166.70545  23810094.996    23810093.946    23810107.654
       208.000         153.000
   -197158.32849   -151895.00047  21347352.625    21347351.899    21347360.530
       241.000         206.000
   1085780.57049    847202.08547  22919369.575    22919369.429    22919379.298
       233.000         189.000
  -8940155.47949  -6940219.99946  23049843.997    23049844.229    23049856.991
       221.000         167.000
  -1519830.79849  -1177452.88747  20526623.674    20526622.983    20526631.367
       234.000         204.000
   5917658.11949   4597451.62246  22796942.638    22796941.645    22796953.266
       223.000         176.000
  -8617963.79149  -6690127.80846  23466467.220    23466467.223    23466479.350
       224.000         172.000
   3252704.86448   2525978.16644  24783677.439    24783680.633    24783690.263
       191.000         117.000
 00  4 26 15 24  0.0000000  0  8G27G 2G26G 4G 7G 8G 9G11
   6855638.68649   5327301.72945  23828688.198    23828687.143    23828700.924
       208.000         152.000
   -191410.14649   -147415.92547  21348446.458    21348445.755    21348454.405
       241.000         206.000
   1119654.74949    873597.46047  22925815.708    22925815.546    22925825.426
       233.000         189.000
  -9054486.54649  -7029309.05146  23028087.423    23028087.669    23028100.440
       221.000         165.000
  -1521303.92649  -1178600.79147  20526343.369    20526342.665    20526351.056
       234.000         203.000
   6006959.07949   4667036.61546  22813936.292    22813935.247    22813946.861
       222.000         175.000
  -8722723.65949  -6771758.77946  23446531.960    23446531.969    23446544.063
       220.000         172.000
   3312664.90748   2572700.18544  24795087.594    24795089.114    24795100.714
       189.000         111.000
 00  4 26 15 24 30.0000000  0  8G27G 2G26G 4G 7G 8G 9G11
   6953592.96349   5403629.40645  23847328.455    23847327.415    23847341.312
       207.000         152.000
   -185400.74749   -142733.30447  21349590.046    21349589.329    21349597.991
       242.000         206.000
   1154002.57249    900361.90747  22932351.935    22932351.810    22932361.694
       233.000         189.000
  -9168635.39649  -7118256.11246  23006365.503    23006365.769    23006378.558
       219.000         165.000
  -1522335.97249  -1179404.99747  20526146.990    20526146.303    20526154.696
       234.000         204.000
   6096577.80149   4736869.17546  22830990.299    22830989.273    22831000.907
       224.000         177.000
  -8827220.99949  -6853185.18246  23426646.789    23426646.775    23426658.836
       221.000         171.000
   3373048.38248   2619752.14244  24806578.326    24806577.809    24806591.621
       184.000         110.000
 00  4 26 15 25  0.0000000  0  8G27G 2G26G 4G 7G 8G 9G11
   7051807.34749   5480159.77745  23866018.240    23866017.192    23866031.221
       210.000         151.000
   -179143.35249   -137857.45047  21350780.794    21350780.106    21350788.767
       242.000         207.000
   1188829.98449    927500.05047  22938979.452    22938979.320    22938989.210
       233.000         189.000
  -9282585.74249  -7207048.49946  22984681.332    22984681.678    22984694.477
       220.000         166.000
  -1522911.92549  -1179853.79947  20526037.409    20526036.704    20526045.109
       234.000         204.000
   6186497.92349   4806936.61446  22848101.670    22848100.670    22848112.323
       222.000         173.000
  -8931455.50249  -6934406.76146  23406811.537    23406811.514    23406823.548
       225.000         175.000
                   2667133.95044  24818149.507
       180.000         103.000
 00  4 26 15 25 30.0000000  0  8G27G 2G26G 4G 7G 8G 9G11
   7150301.43049   5556908.09845  23884761.256    23884760.203    23884774.306
       207.000         154.000
   -172621.89349   -132775.82647  21352021.793    21352021.124    21352029.780
       241.000         206.000
   1224161.73449    955031.18347  22945702.925    22945702.819    22945712.713
       232.000         188.000
  -9396316.08249  -7295669.44846  22963039.096    22963039.436    22963052.167
       220.000         167.000
  -1522996.91449  -1179920.03147  20526021.276    20526020.556    20526028.973
       234.000         203.000
   6276726.48949   4877244.39346  22865271.710    22865270.734    22865282.418
       224.000         176.000
  -9035395.13749  -7015398.58846  23387032.325    23387032.356    23387044.350
       223.000         173.000
                   2714862.48344  24829805.420
       178.000         100.000
 00  4 26 15 26  0.0000000  0  8G27G 2G26G 4G 7G 8G 9G11
   7249033.88349   5633842.13945  23903549.694    23903548.621    23903562.804
       209.000         153.000
   -165891.91949   -127531.72447  21353302.574    21353301.845    21353310.493
       242.000         206.000
   1259937.25449    982908.11547  22952510.842    22952510.724    22952520.649
       232.000         188.000
  -9509866.65149  -7384150.32146  22941431.009    22941431.401    22941444.069
       222.000         168.000
  -1522633.88249  -1179637.16147  20526090.354    20526089.668    20526098.093
       234.000         203.000
   6367200.26749   4947743.21246  22882488.452    22882487.512    22882499.204
       222.000         174.000
  -9139092.03149  -7096201.26646  23367299.306    23367299.389    23367311.364
       222.000         173.000
                   2762890.99254  24841534.630
       176.000         100.000
 00  4 26 15 26 30.0000000  0  8G27G 2G26G 4G 7G 8G 9G11
   7348029.24149   5710981.08845  23922388.138    23922387.062    23922401.274
       206.000         151.000
   -158931.80249   -122108.29947  21354627.104    21354626.360    21354635.013
       242.000         207.000
   1296163.21949   1011136.05046  22959404.492    22959404.357    22959414.314
       231.000         187.000
  -9623200.14049  -7472462.05146  22919864.399    22919864.733    22919877.348
       221.000         168.000
  -1521808.25749  -1178993.82547  20526247.486    20526246.805    20526255.227
       234.000         203.000
   6457925.86149   5018438.28146  22899753.221    22899752.210    22899763.872
       224.000         174.000
  -9242530.42449  -7176802.49746  23347615.513    23347615.654    23347627.600
       221.000         173.000
                                  24853340.380
       176.000
 00  4 26 15 27  0.0000000  0  8G27G 2G26G 4G 7G 8G 9G11
   7447280.37249   5788319.29845  23941275.211    23941274.102    23941288.464
       210.000         153.000
   -151750.02649   -116512.16347  21355993.793    21355993.050    21356001.694
       242.000         206.000
   1332841.20249   1039716.19247  22966384.159    22966383.998    22966394.009
       232.000         188.000
  -9736320.21749  -7560607.45646  22898338.189    22898338.628    22898351.217
       218.000         165.000
  -1520539.72349  -1178005.38147  20526488.933    20526488.220    20526496.666
       234.000         204.000
   6548910.53649   5089335.20646  22917067.195    22917066.121    22917077.866
       223.000         174.000
  -9345712.78649  -7257204.25846  23327980.515    23327980.655    23327992.544
       222.000         174.000
     48362.87553                  24865223.411
       175.000          79.000
 00  4 26 15 27 30.0000000  0  8G27G 2G26G 4G 7G 8G 9G11
   7546787.10649   5865856.64345  23960210.996    23960209.892    23960224.261
       208.000         152.000
   -144301.62149   -110708.25547  21357411.183    21357410.450    21357419.109
       241.000         206.000
   1369981.25549   1068656.40346  22973451.737    22973451.574    22973461.625
       232.000         187.000
  -9849192.16749  -7648559.48346  22876859.229    22876859.685    22876872.290
       221.000         166.000
  -1518812.69549  -1176659.66347  20526817.587    20526816.875    20526825.328
       234.000         203.000
   6640196.52049   5160466.91846  22934438.577    22934437.461    22934449.216
       223.000         174.000
  -9448614.17149  -7337387.07146  23308398.968    23308399.088    23308410.949
       220.000         173.000
     97247.66553                  24877189.341
       161.000          87.000
 00  4 26 15 28  0.0000000  0  8G27G 2G26G 4G 7G 8G 9G11
   7646552.45949   5943595.48245  23979195.983    23979194.875    23979209.303
       210.000         155.000
   -136584.28149   -104694.78047  21358879.794    21358879.045    21358887.714
       241.000         206.000
   1407570.69349   1097946.77846  22980604.839    22980604.685    22980614.767
       232.000         187.000
  -9961822.98449  -7736323.68946  22855426.307    22855426.724    22855439.282
       222.000         169.000
  -1516632.29749  -1174960.67647  20527232.487    20527231.812    20527240.251
       233.000         204.000
   6731799.48949   5231845.64946  22951870.196    22951869.084    22951880.840
       222.000         173.000
  -9551241.24749  -7417356.14146  23288869.736    23288869.746    23288881.606
       220.000         173.000
    146470.35453                  24889237.926
       165.000          77.000
 00  4 26 15 28 30.0000000  0  8G27G 2G26G 4G 7G 8G 9G11
   7746594.32149   6021549.79045  23998233.571    23998232.495    23998246.977
       205.000         151.000
   -128587.62749    -98463.66447  21360401.507    21360400.777    21360409.463
       242.000         206.000
   1445642.00049   1127612.63546  22987849.651    22987849.479    22987859.606
       232.000         187.000
 -10074196.34849  -7823887.24746  22834042.379    22834042.695    22834055.267
       222.000         170.000
  -1513987.13549  -1172899.52847  20527735.902    20527735.189    20527743.629
       234.000         203.000
   6823750.77449   5303495.77846  22969368.114    22969367.003    22969378.806
       223.000         174.000
  -9653572.68049  -7497094.82946  23269396.605    23269396.638    23269408.493
       224.000         177.000
     46099.67653                  24901373.788
       165.000          76.000
 00  4 26 15 29  0.0000000  0  8G27G 2G26G 4G 7G 8G 9G11
   7846873.15549   6099688.77345  24017316.176    24017315.146    24017329.722
       207.000         151.000
   -120356.28449    -92049.66447  21361967.937    21361967.192    21361975.888
       241.000         206.000
   1484164.84249   1157630.34446  22995180.387    22995180.217    22995190.360
       232.000         187.000
 -10186351.90949  -7911281.10146  22812699.774    22812700.129    22812712.701
       221.000         169.000
  -1510914.58049  -1170505.35847  20528320.622    20528319.901    20528328.350
       234.000         203.000
   6916020.14149   5375393.80146  22986926.410    22986925.407    22986937.275
       222.000         171.000
  -9755632.60949  -7576621.95446  23249975.089    23249975.160    23249987.030
       226.000         175.000
     96224.54253                  24913590.225
       163.000          83.000
 00  4 26 15 29 30.0000000  0  7G27G 2G26G 4G 7G 8G 9
   7947382.08249   6178007.13845  24036442.741    24036441.591    24036456.297
       210.000         153.000
   -111888.38849    -85451.33847  21363579.347    21363578.598    21363587.312
       242.000         206.000
   1523133.22049   1187995.21646  23002595.927    23002595.709    23002605.883
       233.000         187.000
 -10298285.88249  -7998502.29746  22791399.389    22791399.743    22791412.260
       223.000         169.000
  -1507405.70349  -1167771.19147  20528988.326    20528987.633    20528996.094
       234.000         203.000
   7008594.26949   5447529.31346  23004542.825    23004541.825    23004553.767
       224.000         173.000
  -9857401.29449  -7655922.11746  23230609.031    23230609.150    23230621.035
       223.000         175.000
 00  4 26 15 30  0.0000000  0  7G27G 2G26G 4G 7G 8G 9
   8048113.67849   6256498.94345  24055611.637    24055610.434    24055625.220
       210.000         153.000
   -103200.17449    -78681.33247  21365232.679    21365231.943    21365240.669
       242.000         207.000
   1562547.29249   1218707.38046  23010096.257    23010096.030    23010106.225
       232.000         186.000
 -10410020.48949  -8085568.15146  22770136.897    22770137.300    22770149.757
       221.000         167.000
  -1503480.46349  -1164712.56447  20529735.295    20529734.614    20529743.067
       234.000         203.000
   7101440.93949   5519877.16646  23022211.117    23022210.111    23022222.138
       222.000         171.000
  -9958883.63649  -7734999.17746  23211297.534    23211297.633    23211309.478
       222.000         175.000
 00  4 26 15 30 30.0000000  0  7G27G 2G26G 4G 7G 8G 9
   8149074.86049   6335169.66145  24074824.095    24074822.996    24074837.867
       207.000         152.000
    -94250.74449    -71707.79647  21366935.744    21366935.004    21366943.741
       242.000         207.000
   1602444.77149   1249796.23446  23017688.597    23017688.357    23017698.575
       232.000         186.000
 -10521499.70349  -8172434.97146  22748922.932    22748923.370    22748935.859
       222.000         166.000
  -1499115.84749  -1161311.58147  20530565.861    20530565.187    20530573.654
       234.000         203.000
   7194583.55649   5592455.67646  23039935.695    23039934.705    23039946.781
       224.000         174.000
 -10060032.18449  -7813816.15346  23192049.586    23192049.666    23192061.453
       221.000         175.000
 00  4 26 15 31  0.0000000  0  7G27G 2G26G 4G 7G 8G 9
   8250206.42149   6413973.07945  24094068.979    24094067.914    24094082.908
       211.000         153.000
    -85061.09249    -64547.08247  21368684.481    21368683.771    21368692.522
       241.000         207.000
   1642764.39149   1281214.01746  23025361.297    23025361.006    23025371.246
       231.000         186.000
 -10632769.72349  -8259138.84746  22727749.050    22727749.388    22727761.804
       226.000         173.000
  -1494354.86349  -1157601.74247  20531471.870    20531471.183    20531479.665
       234.000         203.000
   7287970.63249   5665224.64746  23057706.744    23057705.809    23057717.981
       223.000         171.000
 -10160890.08449  -7892406.64146  23172856.974    23172857.008    23172868.723
       223.000         176.000
 00  4 26 15 31 30.0000000  0  7G27G 2G26G 4G 7G 8G 9
   8351522.99149   6492920.70545  24113349.137    24113348.110    24113363.136
       207.000         153.000
    -75601.62449    -57176.11447  21370484.596    21370483.883    21370492.647
       242.000         206.000
   1683528.91549   1312978.48946  23033118.609    23033118.331    23033128.591
       231.000         186.000
 -10743812.28549  -8345665.38146  22706618.285    22706618.670    22706631.055
       213.000         169.000
  -1489189.27949  -1153576.62947  20532454.841    20532454.166    20532462.655
       234.000         204.000
   7381623.73649   5738200.91646  23075528.582    23075527.579    23075539.727
       224.000         172.000
 -10261451.10649  -7970765.78646  23153720.719    23153720.783    23153732.533
       223.000         177.000
 00  4 26 15 32  0.0000000  0  7G27G 2G26G 4G 7G 8G 9
   8453059.97949   6572040.07145  24132671.218    24132670.154    24132685.335
       211.000         151.000
    -65848.31449    -49576.19147  21372340.620    21372339.920    21372348.695
       241.000         206.000
   1724756.49149   1345103.76646  23040963.983    23040963.764    23040974.054
       231.000         185.000
 -10854597.06549  -8431991.06046  22685536.476    22685536.887    22685549.370
       225.000         174.000
  -1483595.51749  -1149217.87147  20533519.328    20533518.653    20533527.147
       234.000         203.000
   7475578.71749   5811412.35946  23093407.766    23093406.785    23093418.940
       221.000         172.000
 -10361710.57549  -8048889.93846  23134641.788    23134641.922    23134653.716
       223.000         178.000
 00  4 26 15 32 30.0000000  0  7G27G 2G26G 4G 7G 8G 9
   8554799.13449   6651317.00845  24152031.812    24152030.752    24152045.933
       207.000         150.000
    -55844.00649    -41780.66847  21374244.429    21374243.729    21374252.515
       242.000         206.000
   1766399.95249   1377553.11446  23048888.550    23048888.329    23048898.646
       231.000         185.000
 -10965148.88249  -8518135.25946  22664499.141    22664499.535    22664511.963
       218.000         170.000
  -1477592.37949  -1144540.11847  20534661.683    20534661.018    20534669.522
       234.000         204.000
   7569800.03949   5884831.37446  23111337.749    23111336.697    23111348.874
       222.000         171.000
 -10461713.76149  -8126814.41046  23115611.701    23115611.843    23115623.622
       223.000         178.000
 00  4 26 15 33  0.0000000  0  7G27G 2G26G 4G 7G 8G 9
   8656779.23949   6730781.66445  24171438.297    24171437.226    24171452.427
       207.000         152.000
    -45575.47549    -33779.24547  21376198.512    21376197.812    21376206.607
       242.000         206.000
   1808483.20849   1410345.16146  23056896.759    23056896.571    23056906.933
       230.000         185.000
 -11075450.45149  -8604084.44946  22643509.299    22643509.717    22643522.180
       221.000         172.000
  -1471148.75849  -1139519.12947  20535887.882    20535887.207    20535895.717
       234.000         204.000
   7664307.99349   5958473.76946  23129322.094    23129321.100    23129333.324
       222.000         169.000
 -10561443.23549  -8204525.59846  23096633.803    23096633.911    23096645.641
       222.000         176.000
 00  4 26 15 33 30.0000000  0  7G27G 2G26G 4G 7G 8G 9
   8759005.57649   6810438.19445  24190891.675    24190890.559    24190905.811
       211.000         155.000
    -35058.70649    -25584.40147  21378199.876    21378199.142    21378207.922
       243.000         206.000
   1851013.13249   1443485.25846  23064989.971    23064989.825    23065000.209
       230.000         186.000
 -11185483.81149  -8689824.65446  22622570.649    22622570.998    22622583.394
       227.000         172.000
  -1464257.64149  -1134149.44947  20537199.274    20537198.590    20537207.077
       235.000         204.000
   7759090.50749   6032330.04246  23147358.760    23147357.771    23147370.067
       222.000         172.000
 -10660885.39249  -8282012.89446  23077710.661    23077710.666    23077722.401
       224.000         178.000
 00  4 26 15 34  0.0000000  0  7G27G 2G26G 4G 7G 8G 9
   8861488.74949   6890294.85845  24210393.813    24210392.709    24210408.047
       211.000         155.000
    -24284.97249    -17189.31347  21380250.090    21380249.360    21380258.145
       242.000         206.000
   1893981.68349   1476967.14346  23073166.652    23073166.527    23073176.943
       231.000         185.000
 -11295224.08449  -8775336.47846  22601687.801    22601688.119    22601700.457
       222.000         173.000
  -1456884.66349  -1128404.29347  20538602.344    20538601.651    20538610.126
       236.000         204.000
   7854152.68549   6106404.27746  23165448.600    23165447.606    23165460.013
       220.000         168.000
 -10760007.85449  -8359251.09846  23058848.253    23058848.243    23058859.918
       226.000         181.000
 00  4 26 15 34 30.0000000  0  7G27G 2G26G 4G 7G 8G 9
   8964195.86449   6970326.03445  24229938.601    24229937.508    24229952.909
       209.000         150.000
    -13254.78949     -8594.40647  21382349.119    21382348.386    21382357.168
       242.000         206.000
   1937372.85249   1510778.33746  23081423.787    23081423.668    23081434.115
       229.000         184.000
 -11404676.93249  -8860624.31546  22580859.483    22580859.846    22580872.227
       222.000         173.000
  -1449049.66349  -1122299.11547  20540093.325    20540092.629    20540101.104
       235.000         204.000
   7949477.75149   6180683.36146  23183588.454    23183587.526    23183599.915
       221.000         169.000
 -10858804.86749  -8436235.69746  23040047.723    23040047.709    23040059.344
       228.000         180.000
 00  4 26 15 35  0.0000000  0  7G27G 2G26G 4G 7G 8G 9
   9067073.18049   7050489.84245  24249515.728    24249514.655    24249530.100
       207.000         146.000
     -1978.05849       192.61347  21384495.047    21384494.327    21384503.107
       242.000         206.000
   1981167.89849   1544904.24146  23089757.805    23089757.667    23089768.143
       229.000         184.000
 -11513858.21849  -8945700.55246  22560082.819    22560083.226    22560095.620
       226.000         174.000
  -1440782.95949  -1115857.54847  20541666.415    20541665.734    20541674.213
       235.000         204.000
   8045057.35949   6255160.72546  23201776.783    23201775.861    23201788.281
       221.000         168.000
 -10957266.90649  -8512959.27046  23021310.955    23021310.956    23021322.579
       230.000         180.000
 00  4 26 15 35 30.0000000  0  7G27G 2G26G 4G 7G 8G 9
   9170119.62449   7130785.45145  24269125.073    24269124.009    24269139.561
       206.000         150.000
      9563.20049      9185.74747  21386691.292    21386690.579    21386699.383
       241.000         206.000
   2025361.39449   1579340.63746  23098167.635    23098167.485    23098177.985
       229.000         184.000
 -11622771.59849  -9030568.06446  22539357.340    22539357.724    22539370.025
       225.000         178.000
  -1432074.89349  -1109072.06147  20543323.518    20543322.838    20543331.321
       235.000         204.000
   8140907.98849   6329849.30246  23220016.693    23220015.785    23220028.217
       220.000         167.000
 -11055393.82249  -8589421.70646  23002637.996    23002637.977    23002649.593
       230.000         180.000
 00  4 26 15 36  0.0000000  0  7G27G 2G26G 4G 7G 8G 9
   9273328.49249   7211207.55345  24288765.407    24288764.288    24288779.954
       210.000         151.000
     21375.66549     18390.20847  21388939.189    21388938.459    21388947.273
       241.000         205.000
   2069942.32449   1614078.91646  23106651.192    23106651.038    23106661.555
       230.000         184.000
 -11731439.22149  -9115244.03146  22518678.440    22518678.876    22518691.204
       219.000         176.000
  -1422943.70449  -1101956.86547  20545061.119    20545060.460    20545068.955
       235.000         205.000
   8237042.67349   6404759.26046  23238310.770    23238309.813    23238322.220
       221.000         167.000
 -11153194.98549  -8665630.31946  22984026.987    22984026.989    22984038.562
       227.000         181.000
 00  4 26 15 36 30.0000000  0  7G27G 2G26G 4G 7G 8G 9
   9376704.83149   7291760.19045  24308437.547    24308436.428    24308452.125
       213.000         153.000
     33471.03349     27815.10647  21391240.892    21391240.168    21391248.997
       241.000         205.000
   2114934.98749   1649138.02346  23115213.081    23115212.927    23115223.480
       229.000         184.000
 -11839845.26849  -9199716.18046  22498049.381    22498049.805    22498062.170
       231.000         180.000
  -1413398.31449  -1094518.92447  20546877.556    20546876.911    20546885.408
       235.000         205.000
   8333467.20149   6479895.01746  23256659.923    23256658.962    23256671.445
       221.000         167.000
 -11250655.98749  -8741573.86446  22965480.806    22965480.741    22965492.272
       225.000         181.000
 00  4 26 15 37  0.0000000  0  7G27G 2G26G 4G 7G 8G 9
   9480265.71349   7372456.65045  24328144.768    24328143.625    24328159.414
       208.000         151.000
     45844.27149     37456.53347  21393595.449    21393594.745    21393603.597
       241.000         205.000
   2160360.56349   1684534.47446  23123857.335    23123857.204    23123867.772
       229.000         184.000
 -11947990.44049  -9283985.08746  22477470.196    22477470.529    22477482.784
       223.000         179.000
  -1403432.82549  -1086753.63147  20548773.935    20548773.293    20548781.789
       235.000         205.000
   8430179.57149   6555255.11546  23275063.817    23275062.881    23275075.402
       221.000         167.000
 -11347777.28249  -8817252.71246  22946999.108    22946999.124    22947010.609
       226.000         181.000
 00  4 26 15 37 30.0000000  0  7G27G 2G26G 4G 7G 8G 9
   9584028.93449   7453310.71045  24347890.427    24347889.343    24347905.291
       205.000         147.000
     58492.68049     47312.38547  21396002.388    21396001.696    21396010.561
       240.000         205.000
   2206209.81949   1720261.06146  23132582.218    23132582.108    23132592.698
       228.000         184.000
 -12055881.12049  -9368055.62046  22456939.102    22456939.502    22456951.804
       222.000         176.000
  -1393064.70649  -1078674.60547  20550746.963    20550746.321    20550754.801
       235.000         205.000
   8527154.94849   6630820.10646  23293517.687    23293516.786    23293529.396
       220.000         168.000
 -11444584.23549  -8892686.60946  22928577.277    22928577.321    22928588.783
       227.000         181.000
 00  4 26 15 38  0.0000000  0  7G27G 2G26G 4G 7G 8G 9
   9688011.70749   7534335.87145  24367678.043    24367676.906    24367692.916
       209.000         148.000
     71428.44349     57392.15047  21398463.998    21398463.326    21398472.203
       241.000         205.000
   2252516.16749   1756343.82446  23141394.128    23141393.979    23141404.605
       228.000         183.000
 -12163478.08349  -9451897.35746  22436464.019    22436464.392    22436476.658
       227.000         175.000
  -1382296.43449  -1070283.77247  20552796.172    20552795.490    20552803.973
       236.000         205.000
   8624397.74449   6706593.47046  23312022.658    23312021.684    23312034.342
       222.000         167.000
 -11541039.85749  -8967846.74446  22910222.346    22910222.374    22910233.803
       228.000         182.000
 00  4 26 15 38 30.0000000  0  7G27G 2G26G 4G 7G 8G 9
   9792196.21449   7615518.26045  24387504.019    24387502.867    24387518.912
       208.000         147.000
     84632.35549     67680.86147  21400976.679    21400975.980    21400984.864
       241.000         205.000
   2299270.27249   1792775.49346  23150291.149    23150291.063    23150301.740
       227.000         183.000
 -12270776.82549  -9535506.68646  22416045.719    22416046.058    22416058.277
       228.000         179.000
  -1371131.22849  -1061583.64247  20554920.841    20554920.185    20554928.652
       235.000         205.000
   8721879.83049   6782553.30146  23330573.040    23330572.095    23330584.762
       219.000         164.000
 -11637158.01549  -9042743.92746  22891931.517    22891931.628    22891943.036
       227.000         183.000
 00  4 26 15 39  0.0000000  0  7G27G 2G26G 4G 7G 8G 9
   9896585.02049   7696859.85945  24407368.845    24407367.698    24407383.781
       208.000         146.000
     98100.73649     78175.64847  21403539.680    21403538.983    21403547.871
       241.000         205.000
   2346455.45449   1829543.06546  23159270.300    23159270.201    23159280.895
       228.000         183.000
 -12377788.25249  -9618892.09646  22395682.017    22395682.372    22395694.574
       224.000         178.000
  -1359575.55349  -1052579.25047  20557119.797    20557119.158    20557127.637
       236.000         205.000
   8819603.33349   6858701.22746  23349169.432    23349168.446    23349181.185
       220.000         169.000
 -11732957.89949  -9117393.09846  22873701.286    22873701.445    22873712.825
       227.000         182.000
 00  4 26 15 39 30.0000000  0  7G27G 2G26G 4G 7G 8G 9
  10001170.68349   7778354.86445  24427271.163    24427269.953    24427286.163
       208.000         147.000
    111833.57049     88876.49247  21406153.001    21406152.304    21406161.193
       241.000         205.000
   2394042.35949   1866623.66046  23168325.826    23168325.768    23168336.487
       229.000         182.000
 -12484502.31049  -9702045.80546  22375374.921    22375375.280    22375387.523
       230.000         180.000
  -1347623.67049  -1043266.13147  20559394.171    20559393.549    20559402.025
       236.000         205.000
   8917571.68249   6935039.91645  23367812.405    23367811.390    23367824.179
       219.000         162.000
 -11828438.13449  -9191793.20246  22855531.925    22855532.087    22855543.466
       230.000         182.000
 00  4 26 15 40  0.0000000  0  7G27G 2G26G 4G 7G 8G 9
  10105933.98049   7859988.27245  24447207.318    24447206.050    24447222.276
       209.000         149.000
    125804.17749     99762.63047  21408811.571    21408810.845    21408819.757
       241.000         204.000
   2442012.27849   1904002.71046  23177454.310    23177454.234    23177464.969
       227.000         183.000
 -12590916.89149  -9784966.19046  22355125.004    22355125.331    22355137.401
       222.000         175.000
  -1335272.75949  -1033642.07047  20561744.490    20561743.865    20561752.367
       235.000         205.000
   9015783.92449   7011568.67746  23386501.754    23386500.703    23386513.567
       219.000         164.000
 -11923611.00949  -9265953.81046  22837421.168    22837421.244    22837432.561
       229.000         184.000
 00  4 26 15 40 30.0000000  0  7G27G 2G26G 4G 7G 8G 9
  10210892.28449   7941773.64745  24467180.620    24467179.232    24467195.548
       208.000         149.000
    140020.04149    110839.88447  21411516.789    21411516.071    21411525.000
       240.000         204.000
   2490349.06049   1941667.61846  23186652.622    23186652.502    23186663.284
       228.000         182.000
 -12697024.35449  -9867647.22946  22334933.332    22334933.681    22334945.731
       228.000         180.000
  -1322504.43949  -1023692.75347  20564174.257    20564173.620    20564182.131
       236.000         206.000
   9114245.35349   7088291.61846  23405238.582    23405237.514    23405250.414
       219.000         167.000
 -12018478.73549  -9339876.64046  22819368.401    22819368.477    22819379.728
       228.000         184.000
 00  4 26 15 41  0.0000000  0  7G27G 2G26G 4G 7G 8G 9
  10316048.37549   8023713.13245  24487191.449    24487190.047    24487206.413
       207.000         148.000
    154482.86849    122109.56447  21414268.989    21414268.300    21414277.231
       241.000         204.000
   2539042.64949   1979610.55646  23195918.806    23195918.681    23195929.495
       229.000         183.000
 -12802835.56249  -9950097.46146  22314798.207    22314798.483    22314810.445
       227.000         178.000
  -1309332.58449  -1013429.00447  20566680.811    20566680.164    20566688.688
       236.000         206.000
   9212950.02149   7165204.09746  23424021.649    23424020.569    23424033.574
       218.000         163.000
 -12113045.08549  -9413564.63546  22801372.996    22801373.047    22801384.298
       229.000         184.000
 00  4 26 15 41 29.9990000  0  7G27G 2G26G 4G 7G 8G 9
  10421390.67349   8105797.74245  24507237.559    24507236.320    24507252.688
       205.000         143.000
    169194.65849    133573.25147  21417068.605    21417067.897    21417076.844
       241.000         204.000
   2588096.88449   2017834.54746  23205253.656    23205253.473    23205264.329
       226.000         182.000
 -12908340.96949 -10032309.32846  22294721.032    22294721.398    22294733.389
       228.000         182.000
  -1295756.31149  -1002850.11747  20569264.318    20569263.647    20569272.166
       236.000         205.000
   9311886.04949   7242296.88445  23442848.836    23442847.700    23442860.673
       218.000         162.000
 -12207293.68749  -9487005.02146  22783438.057    22783438.087    22783449.338
       229.000         185.000
 00  4 26 15 41 59.9990000  0  7G27G 2G26G 4G 7G 8G 9
  10526922.97149   8188030.43245  24527319.992    24527318.681    24527335.189
       207.000         141.000
    184165.40149    145238.72847  21419917.533    21419916.776    21419925.737
       241.000         204.000
   2637529.64949   2056353.45946  23214660.433    23214660.311    23214671.178
       228.000         181.000
 -13013545.89149 -10114287.11546  22274701.192    22274701.511    22274713.485
       232.000         181.000
  -1281793.72149   -991970.21047  20571921.297    20571920.664    20571929.159
       237.000         206.000
   9411052.94149   7319569.51145  23461719.756    23461718.699    23461731.748
       216.000         162.000
 -12301220.60449  -9560194.75346  22765564.281    22765564.341    22765575.541
       231.000         187.000
 00  4 26 15 42 29.9990000  0  7G27G 2G26G 4G 7G 8G 9
  10632623.63949   8270394.35945  24547434.480    24547433.147    24547449.678
       210.000         145.000
    199405.03549    157113.73247  21422817.592    21422816.835    21422825.794
       241.000         204.000
   2687335.52649   2095163.12346  23224138.255    23224138.116    23224149.025
       227.000         181.000
 -13118457.65749 -10196036.41746  22254737.047    22254737.397    22254749.360
       226.000         180.000
  -1267458.77349   -980800.14947  20574649.156    20574648.527    20574657.024
       237.000         206.000
   9510437.05349   7397011.42345  23480632.121    23480631.039    23480644.133
       219.000         162.000
 -12394811.33249  -9633122.51246  22747754.560    22747754.582    22747765.742
       231.000         187.000
 00  4 26 15 42 59.9990000  0  7G27G 2G26G 4G 7G 8G 9
  10738484.53849   8352883.11945  24567579.404    24567578.075    24567594.632
       206.000         145.000
    214935.75749    169215.54547  21425773.034    21425772.278    21425781.245
       240.000         204.000
   2737539.49149   2134282.98546  23233691.816    23233691.665    23233702.628
       229.000         181.000
 -13223048.42149 -10277535.63946  22234834.056    22234834.385    22234846.341
       230.000         181.000
  -1252735.42449   -969327.44647  20577450.925    20577450.303    20577458.800
       236.000         206.000
   9610062.48449   7474641.38745  23499590.398    23499589.299    23499602.425
       215.000         157.000
 -12488033.33849  -9705762.95647  22730015.008    22730014.968    22730026.122
       231.000         188.000
 00  4 26 15 43 29.9990000  0  7G27G 2G26G 4G 7G 8G 9
  10844469.62749   8435468.62745  24587747.806    24587746.570    24587763.294
       202.000         142.000
    230726.39549    181519.88647  21428777.901    21428777.168    21428786.164
       241.000         204.000
   2788111.30849   2173689.47946  23243315.351    23243315.226    23243326.213
       227.000         181.000
 -13327328.82449 -10358792.99846  22214989.971    22214990.400    22215002.358
       228.000         180.000
  -1237652.19649   -957574.31247  20580321.220    20580320.582    20580329.080
       237.000         206.000
   9709896.90049   7552434.16245  23518588.455    23518587.359    23518600.497
       215.000         160.000
 -12580907.62049  -9778132.44947  22712341.529    22712341.544    22712352.666
       233.000         189.000
 00  4 26 15 43 59.9990000  0  7G27G 2G26G 4G 7G 8G 9
  10950592.51149   8518161.51445  24607942.419    24607941.312    24607958.191
       195.000         142.000
    246786.04749    194033.84447  21431833.985    21431833.247    21431842.259
       239.000         205.000
   2839066.85649   2213394.97646  23253011.903    23253011.788    23253022.820
       227.000         181.000
 -13431286.16049 -10439798.62746  22195207.520    22195207.884    22195219.836
       231.000         182.000
  -1222198.09949   -945532.19347  20583262.083    20583261.422    20583269.922
       236.000         206.000
   9809949.31949   7630396.83145  23537628.063    23537626.935    23537640.110
       215.000         161.000
 -12673427.81349  -9850226.03147  22694735.490    22694735.475    22694746.568
       231.000         189.000
 00  4 26 15 44 29.9990000  0  7G27G 2G26G 4G 7G 8G 9
  11056854.64849   8600962.96345  24628163.579    24628162.527    24628179.441
       203.000         142.000
    263103.63849    206748.78947  21434939.102    21434938.401    21434947.437
       241.000         204.000
   2890401.03449   2253395.51146  23262780.505    23262780.413    23262791.481
       226.000         181.000
 -13534919.80549 -10520552.01846  22175486.578    22175486.962    22175498.882
       229.000         180.000
  -1206359.86949   -933190.74747  20586275.994    20586275.340    20586283.860
       237.000         206.000
   9910223.51749   7708532.28645  23556709.835    23556708.702    23556721.903
       213.000         154.000
 -12765592.23549  -9922042.39047  22677197.095    22677197.088    22677208.144
       233.000         189.000
 00  4 26 15 44 59.9990000  0  7G27G 2G26G 4G 7G 8G 9
  11163272.87449   8683886.02345  24648414.409    24648413.444    24648430.410
       202.000         143.000
    279674.44949    219661.06047  21438092.404    21438091.746    21438100.808
       239.000         204.000
   2942117.89649   2293694.25746  23272621.977    23272621.872    23272632.992
       226.000         181.000
 -13638234.74349 -10601057.06146  22155826.311    22155826.718    22155838.594
       229.000         183.000
  -1190144.13149   -920555.13447  20589361.776    20589361.127    20589369.647
       236.000         206.000
  10010715.67449   7786837.60545  23575832.987    23575831.862    23575845.130
       215.000         157.000
 -12857406.09349  -9993585.57047  22659725.463    22659725.422    22659736.462
       232.000         190.000
 00  4 26 15 45 29.9990000  0  7G27G 2G26G 4G 7G 8G 9
  11269864.66649   8766944.29545  24668698.411    24668697.395    24668714.446
       201.000         143.000
    296495.68249    232768.47047  21441293.373    21441292.746    21441301.836
       240.000         204.000
   2994222.17349   2334294.87246  23282537.251    23282537.086    23282548.242
       226.000         181.000
 -13741249.56349 -10681328.25446  22136223.112    22136223.548    22136235.438
       227.000         181.000
  -1173550.35949   -907624.95847  20592519.485    20592518.842    20592527.361
       237.000         206.000
  10111425.72049   7865312.68145  23594997.582    23594996.557    23595009.922
       212.000         158.000
 -12948871.34449 -10064857.12847  22642320.190    22642320.111    22642331.122
       232.000         189.000
 00  4 26 15 45 59.9990000  0  7G27G 2G26G 4G 7G 8G 9
  11376621.34749   8850131.03845  24689013.752    24689012.703    24689029.827
       202.000         144.000
    313576.52849    246078.19147  21444543.833    21444543.151    21444552.263
       240.000         204.000
   3046694.91649   2375182.59046  23292522.615    23292522.407    23292533.613
       227.000         180.000
 -13843960.51649 -10761362.68346  22116677.735    22116678.221    22116690.111
       230.000         182.000
  -1156568.73249   -894392.55847  20595750.995    20595750.373    20595758.895
       237.000         206.000
  10212363.71649   7943965.35245  23614205.502    23614204.546    23614218.038
       210.000         153.000
 -13039983.14149 -10135853.24247  22624982.153    22624982.051    22624993.066
       232.000         189.000
 00  4 26 15 46 29.9990000  0  7G27G 2G26G 4G 7G 8G 9
  11483523.58649   8933431.21545  24709356.667    24709355.683    24709372.957
       204.000         144.000
    330906.51249    259582.02447  21447841.660    21447840.993    21447850.111
       240.000         205.000
   3099499.43649   2416328.85146  23302571.050    23302570.869    23302582.089
       227.000         180.000
 -13946366.93549 -10841159.80246  22097190.339    22097190.872    22097202.725
       227.000         181.000
  -1139204.51049   -880862.03147  20599055.296    20599054.695    20599063.229
       237.000         207.000
  10313520.74849   8022788.73645  23633455.211    23633454.223    23633467.837
       213.000         156.000
 -13130749.34449 -10206580.08747  22607709.869    22607709.804    22607720.783
       231.000         189.000
 00  4 26 15 46 59.9990000  0  7G27G 2G26G 4G 7G 8G 9
  11590598.90949   9016866.29645  24729732.657    24729731.628    24729749.079
       205.000         143.000
    348529.67649    273314.31947  21451195.281    21451194.609    21451203.742
       240.000         205.000
   3152668.35249   2457759.04246  23312688.825    23312688.670    23312699.916
       226.000         180.000
 -14048424.13649 -10920684.83246  22077769.459    22077769.951    22077781.808
       230.000         182.000
  -1121417.62049   -867002.14947  20602440.063    20602439.461    20602448.003
       237.000         207.000
  10414919.58449   8101800.52345  23652750.853    23652749.955    23652763.687
       210.000         155.000
 -13221135.79649 -10277011.01347  22590509.847    22590509.773    22590520.732
       233.000         190.000
 00  4 26 15 47 29.9990000  0  7G27G 2G26G 4G 7G 8G 9
  11697792.68449   9100393.65745  24750131.173    24750130.142    24750147.677
       207.000         141.000
    366418.96749    287253.96747  21454599.510    21454598.882    21454608.010
       241.000         205.000
   3206155.53449   2499437.23946  23322867.174    23322867.042    23322878.304
       226.000         179.000
 -14150134.14249 -10999939.30946  22058414.604    22058415.121    22058426.952
       230.000         183.000
  -1103229.99749   -852830.01447  20605901.087    20605900.466    20605909.026
       237.000         207.000
  10516527.59849   8180975.24545  23672086.294    23672085.459    23672099.382
       207.000         153.000
 -13311169.55349 -10347167.11547  22573376.937    22573376.874    22573387.794
       233.000         191.000
 00  4 26 15 47 59.9990000  0  7G27G 2G26G 4G 7G 8G 9
  11805103.29649   9184012.08645  24770551.936    24770550.968    24770568.462
       201.000         134.000
    384588.01549    301411.60847  21458057.003    21458056.385    21458065.526
       240.000         205.000
   3259962.32549   2541364.47546  23333106.416    23333106.244    23333117.520
       227.000         178.000
 -14251463.09749 -11078896.87446  22039132.232    22039132.781    22039144.575
       229.000         182.000
  -1084633.66649   -838339.40347  20609439.903    20609439.260    20609447.818
       237.000         206.000
  10618356.36349   8260322.04245  23691463.921    23691463.053    23691477.032
       211.000         154.000
 -13400833.58149 -10417035.12647  22556314.424    22556314.334    22556325.212
       233.000         191.000
 00  4 26 15 48 29.9990000  0  7G27G 2G26G 4G 7G 8G 9
  11912522.06449   9267714.77544  24790993.244    24790992.382    24791009.825
       198.000         126.000
    403009.48349    315765.94947  21461562.532    21461561.907    21461571.057
       241.000         205.000
   3314090.95449   2583542.50346  23343406.849    23343406.703    23343417.976
       227.000         179.000
 -14352441.78749 -11157581.49246  22019916.586    22019917.123    22019928.878
       227.000         181.000
  -1065653.79149   -823549.92047  20613051.632    20613051.032    20613059.588
       237.000         207.000
  10720387.86049   8339826.81245  23710880.163    23710879.256    23710893.286
       208.000         153.000
 -13490135.56349 -10486621.00047  22539320.637    22539320.656    22539331.539
       234.000         191.000
 00  4 26 15 48 59.9990000  0  7G27G 2G26G 4G 7G 8G 9
  12020039.10849   9351493.97444  24811453.242    24811452.316    24811469.892
       196.000         126.000
    421682.75849    330316.49147  21465116.010    21465115.366    21465124.508
       241.000         205.000
   3368550.38649   2625978.29546  23353770.189    23353770.092    23353781.359
       226.000         179.000
 -14453078.13149 -11235999.34546  22000766.087    22000766.600    22000778.338
       229.000         182.000
  -1046311.06549   -808477.70747  20616732.429    20616731.851    20616740.427
       237.000         207.000
  10822605.53749   8419476.59245  23730331.622    23730330.762    23730344.898
       209.000         153.000
 -13579074.35249 -10555923.87147  22522396.050    22522396.113    22522406.963
       234.000         192.000
 00  4 26 15 49 29.9990000  0  6G 2G26G 4G 7G 8G 9
    440610.20149    345065.08547  21468717.810    21468717.188    21468726.340
       241.000         205.000
   3423339.60849   2668671.06646  23364196.368    23364196.236    23364207.521
       227.000         178.000
 -14553375.75549 -11314153.24346  21981679.950    21981680.516    21981692.255
       229.000         184.000
  -1026619.13649   -793133.38747  20620479.706    20620479.131    20620487.713
       237.000         207.000
  10925022.69749   8499281.81845  23749821.309    23749820.345    23749834.585
       208.000         152.000
 -13667634.66749 -10624931.84147  22505543.554    22505543.588    22505554.402
       234.000         193.000
 00  4 26 15 49 59.9990000  0  6G 2G26G 4G 7G 8G 9
    459772.14649    359996.40547  21472364.258    21472363.643    21472372.819
       240.000         205.000
   3478449.14149   2711613.41446  23374683.459    23374683.347    23374694.635
       226.000         178.000
 -14653358.31849 -11392061.67146  21962653.861    21962654.419    21962666.132
       230.000         184.000
  -1006587.16549   -777524.09647  20624291.713    20624291.132    20624299.720
       237.000         207.000
  11027631.17349   8579236.19245  23769347.443    23769346.329    23769360.597
       206.000         150.000
 -13755819.54449 -10693647.25947  22488762.477    22488762.503    22488773.280
       234.000         193.000
 00  4 26 15 50 29.9990000  0  6G 2G26G 4G 7G 8G 9
    479186.81049    375124.65147  21476058.805    21476058.189    21476067.389
       241.000         204.000
   3533893.87449   2754816.98346  23385234.457    23385234.226    23385245.519
       224.000         177.000
 -14753012.69349 -11469714.33046  21943690.219    21943690.773    21943702.501
       228.000         184.000
   -986205.09649   -761642.01047  20628170.326    20628169.742    20628178.348
       237.000         207.000
  11130418.90149   8659330.17245  23788907.564    23788906.380    23788920.812
       206.000         150.000
 -13843629.85549 -10762070.80847  22472052.678    22472052.711    22472063.429
       235.000         193.000
 00  4 26 15 50 59.9990000  0  6G 2G26G 4G 7G 8G 9
    498862.45449    390456.24647  21479803.057    21479802.410    21479811.606
       241.000         205.000
   3589666.07749   2798275.67046  23395847.647    23395847.444    23395858.719
       229.000         176.000
 -14852322.40349 -11547098.43046  21924792.169    21924792.685    21924804.426
       230.000         185.000
   -965471.69549   -745486.14447  20632115.781    20632115.208    20632123.843
       238.000         207.000
  11233366.01449   8739548.38745  23808498.038    23808496.843    23808511.306
       208.000         153.000
 -13931068.11649 -10830204.44147  22455413.642    22455413.716    22455424.416
       235.000         193.000
 00  4 26 15 51 29.9990000  0  6G 2G26G 4G 7G 8G 9
    518818.77449    406006.54547  21483600.679    21483600.028    21483609.231
       240.000         205.000
   3645780.08549   2842000.75546  23406525.980    23406525.663    23406536.958
       220.000         177.000
 -14951263.83149 -11624195.53946  21905964.158    21905964.705    21905976.420
       229.000         184.000
   -944351.98049   -729029.26947  20636134.744    20636134.183    20636142.836
       237.000         207.000
  11336502.60049   8819914.26245  23828124.630    23828123.358    23828137.910
       207.000         151.000
 -14018110.23049 -10898029.38947  22438850.045    22438850.104    22438860.791
       233.000         193.000
 00  4 26 15 51 59.9990000  0  6G 2G26G 4G 7G 8G 9
    539045.96549    421767.91647  21487449.863    21487449.200    21487458.412
       240.000         204.000
   3702210.51849   2885972.36846  23417264.413    23417264.130    23417275.430
       228.000         176.000
 -15049858.04449 -11701022.09946  21887202.259    21887202.777    21887214.480
       230.000         186.000
   -922863.70049   -712285.19547  20640223.826    20640223.271    20640231.961
       238.000         207.000
  11439791.40149   8900398.68045  23847780.152    23847778.865    23847793.430
       206.000         149.000
 -14104795.96949 -10965576.65047  22422354.220    22422354.302    22422364.957
       235.000         193.000
 00  4 26 15 52 29.9990000  0  6G 2G26G 4G 7G 8G 9
    559558.91349    437751.94947  21491353.449    21491352.751    21491361.975
       240.000         205.000
   3758958.65349   2930191.59046  23428063.329    23428063.057    23428074.358
       223.000         176.000
 -15148107.18349 -11777579.75346  21868505.954    21868506.513    21868518.214
       230.000         185.000
   -901019.87049   -695264.07347  20644380.540    20644380.020    20644388.721
       237.000         207.000
  11543218.76249   8980991.11645  23867461.794    23867460.706    23867475.208
       206.000         151.000
 -14191126.08549 -11032846.80447  22405926.124    22405926.207    22405936.808
       234.000         194.000
 00  4 26 15 52 59.9990000  0  6G 2G26G 4G 7G 8G 9
    580351.74349    453954.08547  21495310.222    21495309.558    21495318.794
       241.000         204.000
   3816021.88449   2974656.31746  23438922.211    23438921.934    23438933.241
       225.000         175.000
 -15246010.97149 -11853868.32646  21849875.369    21849875.941    21849887.642
       231.000         186.000
   -878815.73949   -677962.19747  20648605.871    20648605.349    20648614.052
       238.000         207.000
  11646817.48649   9061717.05745  23887176.257    23887175.116    23887189.708
       206.000         148.000
 -14277066.38649 -11099813.19847  22389572.211    22389572.280    22389582.824
       235.000         194.000
 00  4 26 15 53 29.9990000  0  6G 2G26G 4G 7G 8G 9
    601412.31849    470364.86447  21499317.982    21499317.300    21499326.574
       241.000         205.000
   3873380.96649   3019351.54946  23449837.349    23449837.126    23449848.423
       227.000         175.000
 -15343576.99649 -11929893.68046  21831309.070    21831309.666    21831321.360
       230.000         186.000
   -856280.57849   -660402.37447  20652894.236    20652893.680    20652902.401
       237.000         208.000
  11750596.59449   9142583.52545  23906925.057    23906923.877    23906938.584
       205.000         150.000
 -14362626.42849 -11166483.30247  22373290.622    22373290.697    22373301.224
       235.000         194.000
 00  4 26 15 53 59.9990000  0  6G 2G26G 4G 7G 8G 9
    622738.43949    486982.55547  21503376.279    21503375.605    21503384.886
       240.000         205.000
   3931034.72749   3064276.41146  23460808.584    23460808.383    23460819.720
       223.000         175.000
 -15440793.72149 -12005646.85946  21812809.264    21812809.859    21812821.551
       231.000         186.000
   -833420.41149   -642589.30247  20657244.378    20657243.845    20657252.590
       238.000         207.000
  11854553.46749   9223588.54845  23926707.500    23926706.436    23926721.221
       206.000         149.000
 -14447799.53749 -11232851.88047  22357082.621    22357082.746    22357093.267
       236.000         195.000
 00  4 26 15 54 29.9990000  0  6G 2G26G 4G 7G 8G 9
    644289.47049    503775.50247  21507477.300    21507476.676    21507485.996
       239.000         205.000
   3988963.91249   3109415.90146  23471832.275    23471832.062    23471843.437
       225.000         174.000
 -15537655.40749 -12081123.37946  21794377.045    21794377.638    21794389.295
       229.000         187.000
   -810258.15049   -624540.83147  20661652.071    20661651.515    20661660.255
       237.000         207.000
  11958676.67149   9304723.23245  23946521.684    23946520.637    23946535.505
       204.000         148.000
 -14532594.39849 -11298925.73147  22340946.639    22340946.792    22340957.275
       236.000         195.000
 00  4 26 15 54 59.9990000  0  6G 2G26G 4G 7G 8G 9
    666076.58749    520752.41947  21511623.267    21511622.673    21511632.018
       240.000         204.000
   4047183.14049   3154781.40546  23482911.146    23482910.906    23482922.331
       224.000         174.000
 -15634125.74549 -12156294.92847  21776019.227    21776019.849    21776031.536
       231.000         188.000
   -786769.58949   -606238.09947  20666121.841    20666121.277    20666130.024
       238.000         207.000
  12062994.52449   9386009.51645  23966372.935    23966371.806    23966386.901
       206.000         149.000
 -14616995.33149 -11364692.62547  22324885.655    22324885.777    22324896.249
       235.000         195.000
 00  4 26 15 55 29.9990000  0  6G 2G26G 4G 7G 8G 9
    688128.68849    537935.80147  21515819.727    21515819.099    21515828.462
       240.000         204.000
   4105706.84149   3200384.13246  23494047.877    23494047.698    23494059.144
       224.000         175.000
 -15730189.07949 -12231149.34147  21757738.894    21757739.537    21757751.184
       231.000         188.000
   -762947.25449   -587675.28247  20670655.089    20670654.557    20670663.296
       237.000         207.000
  12167496.16349   9467439.06445  23986259.189    23986258.068    23986273.184
       203.000         148.000
 -14701016.59149 -11430163.66747  22308896.897    22308897.012    22308907.459
       235.000         195.000
 00  4 26 15 55 59.9990000  0  6G 2G26G 4G 7G 8G 9
    710449.66749    555328.69847  21520067.293    21520066.702    21520076.079
       240.000         204.000
   4164538.36149   3246226.72746  23505243.185    23505243.062    23505254.552
       221.000         173.000
 -15825843.77849 -12305685.38747  21739536.388    21739537.000    21739548.639
       230.000         189.000
   -738769.17249   -568835.25447  20675256.038    20675255.513    20675264.271
       238.000         208.000
  12272162.17649   9548996.67745  24006176.842    24006175.664    24006190.823
       205.000         151.000
 -14784659.79349 -11495340.13247  22292980.101    22292980.216    22292990.620
       236.000         195.000
 00  4 26 15 56 29.9990000  0  6G 2G26G 4G 7G 8G 9
    733060.61049    572947.54447  21524370.100    21524369.473    21524378.868
       240.000         204.000
   4223683.21649   3292313.48046  23516498.237    23516498.054    23516509.566
       223.000         172.000
 -15921094.74949 -12379906.81847  21721410.718    21721411.267    21721422.856
       232.000         189.000
   -714237.53449   -549719.73647  20679924.268    20679923.756    20679932.528
       238.000         208.000
  12376994.50849   9630683.91745  24026125.866    24026124.800    24026140.059
       205.000         148.000
 -14867918.86449 -11560217.26147  22277136.354    22277136.489    22277146.877
       236.000         195.000
 00  4 26 15 56 59.9990000  0  6G 2G26G 4G 7G 8G 9
    755967.40149    590796.92447  21528729.224    21528728.554    21528737.965
       240.000         204.000
   4283122.06649   3338629.31546  23527809.114    23527809.003    23527820.571
       223.000         172.000
 -16015978.27949 -12453841.91647  21703354.903    21703355.466    21703367.024
       231.000         190.000
   -689362.47149   -530336.61347  20684657.858    20684657.346    20684666.139
       238.000         208.000
  12481982.88149   9712492.75545  24046104.734    24046103.644    24046119.007
       200.000         149.000
 -14950798.62649 -11624798.82847  22261364.787    22261364.948    22261375.336
       236.000         195.000
 00  4 26 15 57 29.9990000  0  6G 2G26G 4G 7G 8G 9
    779181.10349    608885.46047  21533146.664    21533146.037    21533155.449
       240.000         203.000
   4342849.60049   3385170.08546  23539174.939    23539174.869    23539186.497
       221.000         172.000
 -16110501.37249 -12527496.16347  21685367.649    21685368.228    21685379.775
       232.000         190.000
   -664146.35449   -510687.73747  20689456.367    20689455.852    20689464.651
       238.000         208.000
  12587114.14049   9794412.89145  24066110.748    24066109.654    24066125.159
       207.000         150.000
 -15033291.44649 -11689078.88147  22245666.854    22245667.038    22245677.395
       236.000         195.000
 00  4 26 15 57 59.9990000  0  7G 2G26G 4G24G 7G 8G 9
    802661.75249    627182.00747  21537614.955    21537614.298    21537623.734
       240.000         204.000
   4402835.55549   3431912.23246  23550589.960    23550589.910    23550601.574
       223.000         172.000
 -16204681.44549 -12600883.12147  21667445.635    21667446.259    21667457.773
       232.000         190.000
   -188335.00753                  24282190.363
       204.000          83.000
   -638608.38449   -490788.06247  20694316.102    20694315.590    20694324.389
       239.000         208.000
  12692364.34049   9876425.77845  24086139.464    24086138.352    24086153.908
       205.000         151.000
 -15115400.17249 -11753059.64247  22230042.101    22230042.226    22230052.565
       237.000         196.000
 00  4 26 15 58 29.9990000  0  7G 2G26G 4G24G 7G 8G 9
    826406.94149    645684.67647  21542133.498    21542132.904    21542142.359
       241.000         203.000
   4463081.00349   3478856.57146  23562054.411    23562054.344    23562066.060
       225.000         171.000
 -16298521.54949 -12674005.16947  21649588.415    21649589.003    21649600.488
       233.000         191.000
                                  24259880.264
       208.000
   -612760.33149   -470646.77247  20699234.834    20699234.338    20699243.143
       239.000         208.000
  12797737.11249   9958534.07945  24106191.406    24106190.367    24106206.063
       208.000         149.000
 -15197109.44649 -11816729.13947  22214493.268    22214493.427    22214503.755
       237.000         196.000
 00  4 26 15 58 59.9990000  0  7G 2G26G 4G24G 7G 8G 9
    850410.84549    664388.94547  21546701.283    21546700.736    21546710.205
       238.000         202.000
   4523590.83549   3526006.94446  23573569.118    23573569.050    23573580.828
       224.000         172.000
 -16391989.06049 -12746836.86447  21631802.010    21631802.629    21631814.105
       232.000         192.000
    -90814.72944                  24237577.763
       209.000         129.000
   -586581.33449   -450247.59847  20704216.573    20704216.069    20704224.860
       239.000         207.000
  12903243.71249  10040746.78945  24126268.744    24126267.822    24126283.439
       202.000         146.000
 -15278406.25149 -11880077.24647  22199022.943    22199023.107    22199033.410
       236.000         195.000
 00  4 26 15 59 29.9990000  0  7G 2G26G 4G24G 7G 8G 9
    874643.77849    683271.66247  21551312.788    21551312.175    21551321.646
       240.000         203.000
   4584357.16549   3573357.18946  23585132.630    23585132.616    23585144.425
       222.000         171.000
 -16485074.03449 -12819370.48947  21614088.513    21614089.073    21614100.525
       233.000         191.000
   -182115.30345                  24215281.288
       206.000         146.000
   -560087.93149   -429603.43447  20709258.189    20709257.645    20709266.435
       239.000         208.000
  13008862.40549  10123046.73645  24146367.690    24146366.562    24146382.428
       209.000         152.000
 -15359308.80449 -11943118.14047  22183627.644    22183627.812    22183638.093
       236.000         195.000
 00  4 26 15 59 59.9990000  0  7G 2G26G 4G24G 7G 8G 9
    899148.07249    702365.83147  21555975.839    21555975.231    21555984.731
       239.000         202.000
   4645423.88349   3620941.52346  23596753.405    23596753.342    23596765.179
       224.000         172.000
 -16577718.89249 -12891561.18247  21596458.670    21596459.274    21596470.678
       234.000         192.000
   -727170.68849   -273351.53545  24193000.434    24193000.049    24193017.543
       206.000         145.000
   -533236.90249   -408680.59847  20714367.845    20714367.279    20714376.052
       239.000         208.000
  13114654.58349  10205481.95245  24166499.506    24166498.446    24166514.295
       201.000         149.000
 -15439761.36449 -12005808.39447  22168317.969    22168318.153    22168328.422
       236.000         196.000
 00  4 26 16  0 29.9990000  0  7G 2G26G 4G24G 7G 8G 9
    923895.32449    721649.32847  21560685.133    21560684.539    21560694.043
       240.000         203.000
   4706733.20349   3668714.85746  23608420.242    23608420.230    23608432.109
       222.000         171.000
 -16669960.90349 -12963437.98347  21578905.453    21578906.102    21578917.493
       236.000         192.000
   -844208.68449   -364549.82845  24170728.886    24170728.537    24170746.441
       210.000         147.000
   -506082.01249   -387520.99347  20719535.295    20719534.727    20719543.498
       240.000         208.000
  13220584.64849  10288024.56145  24186657.505    24186656.477    24186672.485
       206.000         151.000
 -15519818.66549 -12068190.64947  22153083.504    22153083.706    22153093.946
       237.000         196.000
 00  4 26 16  0 59.9990000  0  7G 2G26G 4G24G 7G 8G 9
    948874.88349    741113.85447  21565438.674    21565438.062    21565447.578
       240.000         202.000
   4768258.33849   3716656.39646  23620128.264    23620128.189    23620140.101
       222.000         170.000
 -16761799.49249 -13035000.42147  21561429.074    21561429.731    21561441.088
       235.000         193.000
   -961223.81559   -455730.36655  24148461.713    24148462.153    24148479.129
       209.000         147.000
   -478643.73549   -366140.56047  20724756.670    20724756.086    20724764.863
       240.000         208.000
  13326644.97149  10370668.67745  24206840.330    24206839.304    24206855.436
       201.000         145.000
 -15599511.33249 -12130288.76847  22137918.471    22137918.662    22137928.881
       236.000         196.000
 00  4 26 16  1 29.9990000  0  7G 2G26G 4G24G 7G 8G 9
    974131.81149    760794.50347  21570244.969    21570244.364    21570253.880
       239.000         203.000
   4830026.14649   3764786.99546  23631882.424    23631882.324    23631894.260
       223.000         171.000
 -16853209.93049 -13106229.26147  21544034.170    21544034.814    21544046.132
       236.000         194.000
  -1078200.24949   -546880.66945  24126201.864    24126202.024    24126219.087
       206.000         148.000
   -450902.83249   -344524.31847  20730035.584    20730035.030    20730043.829
       239.000         209.000
  13432868.03949  10453439.65945  24227054.236    24227053.141    24227069.304
       209.000         152.000
 -15678799.03849 -12192071.33647  22122830.443    22122830.660    22122840.884
       237.000         196.000
 00  4 26 16  1 59.9990000  0  7G 2G26G 4G24G 7G 8G 9
    999689.20449    780709.24047  21575108.388    21575107.838    21575117.366
       239.000         202.000
   4892035.75149   3813106.03446  23643682.634    23643682.498    23643694.455
       222.000         171.000
 -16944191.30349 -13177123.74447  21526720.956    21526721.569    21526732.864
       236.000         193.000
  -1195137.00449   -638000.03145  24103949.623    24103949.552    24103966.774
       210.000         151.000
   -422859.06249   -322672.08047  20735372.175    20735371.633    20735380.437
       240.000         208.000
  13539258.04549  10536340.70645  24247299.808    24247298.752    24247315.004
       204.000         151.000
 -15757663.51749 -12253524.12647  22107822.999    22107823.190    22107833.414
       237.000         197.000
 00  4 26 16  2 29.9990000  0  7G 2G26G 4G24G 7G 8G 9
   1025529.06149    800844.09247  21580025.649    21580025.056    21580034.598
       239.000         202.000
   4954280.29149   3861608.10646  23655527.433    23655527.337    23655539.336
       222.000         170.000
 -17034764.02049 -13247699.80047  21509485.511    21509486.078    21509497.364
       237.000         194.000
  -1312039.88349   -729093.05245  24081703.618    24081703.710    24081720.865
       209.000         148.000
   -394523.39749   -300592.39047  20740764.315    20740763.779    20740772.597
       240.000         208.000
  13645792.20349  10619354.02145  24267572.801    24267571.655    24267588.144
       206.000         149.000
 -15836122.49949 -12314660.93747  22092892.679    22092892.897    22092903.091
       237.000         197.000
 00  4 26 16  2 59.9990000  0  7G 2G26G 4G24G 7G 8G 9
   1051640.86949    821190.86947  21584994.625    21584994.033    21585003.624
       239.000         202.000
   5016776.96149   3910306.65646  23667420.233    23667420.151    23667432.198
       221.000         168.000
 -17124923.64649 -13317953.95347  21492328.514    21492329.180    21492340.435
       235.000         194.000
  -1428912.17949   -820162.22745  24059463.697    24059463.553    24059480.722
       209.000         147.000
   -365885.13449   -278276.90947  20746214.008    20746213.492    20746222.319
       239.000         208.000
  13752468.26649  10702478.00045  24287872.783    24287871.719    24287888.179
       204.000         148.000
 -15914147.13249 -12375459.29547  22078045.037    22078045.249    22078055.464
       236.000         197.000
 00  4 26 16  3 29.9990000  0  7G 2G26G 4G24G 7G 8G 9
   1078015.47749    841742.43447  21590013.616    21590013.031    21590022.648
       241.000         202.000
   5079519.13649   3959196.55046  23679359.772    23679359.726    23679371.814
       220.000         168.000
 -17214678.88449 -13387893.00447  21475248.616    21475249.267    21475260.517
       236.000         194.000
  -1545753.23049   -911207.02645  24037229.526    24037229.410    24037246.554
       213.000         153.000
   -336934.74649   -255718.21047  20751723.087    20751722.586    20751731.422
       240.000         208.000
  13859269.51149  10785699.41845  24308196.621    24308195.533    24308212.151
       209.000         151.000
 -15991723.14149 -12435908.07647  22063282.782    22063282.991    22063293.180
       237.000         196.000
 00  4 26 16  3 59.9990000  0  7G 2G26G 4G24G 7G 8G 9
   1104651.95249    862498.04347  21595082.446    21595081.853    21595091.481
       239.000         202.000
   5142505.27249   4008276.51146  23691345.696    23691345.681    23691357.830
       221.000         168.000
 -17304032.71649 -13457519.28647  21458245.070    21458245.730    21458256.913
       236.000         195.000
  -1662536.59049  -1002206.87445  24015006.246    24015006.210    24015023.456
       209.000         149.000
   -307664.45549   -232910.24347  20757293.079    20757292.579    20757301.421
       240.000         208.000
  13966187.50749  10869011.92345  24328542.784    24328541.637    24328558.253
       208.000         149.000
 -16068845.95249 -12496003.71447  22048606.724    22048606.953    22048617.162
       236.000         197.000
 00  4 26 16  4 29.9990000  0  8G 2G26G 4G24G 5G 7G 8G 9
   1131530.75249    883442.46847  21600197.415    21600196.794    21600206.434
       239.000         202.000
   5205720.46049   4057534.95846  23703375.263    23703375.269    23703387.462
       220.000         168.000
 -17392985.24449 -13526832.85647  21441317.822    21441318.537    21441329.755
       236.000         195.000
  -1779267.78349  -1093166.08845  23992792.881    23992792.861    23992810.145
       209.000         149.000
  -2894843.67559  -2239569.29755  25026056.146    25026055.855    25026070.904
       211.000         144.000
   -278080.43749   -209857.81047  20762922.813    20762922.282    20762931.127
       239.000         208.000
  14073208.02949  10952404.30945  24348908.165    24348907.216    24348923.781
       204.000         146.000
 -16145529.16849 -12555756.80747  22034014.323    22034014.573    22034024.770
       235.000         197.000
 00  4 26 16  4 59.9990000  0  8G 2G26G 4G24G 5G 7G 8G 9
   1158680.45149    904597.97947  21605363.907    21605363.291    21605372.943
       238.000         202.000
   5269177.39649   4106981.77746  23715450.804    23715450.802    23715463.050
       220.000         168.000
 -17481496.76449 -13595802.78347  21424474.643    21424475.301    21424486.482
       237.000         196.000
  -1895923.60249  -1184066.54445  23970593.917    23970593.936    23970611.149
       210.000         152.000
  -2986245.06249  -2310791.18845  25008663.077    25008662.905    25008677.949
       211.000         145.000
   -248153.36849   -186538.05847  20768617.785    20768617.271    20768626.113
       239.000         208.000
  14180349.14049  11035890.57145  24369296.637    24369295.714    24369312.405
       206.000         151.000
 -16221747.21949 -12615147.43047  22019510.444    22019510.704    22019520.887
       237.000         197.000
 00  4 26 16  5 29.9990000  0  8G 2G26G 4G24G 5G 7G 8G 9
   1186113.76349    925974.51047  21610584.357    21610583.739    21610593.414
       239.000         202.000
   5332866.18449   4156609.23746  23727570.489    23727570.491    23727582.774
       221.000         167.000
 -17569572.45449 -13664433.11947  21407714.317    21407714.998    21407726.151
       238.000         196.000
  -2012504.21649  -1274908.36845  23948409.214    23948409.282    23948426.484
       212.000         150.000
  -3077671.95749  -2382032.92045  24991265.165    24991264.972    24991279.999
       208.000         143.000
   -217903.65949   -162966.90147  20774374.152    20774373.639    20774382.489
       241.000         208.000
  14287596.65749  11119459.77145  24389705.515    24389704.462    24389721.259
       206.000         148.000
 -16297520.44949 -12674191.46447  22005091.286    22005091.512    22005101.672
       239.000         197.000
 00  4 26 16  5 59.9990000  0  8G 2G26G 4G24G 5G 7G 8G 9
   1213822.34749    947565.52247  21615857.208    21615856.583    21615866.256
       238.000         202.000
   5396783.47249   4206414.76046  23739733.641    23739733.650    23739745.944
       219.000         168.000
 -17657232.43449 -13732739.53247  21391033.120    21391033.789    21391044.913
       238.000         196.000
  -2129021.95349  -1365701.28445  23926236.508    23926236.622    23926253.789
       212.000         152.000
  -3169138.41249  -2453305.44745  24973859.485    24973859.362    24973874.435
       210.000         143.000
   -187365.02749   -139170.61347  20780185.498    20780184.988    20780193.847
       240.000         208.000
  14394939.17649  11203103.00945  24410132.383    24410131.351    24410148.143
       210.000         152.000
 -16372869.21449 -12732904.74347  21990752.852    21990753.063    21990763.204
       238.000         197.000
 00  4 26 16  6 29.9990000  0  8G 2G26G 4G24G 5G 7G 8G 9
   1241798.30149    969364.88247  21621180.882    21621180.288    21621189.988
       238.000         201.000
   5460930.62149   4256399.37846  23751940.462    23751940.515    23751952.929
       219.000         169.000
 -17744465.02049 -13800712.92747  21374433.272    21374433.923    21374445.009
       237.000         196.000
  -2245488.88249  -1456454.53045  23904073.462    23904073.660    23904090.768
       210.000         152.000
  -3260632.85149  -2524599.80045  24956448.771    24956448.575    24956463.694
       203.000         143.000
   -156535.83949   -115147.91647  20786052.111    20786051.626    20786060.487
       239.000         208.000
  14502381.75949  11286824.24245  24430578.261    24430577.277    24430594.114
       207.000         151.000
 -16447809.82349 -12791299.97647  21976492.098    21976492.303    21976502.422
       236.000         198.000
 00  4 26 16  6 59.9990000  0  8G 2G26G 4G24G 5G 7G 8G 9
   1270065.38649    991391.09147  21626559.963    21626559.406    21626569.146
       237.000         201.000
   5525322.89549   4306575.03546  23764194.078    23764194.086    23764206.523
       220.000         169.000
 -17831266.18549 -13868350.13947  21357915.546    21357916.169    21357927.230
       237.000         197.000
  -2361885.10549  -1547152.73645  23881923.901    23881924.118    23881941.200
       210.000         151.000
  -3352111.20249  -2595881.50145  24939040.949    24939040.756    24939055.902
       209.000         144.000
   -125405.85949    -90890.83747  20791975.981    20791975.504    20791984.388
       240.000         208.000
  14609940.81249  11370636.21645  24451046.213    24451045.321    24451062.163
       204.000         142.000
 -16522319.56249 -12849359.45147  21962313.348    21962313.540    21962323.656
       236.000         198.000
 00  4 26 16  7 29.9990000  0  8G 2G26G 4G24G 5G 7G 8G 9
   1298626.57349   1013646.46347  21631995.018    21631994.479    21632004.244
       238.000         201.000
   5589958.25349   4356940.08246  23776493.893    23776493.913    23776506.414
       219.000         169.000
 -17917638.78049 -13935653.40647  21341479.296    21341479.935    21341490.988
       237.000         197.000
  -2478216.30449  -1637800.25245  23859786.683    23859786.933    23859803.945
       212.000         153.000
  -3443569.43749  -2667147.61645  24921636.879    24921636.837    24921652.022
       205.000         142.000
    -93983.73649    -66406.11847  20797955.441    20797954.974    20797963.865
       240.000         208.000
  14717620.39349  11454542.13845  24471537.119    24471536.250    24471553.081
       207.000         143.000
 -16596393.04849 -12907079.00847  21948217.554    21948217.788    21948227.895
       238.000         198.000
 00  4 26 16  7 59.9990000  0  8G 2G26G 4G24G 5G 7G 8G 9
   1327465.22549   1036118.04647  21637482.870    21637482.348    21637492.160
       236.000         200.000
   5654810.62749   4407474.26046  23788834.994    23788834.992    23788847.574
       219.000         168.000
 -18003579.95649 -14002620.49247  21325125.113    21325125.802    21325136.861
       236.000         197.000
  -2594488.95449  -1728402.15245  23837660.549    23837660.869    23837677.931
       210.000         151.000
  -3535005.36649  -2738396.37845  24904237.239    24904237.119    24904252.464
       204.000         145.000
    -62269.19149    -41693.53147  20803990.588    20803990.104    20803998.986
       240.000         208.000
  14825412.51349  11538535.70545  24492049.521    24492048.609    24492065.496
       203.000         144.000
 -16670035.69949 -12964462.85447  21934203.836    21934204.030    21934214.113
       237.000         198.000
 00  4 26 16  8 29.9990000  0  8G 2G26G 4G24G 5G 7G 8G 9
   1356593.75349   1058815.51647  21643025.910    21643025.389    21643035.217
       237.000         201.000
   5719871.97149   4458171.25146  23801215.808    23801215.857    23801228.476
       220.000         168.000
 -18089056.63149 -14069225.62747  21308859.438    21308860.087    21308871.112
       237.000         197.000
  -2710677.68349  -1818938.68245  23815550.425    23815550.804    23815567.838
       215.000         155.000
  -3626410.26549  -2809620.87845  24886843.464    24886843.321    24886858.733
       212.000         144.000
    -30235.06549    -16731.92247  20810086.522    20810086.040    20810094.935
       239.000         208.000
  14933321.00349  11622619.92645  24512584.173    24512583.135    24512600.068
       209.000         150.000
 -16743224.50049 -13021493.03947  21920276.427    21920276.636    21920286.712
       236.000         198.000
 00  4 26 16  8 59.9990000  0  8G 2G26G 4G24G 5G 7G 8G 9
   1386000.17249   1081729.52447  21648621.826    21648621.302    21648631.188
       237.000         200.000
   5785108.78049   4509004.96546  23813630.096    23813630.154    23813642.778
       221.000         168.000
 -18174093.25049 -14135487.85847  21292677.459    21292678.110    21292689.129
       238.000         197.000
  -2826801.73849  -1909424.80845  23793452.582    23793453.016    23793470.024
       211.000         150.000
  -3717830.23149  -2880857.14445  24869446.658    24869446.453    24869461.998
       211.000         146.000
      2083.40649      8451.25647  20816236.593    20816236.100    20816244.990
       240.000         208.000
  15041311.22949  11706767.89845  24533134.257    24533133.296    24533150.178
       208.000         150.000
 -16815958.13049 -13078168.54447  21906435.623    21906435.874    21906445.922
       237.000         198.000
 00  4 26 16  9 29.9990000  0  8G 2G26G 4G24G 5G 7G 8G 9
   1415674.79449   1104852.50047  21654268.791    21654268.272    21654278.171
       237.000         200.000
   5850511.93149   4559968.28646  23826076.116    23826076.109    23826088.763
       219.000         168.000
 -18258683.50049 -14201402.27147  21276580.423    21276581.068    21276592.075
       236.000         197.000
  -2942854.20149  -1999855.15845  23771368.470    23771368.859    23771385.851
       210.000         155.000
  -3809294.95449  -2952128.34445  24852041.622    24852041.433    24852056.935
       201.000         142.000
     34680.62349     33851.63547  20822439.641    20822439.174    20822448.081
       239.000         208.000
  15149374.05049  11790972.40945  24553698.111    24553697.242    24553714.207
       203.000         146.000
 -16888255.97949 -13134504.48247  21892677.718    21892677.990    21892688.015
       237.000         198.000
 00  4 26 16  9 59.9990000  0  8G 2G26G 4G24G 5G 7G 8G 9
   1445634.29649   1128197.46947  21659969.993    21659969.446    21659979.378
       236.000         200.000
   5916109.31549   4611082.97446  23838559.043    23838559.009    23838571.687
       221.000         168.000
 -18342814.00949 -14266958.43147  21260570.899    21260571.522    21260582.510
       237.000         197.000
  -3058795.58749  -2090198.92245  23749305.475    23749305.819    23749322.781
       214.000         153.000
  -3900777.67649  -3023413.51145  24834632.939    24834632.768    24834648.215
       211.000         147.000
     67575.52749     59483.98047  20828699.367    20828698.890    20828707.813
       240.000         207.000
  15257525.87549  11875246.25345  24574278.958    24574278.053    24574295.124
       208.000         145.000
 -16960105.61049 -13190491.15947  21879005.166    21879005.419    21879015.426
       238.000         199.000
 00  4 26 16 10 29.9990000  0  8G 2G26G 4G24G 5G 7G 8G 9
   1475865.84749   1151754.42647  21665722.942    21665722.392    21665732.351
       237.000         199.000
   5981911.88049   4662357.54146  23851081.053    23851080.940    23851093.646
       221.000         167.000
 -18426489.70849 -14332160.19947  21244647.856    21244648.509    21244659.453
       237.000         198.000
  -3174630.52449  -2180459.73945  23727262.565    23727263.005    23727279.956
       213.000         156.000
  -3992281.57549  -3094715.13945  24817220.336    24817220.100    24817235.648
       206.000         145.000
    100751.75949     85335.54047  20835012.623    20835012.163    20835021.098
       240.000         208.000
  15365756.67349  11959581.65245  24594874.915    24594873.977    24594891.058
       206.000         146.000
 -17031517.73349 -13246136.92047  21865415.833    21865416.094    21865426.085
       238.000         199.000
 00  4 26 16 10 59.9990000  0  8G 2G26G 4G24G 5G 7G 8G 9
   1506370.93449   1175524.54447  21671527.982    21671527.397    21671537.375
       237.000         199.000
   6047927.75049   4713798.31846  23863643.642    23863643.478    23863656.231
       218.000         165.000
 -18509713.48049 -14397009.82147  21228810.785    21228811.490    21228822.431
       237.000         198.000
  -3290368.83449  -2270645.28645  23705238.229    23705238.640    23705255.579
       212.000         153.000
  -4083808.96649  -3166035.18445  24799803.324    24799802.966    24799818.530
       216.000         145.000
    134190.27549    111391.48047  20841375.788    20841375.328    20841384.288
       240.000         208.000
  15474067.63049  12043979.51745  24615485.991    24615485.021    24615502.239
       202.000         143.000
 -17102510.07149 -13301455.57347  21851906.419    21851906.674    21851916.638
       238.000         199.000
 00  4 26 16 11 29.9990000  0  8G 2G26G 4G24G 5G 7G 8G 9
   1537159.37249   1199515.45147  21677386.888    21677386.309    21677396.322
       237.000         199.000
   6114178.74949   4765422.29746  23876250.802    23876250.727    23876263.544
       221.000         166.000
 -18592463.71449 -14461490.46347  21213063.944    21213064.610    21213075.493
       237.000         197.000
  -3405994.22849  -2360742.79445  23683235.439    23683235.709    23683252.664
       213.000         157.000
  -4175324.10649  -3237345.59445  24782388.463    24782388.210    24782403.771
       216.000         147.000
    167907.96349    137664.95847  20847792.102    20847791.631    20847800.593
       241.000         207.000
  15582480.84949  12128457.07345  24636116.423    24636115.576    24636132.875
       207.000         146.000
 -17173079.43349 -13356444.63247  21838477.493    21838477.741    21838487.708
       238.000         199.000
 00  4 26 16 11 59.9990000  0  8G 2G26G 4G24G 5G 7G 8G 9
   1568208.38149   1223709.41047  21683295.386    21683294.813    21683304.843
       236.000         199.000
   6180640.13549   4817210.22746  23888898.163    23888898.040    23888910.853
       220.000         166.000
 -18674756.26949 -14525614.47647  21197404.158    21197404.819    21197415.678
       237.000         198.000
  -3521535.63649  -2450774.87745  23661248.565    23661248.855    23661265.707
       212.000         155.000
  -4266818.61349  -3308640.02645  24764977.900    24764977.483    24764992.897
       214.000         145.000
    201882.16049    164138.30447  20854257.188    20854256.739    20854265.716
       240.000         207.000
  15690977.38149  12212999.51945  24656762.833    24656761.978    24656779.341
       209.000         152.000
 -17243218.89149 -13411098.70447  21825130.391    21825130.610    21825140.574
       238.000         199.000
 00  4 26 16 12 29.9990000  0  8G 2G26G 4G24G 5G 7G 8G 9
   1599541.03049   1248124.39247  21689257.840    21689257.287    21689267.362
       237.000         199.000
   6247314.86649   4869164.42046  23901585.997    23901585.954    23901598.792
       218.000         165.000
 -18756563.23049 -14589360.07547  21181836.735    21181837.405    21181848.239
       237.000         199.000
  -3636985.09749  -2540735.26445  23639279.029    23639279.428    23639296.232
       213.000         155.000
  -4358282.96049  -3379910.81645  24747572.715    24747572.331    24747587.807
       216.000         151.000
    236123.25549    190819.63147  20860773.061    20860772.625    20860781.600
       240.000         207.000
  15799570.95349  12297617.57945  24677427.828    24677426.896    24677444.246
       204.000         147.000
 -17312887.89949 -13465386.19847  21811872.805    21811873.007    21811882.945
       238.000         199.000
 00  4 26 16 12 59.9990000  0  8G 2G26G 4G24G 5G 7G 8G 9
   1631176.96249   1272775.69647  21695277.965    21695277.439    21695287.546
       235.000         199.000
   6314203.28749   4921285.07946  23914314.533    23914314.461    23914327.428
       220.000         166.000
 -18837877.48949 -14652721.75347  21166363.128    21166363.775    21166374.594
       237.000         198.000
  -3752313.06149  -2630601.04045  23617332.772    23617333.163    23617349.928
       212.000         156.000
  -4449706.17349  -3451149.65145  24730175.290    24730174.952    24730190.431
       206.000         139.000
    270658.14949    217729.89147  20867344.855    20867344.419    20867353.413
       239.000         207.000
  15908281.02449  12382326.38145  24698114.854    24698113.949    24698131.388
       198.000         140.000
 -17382053.94749 -13519281.76547  21798710.916    21798711.109    21798721.034
       238.000         199.000
 00  4 26 16 13 29.9990000  0  8G 2G26G 4G24G 5G 7G 8G 9
   1663089.99649   1297642.91547  21701350.875    21701350.353    21701360.485
       236.000         199.000
   6381267.23249   4973542.54446  23927076.492    23927076.443    23927089.416
       218.000         164.000
 -18918730.92749 -14715724.34147  21150977.132    21150977.804    21150988.610
       238.000         198.000
  -3867530.81049  -2720380.88045  23595407.520    23595407.896    23595424.499
       213.000         156.000
  -4541107.87549  -3522371.71145  24712782.167    24712781.788    24712797.270
       208.000         144.000
    305470.67149    244856.48647  20873969.495    20873969.052    20873978.066
       240.000         207.000
  16017077.03149  12467102.16745  24718818.164    24718817.320    24718834.805
       202.000         138.000
 -17450718.61349 -13572786.65647  21785644.394    21785644.610    21785654.523
       238.000         200.000
 00  4 26 16 13 59.9990000  0  8G 2G26G 4G24G 5G 7G 8G 9
   1695291.43049   1322734.85747  21707478.660    21707478.133    21707488.313
       235.000         198.000
   6448501.16249   5025932.42946  23939870.750    23939870.745    23939883.743
       222.000         165.000
 -18999119.47149 -14778364.65047  21135679.636    21135680.298    21135691.124
       237.000         199.000
  -3982622.28049  -2810062.30345  23573506.216    23573506.609    23573523.173
       216.000         159.000
  -4632494.00249  -3593581.60345  24695391.726    24695391.510    24695406.887
       211.000         143.000
    340571.70149    272207.89247  20880649.010    20880648.590    20880657.616
       240.000         207.000
  16125955.63349  12551942.32145  24739537.190    24739536.455    24739553.967
       202.000         141.000
 -17518866.57349 -13625888.91747  21772676.172    21772676.435    21772686.341
       239.000         199.000
 00  4 26 16 14 29.9990000  0  8G 2G26G 4G24G 5G 7G 8G 9
   1727784.82949   1348054.29647  21713661.976    21713661.488    21713671.673
       235.000         198.000
   6515897.02049   5078448.53546  23952695.933    23952695.917    23952708.874
       215.000         163.000
 -19079043.62149 -14840643.10747  21120470.484    21120471.161    21120481.961
       237.000         198.000
  -4097584.85149  -2899643.32845  23551629.504    23551629.841    23551646.343
       215.000         157.000
  -4723891.94049  -3664800.73945  24677999.260    24677999.086    24678014.371
       213.000         145.000
    375961.85949    299784.59447  20887383.524    20887383.129    20887392.168
       239.000         207.000
  16234907.28049  12636839.35545  24760270.075    24760269.475    24760287.008
       204.000         145.000
 -17586519.14849 -13678605.16947  21759802.269    21759802.539    21759812.431
       239.000         200.000
 00  4 26 16 14 59.9990000  0  8G 2G26G 4G24G 5G 7G 8G 9
   1760564.35449   1373596.68547  21719899.741    21719899.273    21719909.489
       236.000         198.000
   6583446.20049   5131084.07546  23965550.217    23965550.214    23965563.202
       218.000         164.000
 -19158507.99149 -14902563.29547  21105348.841    21105349.532    21105360.311
       237.000         199.000
  -4212421.02649  -2989125.82845  23529776.749    23529777.119    23529793.563
       212.000         155.000
  -4815298.38649  -3736026.44545  24660605.150    24660604.899    24660620.231
       212.000         145.000
    411648.71649    327592.48947  20894174.520    20894174.131    20894183.173
       240.000         207.000
  16343930.16649  12721791.90545  24781016.682    24781016.047    24781033.687
       200.000         141.000
 -17653698.17149 -13730952.41847  21747018.527    21747018.759    21747028.656
       238.000         200.000
 00  4 26 16 15 29.9990000  0  8G 2G26G 4G24G 5G 7G 8G 9
   1793628.52649   1399360.87447  21726191.697    21726191.239    21726201.492
       235.000         198.000
   6651136.16549   5183829.32946  23978431.350    23978431.303    23978444.373
       215.000         164.000
 -19237517.36049 -14964128.94847  21090313.817    21090314.496    21090325.232
       237.000         198.000
  -4327157.21649  -3078530.42745  23507943.035    23507943.411    23507959.788
       214.000         157.000
  -4906712.97749  -3807258.51545  24643209.429    24643209.213    24643224.498
       211.000         147.000
    447618.11149    355620.54047  20901019.324    20901018.911    20901027.957
       240.000         207.000
  16453018.68749  12806795.54845  24801775.831    24801775.138    24801792.823
       203.000         138.000
 -17720416.15149 -13782940.41547  21734322.471    21734322.697    21734332.596
       239.000         200.000
 00  4 26 16 15 59.9990000  0  8G 2G26G 4G24G 5G 7G 8G 9
   1826978.72649   1425347.94047  21732538.132    21732537.651    21732547.924
       237.000         198.000
   6718978.26949   5236693.13046  23991341.471    23991341.398    23991354.521
       219.000         163.000
 -19316046.93449 -15025320.72747  21075370.068    21075370.749    21075381.494
       237.000         199.000
  -4441795.45949  -3167858.74145  23486127.881    23486128.348    23486144.658
       212.000         157.000
  -4998137.88449  -3878498.65645  24625811.808    24625811.659    24625826.911
       215.000         147.000
    483865.24049    383865.01547  20907916.970    20907916.552    20907925.601
       240.000         207.000
  16562193.97249  12891866.88445  24822551.501    24822550.784    24822568.425
       206.000         137.000
 -17786677.73749 -13834572.78447  21721713.253    21721713.518    21721723.389
       239.000         201.000
 00  4 26 16 16 29.9990000  0  8G 2G26G 4G24G 5G 7G 8G 9
   1860613.30349   1451556.61547  21738938.679    21738938.172    21738948.464
       235.000         197.000
   6786976.26349   5289678.38446  24004281.155    24004281.078    24004294.232
       219.000         163.000
 -19394089.69949 -15086133.18847  21060518.929    21060519.625    21060530.340
       238.000         199.000
  -4556342.99649  -3257116.38345  23464330.025    23464330.573    23464346.820
       210.000         154.000
  -5089569.89949  -3949744.28245  24608412.774    24608412.634    24608427.946
       209.000         147.000
    520382.33749    412319.85747  20914865.962    20914865.548    20914874.623
       240.000         206.000
  16671455.59849  12977005.48145  24843343.530    24843342.754    24843360.534
       203.000         139.000
 -17852487.20649 -13885852.84747  21709190.098    21709190.356    21709200.222
       240.000         201.000
 00  4 26 16 16 59.9990000  0  8G 2G26G 4G24G 5G 7G 8G 9
   1894534.37849   1477988.53347  21745393.757    21745393.211    21745403.524
       236.000         197.000
   6855137.49549   5342790.86246  24017251.879    24017251.865    24017265.028
       218.000         163.000
 -19471642.09849 -15146563.53947  21045761.103    21045761.821    21045772.540
       236.000         199.000
  -4670794.91949  -3346299.50545  23442550.354    23442550.937    23442567.093
       212.000         156.000
  -5180990.02349  -4020980.65545  24591016.047    24591015.860    24591031.171
       217.000         149.000
    557169.21049    440984.90947  20921866.331    20921865.907    20921874.988
       239.000         207.000
  16780806.75449  13062213.75945  24864152.621    24864151.865    24864169.731
       197.000         140.000
 -17917820.90249 -13936762.18447  21696757.467    21696757.734    21696767.596
       238.000         201.000
 00  4 26 16 17 29.9990000  0  8G 2G26G 4G24G 5G 7G 8G 9
   1928745.78749   1504646.70247  21751904.136    21751903.530    21751913.826
       235.000         197.000
   6923475.01949   5396040.69445  24030256.137    24030256.225    24030269.404
       218.000         161.000
 -19548678.72949 -15206591.99547  21031101.431    21031102.192    21031112.870
       238.000         200.000
  -4785130.11049  -3435391.65845  23420792.962    23420793.493    23420809.702
       212.000         158.000
  -5272397.43749  -4092207.09345  24573621.719    24573621.544    24573636.836
       216.000         147.000
    594215.51149    469852.11447  20928916.061    20928915.626    20928924.719
       240.000         207.000
  16890231.02749  13147478.97745  24884975.663    24884974.800    24884992.818
       196.000         140.000
 -17982658.62049 -13987285.04347  21684419.229    21684419.509    21684429.344
       240.000         201.000
 00  4 26 16 17 59.9990000  0  8G 2G26G 4G24G 5G 7G 8G 9
   1963233.68149   1531520.28347  21758467.064    21758466.435    21758476.744
       235.000         197.000
   6991997.98549   5449435.02545  24043295.825    24043295.819    24043309.111
       216.000         160.000
 -19625202.91449 -15266221.16447  21016539.325    21016540.062    21016550.712
       237.000         199.000
  -4899335.00249  -3524382.34745  23399060.217    23399060.902    23399077.012
       210.000         158.000
  -5363801.94149  -4163431.27845  24556227.948    24556227.842    24556243.166
       211.000         148.000
    631519.64249    498920.22347  20936014.852    20936014.400    20936023.502
       239.000         207.000
  16999705.54649  13232783.34745  24905808.300    24905807.358    24905825.460
       203.000         141.000
 -18047007.11449 -14037426.69847  21672174.114    21672174.354    21672184.184
       238.000         201.000
 00  4 26 16 18 29.9990000  0  8G 2G26G 4G24G 5G 7G 8G 9
   1997991.56649   1558604.24847  21765081.317    21765080.730    21765091.043
       235.000         197.000
   7060691.28549   5502962.08145  24056367.860    24056367.851    24056381.146
       219.000         160.000
 -19701233.33849 -15325465.56047  21002071.152    21002071.895    21002082.547
       237.000         200.000
  -5013416.23549  -3613276.64445  23377351.126    23377351.780    23377367.882
       212.000         159.000
  -5455197.90549  -4234648.80345  24538835.811    24538835.735    24538851.087
       206.000         150.000
    669084.77649    528191.71447  20943163.312    20943162.845    20943171.970
       240.000         207.000
  17109195.07849  13318099.47545  24926643.744    24926642.763    24926660.924
       206.000         143.000
 -18110862.98549 -14087184.47747  21660022.675    21660022.940    21660032.752
       240.000         202.000
 00  4 26 16 18 59.9990000  0  8G 2G26G 4G24G 5G 7G 8G 9
   2033021.87549   1585900.50847  21771747.338    21771746.822    21771757.173
       236.000         198.000
   7129555.69649   5556622.48445  24069472.447    24069472.454    24069485.784
       215.000         158.000
 -19776753.43949 -15384312.31847  20987700.099    20987700.836    20987711.469
       237.000         200.000
  -5127359.39049  -3702063.33545  23355668.206    23355668.904    23355685.005
       213.000         156.000
  -5546584.88049  -4305859.30545  24521445.439    24521445.309    24521460.694
       213.000         150.000
    706910.74549    557666.45147  20950361.391    20950360.926    20950370.071
       240.000         206.000
  17218694.48949  13403423.31145  24947481.087    24947480.129    24947498.362
       207.000         143.000
 -18174213.22649 -14136548.26947  21647967.513    21647967.765    21647977.570
       239.000         202.000
 00  4 26 16 19 29.9990000  0  8G 2G26G 4G24G 5G 7G 8G 9
   2068325.24949   1613409.55847  21778465.455    21778464.907    21778475.270
       235.000         197.000
   7198581.72349   5610408.79945  24082607.699    24082607.766    24082621.182
       216.000         158.000
 -19851766.55649 -15442764.01647  20973425.539    20973426.264    20973436.844
       238.000         200.000
  -5241161.78349  -3790740.33345  23334012.208    23334012.883    23334029.010
       212.000         158.000
  -5637978.78949  -4377075.25745  24504053.707    24504053.551    24504068.856
       216.000         151.000
    744988.68249    587337.52647  20957607.397    20957606.951    20957616.096
       241.000         206.000
  17328195.58849  13488748.50345  24968318.736    24968317.799    24968336.073
       204.000         136.000
 -18237071.25449 -14185528.52147  21636006.022    21636006.270    21636016.036
       241.000         202.000
 00  4 26 16 19 59.9990000  0  7G 2G26G 4G24G 5G 7G 9
   2103935.94749   1641158.05747  21785242.013    21785241.481    21785251.860
       236.000         196.000
   7267773.62249   5664324.37445  24095774.667    24095774.705    24095788.115
       217.000         160.000
 -19926264.52349 -15500814.31347  20959248.965    20959249.704    20959260.249
       238.000         200.000
  -5354809.84149  -3879297.09445  23312385.516    23312386.173    23312402.332
       216.000         160.000
  -5729355.01149  -4448277.37845  24486665.304    24486665.152    24486680.496
       214.000         150.000
    783352.62949    617231.46447  20964907.824    20964907.388    20964916.547
       240.000         207.000
 -18299419.81349 -14234111.78047  21624141.500    21624141.716    21624151.469
       240.000         202.000
 00  4 26 16 20 29.9990000  0  7G 2G26G 4G24G 5G 7G 9
   2139871.71849   1669159.85447  21792080.333    21792079.879    21792090.295
       235.000         196.000
   7337102.44749   5718346.63445  24108967.619    24108967.649    24108981.123
       216.000         158.000
 -20000232.58349 -15558451.70247  20945173.315    20945174.008    20945184.488
       239.000         201.000
  -5468301.72949  -3967732.15345  23290788.558    23290789.178    23290805.400
       214.000         161.000
  -5820725.97149  -4519475.40645  24469277.800    24469277.774    24469293.119
       217.000         151.000
    821988.20149    647337.06047  20972259.941    20972259.526    20972268.688
       241.000         207.000
 -18361251.62349 -14282292.37947  21612375.289    21612375.509    21612385.235
       241.000         203.000
 00  4 26 16 20 59.9990000  0  7G 2G26G 4G24G 5G 7G 9
   2176135.21949   1697417.03247  21798981.131    21798980.643    21798991.080
       234.000         196.000
   7406559.13949   5772468.52045  24122184.961    24122184.927    24122198.480
       218.000         158.000
 -20073686.66249 -15615688.60147  20931195.434    20931196.118    20931206.546
       239.000         200.000
  -5581639.40449  -4056047.08945  23269220.988    23269221.593    23269237.710
       213.000         161.000
  -5912108.10649  -4590682.14945  24451888.226    24451888.267    24451903.511
       218.000         150.000
    860880.66349    677642.82247  20979660.988    20979660.550    20979669.733
       240.000         206.000
 -18422584.01249 -14330083.81747  21600704.080    21600704.327    21600714.023
       241.000         203.000
 00  4 26 16 21 29.9990000  0  7G 2G26G 4G24G 5G 7G 9
   2212738.52249   1725938.98947  21805946.494    21805946.068    21805956.586
       235.000         196.000
   7476137.87449   5826685.52645  24135425.520    24135425.437    24135439.082
       214.000         157.000
 -20146637.57949 -15672533.41047  20917313.263    20917313.964    20917324.378
       238.000         200.000
  -5694810.76249  -4144232.36745  23247684.931    23247685.630    23247701.815
       216.000         162.000
  -6003481.55949  -4661882.11245  24434500.304    24434500.413    24434515.593
       214.000         148.000
    900040.27149    708156.75747  20987112.848    20987112.428    20987121.611
       240.000         207.000
 -18483417.55249 -14377486.53747  21589127.840    21589128.065    21589137.750
       240.000         203.000
 00  4 26 16 21 59.9990000  0  7G 2G26G 4G24G 5G 7G 9
   2249653.44049   1754703.76947  21812971.232    21812970.814    21812981.355
       233.000         196.000
   7545812.05649   5880976.88645  24148684.199    24148684.132    24148697.828
       213.000         157.000
 -20219104.67749 -15729001.21647  20903523.182    20903523.874    20903534.262
       238.000         200.000
  -5807839.13049  -4232306.23745  23226176.252    23226176.963    23226193.066
       213.000         159.000
  -6094861.25749  -4733086.93845  24417111.257    24417111.328    24417126.517
       218.000         150.000
    939441.37549    738858.87247  20994610.660    20994610.254    20994619.442
       240.000         207.000
 -18543776.11949 -14424519.15647  21577641.987    21577642.208    21577651.861
       242.000         203.000
 00  4 26 16 22 29.9990000  0  7G 2G26G 4G24G 5G 7G 9
   2286869.97849   1783703.58047  21820053.384    21820052.941    21820063.525
       233.000         195.000
   7615613.40249   5935367.31845  24161967.048    24161967.034    24161980.779
       216.000         157.000
 -20291067.39949 -15785075.99447  20889829.027    20889829.762    20889840.119
       238.000         200.000
  -5920710.09749  -4320257.41246  23204697.656    23204698.211    23204714.292
       217.000         163.000
  -6186227.66949  -4804281.44345  24399724.811    24399724.854    24399739.905
       213.000         152.000
    979080.73349    769746.63747  21002153.794    21002153.380    21002162.580
       240.000         207.000
 -18603645.72849 -14471170.75547  21566249.172    21566249.385    21566259.043
       241.000         204.000
 00  4 26 16 22 59.9990000  0  7G 2G26G 4G24G 5G 7G 9
   2324371.04349   1812925.11447  21827189.737    21827189.241    21827199.819
       235.000         195.000
   7685552.72949   5989865.31545  24175276.321    24175276.235    24175290.029
       214.000         157.000
 -20362526.83349 -15840758.60147  20876230.686    20876231.427    20876241.747
       238.000         201.000
  -6033421.15149  -4408084.00945  23183249.327    23183249.825    23183265.878
       220.000         162.000
  -6277559.71049  -4875449.13945  24382344.893    24382344.847    24382359.957
       219.000         153.000
   1018963.04849    800823.72747  21009743.222    21009742.788    21009751.992
       241.000         207.000
 -18663030.98449 -14517444.93547  21554948.529    21554948.735    21554958.380
       241.000         204.000
 00  4 26 16 23 29.9990000  0  7G 2G26G 4G24G 5G 7G 9
   2362138.54549   1842354.22447  21834376.746    21834376.227    21834386.822
       234.000         195.000
   7755618.87349   6044462.07745  24188609.470    24188609.474    24188623.310
       212.000         154.000
 -20433470.68849 -15896039.44747  20862730.522    20862731.217    20862741.529
       239.000         200.000
  -6145969.34449  -4495783.72546  23161831.961    23161832.539    23161848.511
       217.000         164.000
  -6368864.95649  -4946595.98145  24364970.034    24364969.995    24364985.012
       219.000         152.000
   1059081.96149    832085.17247  21017377.648    21017377.215    21017386.428
       241.000         207.000
 -18721931.78849 -14563341.63347  21543740.059    21543740.269    21543749.880
       242.000         204.000
 00  4 26 16 23 59.9990000  0  7G 2G26G 4G24G 5G 7G 9
   2400147.20349   1871971.24547  21841609.676    21841609.132    21841619.694
       236.000         195.000
   7825813.85349   6099159.25345  24201967.299    24201967.260    24201981.178
       218.000         156.000
 -20503900.88049 -15950920.04647  20849328.066    20849328.747    20849339.030
       239.000         201.000
  -6258364.79849  -4583364.43946  23140443.822    23140444.279    23140460.145
       216.000         163.000
  -6460162.12049  -5017736.51045  24347596.651    24347596.636    24347611.604
       215.000         151.000
   1099431.31249    863526.17347  21025055.907    21025055.484    21025064.723
       240.000         207.000
 -18780335.56849 -14608851.02847  21532626.132    21532626.354    21532635.967
       243.000         204.000
 00  4 26 16 24 29.9990000  0  7G 2G26G 4G24G 5G 7G 9
   2438414.74749   1901789.98947  21848891.791    21848891.276    21848901.858
       233.000         195.000
   7896138.49749   6153957.49045  24215349.855    24215349.793    24215363.757
       214.000         155.000
 -20573806.68649 -16005392.02047  20836025.419    20836026.084    20836036.341
       238.000         201.000
  -6370591.92449  -4670813.89745  23119087.566    23119087.996    23119103.943
       216.000         161.000
  -6551446.95049  -5088867.43745  24330225.551    24330225.603    24330240.571
       217.000         155.000
   1140025.23549    895157.76447  21032780.705    21032780.297    21032789.552
       240.000         207.000
 -18838222.37349 -14653957.59347  21521610.617    21521610.839    21521620.442
       242.000         205.000
 00  4 26 16 24 59.9990000  0  7G 2G26G 4G24G 5G 7G 9
   2476954.38549   1931820.75047  21856225.710    21856225.204    21856235.824
       234.000         195.000
   7966568.43149   6208837.72345  24228752.355    24228752.244    24228766.284
       213.000         155.000
 -20643200.11549 -16059464.74747  20822820.270    20822820.913    20822831.125
       238.000         201.000
  -6482651.20449  -4758132.63345  23097763.241    23097763.683    23097779.523
       215.000         161.000
  -6642736.01949  -5160001.67745  24312853.709    24312853.795    24312868.675
       217.000         152.000
   1180860.45449    926977.36547  21040551.408    21040551.008    21040560.285
       240.000         207.000
 -18895595.20249 -14698663.65347  21510692.903    21510693.148    21510702.730
       242.000         205.000
 00  4 26 16 25 29.9990000  0  7G 2G26G 4G24G 5G 7G 9
   2515779.26449   1962073.79047  21863613.991    21863613.428    21863624.030
       233.000         194.000
   8037114.06649   6263808.13245  24242176.922    24242176.810    24242190.824
       216.000         157.000
 -20712069.72649 -16113129.31547  20809714.780    20809715.415    20809725.607
       238.000         201.000
  -6594533.05949  -4845313.07745  23076472.723    23076473.148    23076489.003
       214.000         162.000
  -6734029.13449  -5231139.06545  24295481.103    24295481.192    24295496.057
       215.000         151.000
   1221941.50249    958988.52647  21048368.887    21048368.503    21048377.794
       240.000         206.000
 -18952428.61949 -14742949.40147  21499877.838    21499878.083    21499887.641
       242.000         205.000
 00  4 26 16 25 59.9990000  0  7G 2G26G 4G24G 5G 7G 9
   2554902.24549   1992559.11047  21871058.922    21871058.366    21871069.015
       234.000         194.000
   8107768.65149   6318863.44645  24255622.226    24255622.135    24255636.171
       212.000         156.000
 -20780407.83449 -16166379.72247  20796710.422    20796711.060    20796721.209
       239.000         202.000
  -6706243.88049  -4932360.23446  23055214.556    23055215.063    23055230.884
       219.000         163.000
  -6825316.41449  -5302271.90145  24278109.750    24278109.765    24278124.632
       213.000         154.000
   1263252.18949    991178.62047  21056230.109    21056229.689    21056238.987
       240.000         207.000
 -19008722.65449 -14786814.85247  21489165.416    21489165.653    21489175.197
       243.000         205.000
 00  4 26 16 26 29.9990000  0  7G 2G26G 4G24G 5G 7G 9
   2594350.95649   2023298.24547  21878565.894    21878565.323    21878575.963
       233.000         194.000
   8178522.27349   6373995.90145  24269086.379    24269086.214    24269100.266
       215.000         156.000
 -20848199.01949 -16219203.93247  20783810.122    20783810.780    20783820.914
       239.000         201.000
  -6817776.22049  -5019268.34346  23033990.586    23033991.034    23034006.804
       218.000         163.000
  -6916591.46549  -5373395.22245  24260740.520    24260740.568    24260755.421
       215.000         155.000
   1304779.76149   1023537.71347  21064132.604    21064132.176    21064141.478
       241.000         206.000
 -19064495.18049 -14830273.93647  21478552.253    21478552.468    21478562.009
       243.000         205.000
 00  4 26 16 26 59.9990000  0  7G 2G26G 4G24G 5G 7G 9
   2634114.46349   2054282.67647  21886132.690    21886132.159    21886142.819
       234.000         194.000
   8249372.84349   6429203.92345  24282568.953    24282568.833    24282582.848
       212.000         156.000
 -20915442.62649 -16271601.47347  20771014.027    20771014.693    20771024.817
       239.000         201.000
  -6929137.49549  -5106043.17946  23012799.098    23012799.564    23012815.207
       215.000         163.000
  -7007845.68349  -5444502.30545  24243375.410    24243375.371    24243390.215
       213.000         155.000
   1346517.06049   1056060.23747  21072074.954    21072074.556    21072083.851
       240.000         207.000
 -19119752.77749 -14873331.77647  21468037.081    21468037.288    21468046.809
       242.000         206.000
 00  4 26 16 27 29.9990000  0  7G 2G26G 4G24G 5G 7G 9
   2674183.98449   2085505.57247  21893757.835    21893757.244    21893767.920
       234.000         194.000
   8320318.49649   6484486.02745  24296069.518    24296069.488    24296083.595
       211.000         153.000
 -20982119.47649 -16323557.38547  20758325.753    20758326.453    20758336.570
       238.000         202.000
  -7040315.84149  -5192675.42446  22991642.372    22991642.819    22991658.512
       220.000         163.000
  -7099056.69049  -5515575.67145  24226018.433    24226018.445    24226033.313
       215.000         156.000
   1388474.46649   1088754.26647  21080059.250    21080058.829    21080068.144
       240.000         206.000
 -19174484.38449 -14915979.76047  21457622.005    21457622.212    21457631.708
       242.000         206.000
 00  4 26 16 27 59.9990000  0  7G 2G26G 4G24G 5G 7G 9
   2714570.40049   2116975.38847  21901443.221    21901442.619    21901453.321
       232.000         194.000
   8391352.49849   6539836.96045  24309586.972    24309586.953    24309601.130
       214.000         152.000
 -21048225.09849 -16375068.18247  20745746.193    20745746.896    20745757.029
       238.000         202.000
  -7151299.54749  -5279156.04846  22970522.727    22970523.214    22970538.791
       217.000         164.000
  -7190210.43049  -5586604.44545  24208672.435    24208672.381    24208687.221
       213.000         155.000
   1430663.82049   1121629.03547  21088087.682    21088087.234    21088096.558
       240.000         207.000
 -19228692.61949 -14958219.92847  21447306.543    21447306.725    21447316.200
       242.000         206.000
 00  4 26 16 28 29.9990000  0  7G 2G26G 4G24G 5G 7G 9
   2755259.04849   2148680.69847  21909186.099    21909185.503    21909196.220
       232.000         194.000
   8462482.19549   6595262.46345  24323122.733    24323122.618    24323136.847
       212.000         154.000
 -21113768.87949 -16426141.17047  20733273.573    20733274.284    20733284.395
       238.000         202.000
  -7262092.56049  -5365488.07646  22949439.347    22949439.865    22949455.320
       220.000         163.000
  -7281321.52649  -5657599.98645  24191334.507    24191334.469    24191349.215
       217.000         157.000
   1473105.16849   1154700.16447  21096164.069    21096163.599    21096172.942
       240.000         207.000
 -19282372.26749 -15000048.20247  21437091.638    21437091.809    21437101.276
       242.000         206.000
 00  4 26 16 28 59.9990000  0  7G 2G26G 4G24G 5G 7G 9
   2796230.63749   2180606.49747  21916982.852    21916982.245    21916992.969
       234.000         195.000
   8533713.02149   6650766.75345  24336677.730    24336677.574    24336691.861
       219.000         154.000
 -21178754.62049 -16476779.32347  20720907.128    20720907.835    20720917.945
       239.000         202.000
  -7372689.59649  -5451667.38546  22928393.255    22928393.826    22928409.236
       218.000         167.000
  -7372390.40049  -5728562.63645  24174004.645    24174004.601    24174019.303
       215.000         158.000
   1515810.23849   1187976.78347  21104290.624    21104290.154    21104299.511
       241.000         207.000
 -19335515.50449 -15041458.49947  21426978.787    21426978.975    21426988.436
       243.000         206.000
 00  4 26 16 29 29.9990000  0  7G 2G26G 4G24G 5G 7G 9
   2837501.88549   2212765.79047  21924836.657    21924835.983    21924846.741
       233.000         195.000
   8605060.32549   6706361.82645  24350254.936    24350254.690    24350269.054
       218.000         154.000
 -21243162.21249 -16526966.96547  20708650.719    20708651.419    20708661.522
       238.000         202.000
  -7483060.09649  -5537670.14846  22907390.253    22907390.833    22907406.183
       220.000         168.000
  -7463415.61949  -5799491.27945  24156682.907    24156682.939    24156697.631
       216.000         157.000
   1558791.47349   1221468.58947  21112469.745    21112469.261    21112478.630
       240.000         207.000
 -19388107.67449 -15082439.39747  21416970.796    21416971.004    21416980.439
       242.000         206.000
 00  4 26 16 29 59.9990000  0  7G 2G26G 4G24G 5G 7G 9
   2879058.80249   2245147.64947  21932744.758    21932744.096    21932754.910
       234.000         195.000
   8676515.20749   6762040.71345  24363852.564    24363852.310    24363866.727
       216.000         153.000
 -21307027.24049 -16576731.83447  20696497.545    20696498.238    20696508.320
       238.000         202.000
  -7593228.16549  -5623515.15246  22886425.751    22886426.384    22886441.736
       220.000         168.000
  -7554443.77649  -5870422.21445  24139360.736    24139360.796    24139375.505
       213.000         158.000
   1602028.50649   1255159.72647  21120697.505    21120697.021    21120706.437
       240.000         206.000
 -19440163.52649 -15123002.37947  21407064.853    21407065.059    21407074.485
       243.000         206.000
 00  4 26 16 30 29.9990000  0  7G 2G26G 4G24G 5G 7G 9
   2920881.94849   2277736.96747  21940703.538    21940702.867    21940713.712
       233.000         194.000
   8748074.77649   6817801.19445  24377470.092    24377469.845    24377484.283
       214.000         153.000
 -21370363.50849 -16626084.69447  20684445.018    20684445.693    20684455.764
       238.000         203.000
  -7703207.57649  -5709213.26946  22865497.378    22865497.913    22865513.141
       220.000         167.000
  -7645504.19449  -5941378.28445  24122032.417    24122032.476    24122047.214
       216.000         158.000
   1645503.64849   1289036.39947  21128970.570    21128970.091    21128979.527
       239.000         206.000
 -19491699.34749 -15163160.14047  21397257.906    21397258.110    21397267.512
       242.000         206.000
 00  4 26 16 30 59.9990000  0  7G 2G26G 4G24G 5G 7G 9
   2962984.50349   2310543.99847  21948715.399    21948714.806    21948725.727
       232.000         194.000
   8819719.53749   6873628.02045  24391103.723    24391103.517    24391118.100
       215.000         150.000
 -21433169.57749 -16675024.41647  20672493.331    20672494.022    20672504.080
       239.000         203.000
  -7812982.54649  -5794752.03546  22844607.685    22844608.249    22844623.377
       221.000         164.000
  -7736577.46149  -6012344.40845  24104701.823    24104701.810    24104716.461
       217.000         160.000
   1689200.93449   1323086.17547  21137285.928    21137285.449    21137294.898
       240.000         206.000
 -19542718.59049 -15202915.37847  21387549.236    21387549.443    21387558.847
       242.000         207.000
 00  4 26 16 31 29.9990000  0  7G 2G26G 4G24G 5G 7G 9
   3005376.59249   2343576.67547  21956782.527    21956781.884    21956792.814
       236.000         195.000
   8891436.30349   6929510.96945  24404751.127    24404750.959    24404765.607
       213.000         152.000
 -21495453.69149 -16723557.41747  20660640.999    20660641.686    20660651.732
       239.000         202.000
  -7922569.31149  -5880144.16746  22823753.917    22823754.479    22823769.465
       220.000         169.000
  -7827662.55249  -6083319.69945  24087368.883    24087368.826    24087383.505
       217.000         159.000
   1733108.91449   1357300.12147  21145641.373    21145640.917    21145650.367
       241.000         206.000
 -19593214.42449 -15242262.75847  21377940.155    21377940.386    21377949.793
       243.000         206.000
 00  4 26 16 31 59.9990000  0  7G 2G26G 4G24G 5G 7G 9
   3048090.03949   2376859.74547  21964910.843    21964910.135    21964921.057
       232.000         194.000
   8963239.96649   6985461.63345  24418415.006    24418414.928    24418429.612
       214.000         151.000
 -21557204.80949 -16771675.08947  20648890.060    20648890.776    20648900.806
       238.000         203.000
  -8031960.84149  -5965384.11946  22802937.383    22802937.865    22802952.806
       224.000         172.000
  -7918727.77849  -6154279.53545  24070039.730    24070039.680    24070054.232
       216.000         160.000
   1777245.60449   1391692.29047  21154040.315    21154039.882    21154049.351
       240.000         206.000
 -19643167.30349 -15281187.06247  21368434.416    21368434.642    21368444.054
       242.000         206.000
 00  4 26 16 32 29.9990000  0  7G 2G26G 4G24G 5G 7G 9
   3091136.10949   2410402.00747  21973102.248    21973101.592    21973112.595
       231.000         193.000
   9035105.36149   7041460.41245  24432090.807    24432090.660    24432105.348
       213.000         150.000
 -21618404.99649 -16819363.48247  20637244.035    20637244.718    20637254.730
       239.000         203.000
  -8141151.41549  -6050467.49546  22782158.850    22782159.439    22782174.326
       222.000         166.000
  -8009754.27549  -6225209.17245  24052717.770    24052717.805    24052732.347
       214.000         158.000
   1821591.85449   1426247.74947  21162479.164    21162478.733    21162488.229
       240.000         206.000
 -19692592.54749 -15319700.21747  21359029.098    21359029.315    21359038.726
       243.000         207.000
 00  4 26 16 32 59.9990000  0  7G 2G26G 4G24G 5G 7G 9
   3134509.16449   2444199.07947  21981355.961    21981355.325    21981366.335
       234.000         194.000
   9107016.01949   7097494.46245  24445775.186    24445774.967    24445789.754
       215.000         151.000
 -21679054.96049 -16866623.13547  20625702.643    20625703.358    20625713.340
       240.000         203.000
  -8250137.92549  -6135391.98446  22761419.514    22761419.988    22761434.632
       218.000         168.000
  -8100731.21349  -6296100.21245  24035405.431    24035405.403    24035419.926
       215.000         157.000
   1866134.53649   1460956.26947  21170955.424    21170954.979    21170964.489
       241.000         206.000
 -19741482.63249 -15357796.37447  21349725.608    21349725.823    21349735.220
       244.000         207.000
 00  4 26 16 33 29.9990000  0  7G 2G26G 4G24G 5G 7G 9
   3178203.19549   2478246.25947  21989670.792    21989670.129    21989681.145
       232.000         193.000
   9178983.10249   7153572.48845  24459470.182    24459470.011    24459484.863
       214.000         153.000
 -21739150.93749 -16913451.09947  20614266.704    20614267.406    20614277.374
       239.000         203.000
  -8358918.11049  -6220155.53746  22740719.095    22740719.621    22740734.312
       226.000         175.000
  -8191682.90949  -6366971.56045  24018097.703    24018097.725    24018112.329
       214.000         158.000
   1910879.46249   1495822.38247  21179470.172    21179469.701    21179479.233
       240.000         206.000
 -19789828.72049 -15395468.63547  21340525.595    21340525.828    21340535.224
       243.000         206.000
 00  4 26 16 33 59.9990000  0  7G 2G26G 4G24G 5G 7G 9
   3222217.39649   2512542.91347  21998046.538    21998045.847    21998056.898
       232.000         193.000
   9251004.11849   7209692.53545  24473175.482    24473175.334    24473190.200
       215.000         153.000
 -21798679.46849 -16959836.89447  20602938.785    20602939.451    20602949.399
       238.000         203.000
  -8467469.09349  -6304740.55146  22720062.459    22720062.992    22720077.575
       218.000         170.000
  -8282611.74949  -6437825.11945  24000794.421    24000794.478    24000809.078
       216.000         158.000
   1955822.20949   1530842.64147  21188022.519    21188022.068    21188031.630
       239.000         206.000
 -19837632.73949 -15432718.50047  21331428.777    21331429.009    21331438.417
       243.000         207.000
 00  4 26 16 34 29.9990000  0  7G 2G26G 4G24G 5G 7G 9
   3266527.39949   2547070.05747  22006478.501    22006477.854    22006488.942
       234.000         193.000
   9323074.82749   7265851.29145  24486890.406    24486890.147    24486905.008
       216.000         151.000
 -21857631.39149 -17005773.39847  20591720.558    20591721.227    20591731.138
       239.000         203.000
  -8575785.86949  -6389143.10746  22699450.312    22699450.860    22699465.385
       218.000         170.000
  -8373526.70649  -6508667.85045  23983493.828    23983493.873    23983508.501
       216.000         157.000
   2000950.09649   1566007.16847  21196610.150    21196609.671    21196619.232
       240.000         206.000
 -19884890.55949 -15469542.76447  21322435.930    21322436.138    21322445.531
       243.000         207.000
 00  4 26 16 34 59.9990000  0  7G 2G26G 4G24G 5G 7G 9
   3311123.97049   2581820.52047  22014965.087    22014964.422    22014975.536
       232.000         193.000
   9395210.66249   7322060.79745  24500617.568    24500617.299    24500632.262
       214.000         151.000
 -21916002.17549 -17051257.08547  20580612.896    20580613.573    20580623.483
       238.000         203.000
  -8683872.14849  -6473366.02246  22678882.096    22678882.589    22678897.112
       225.000         177.000
  -8464428.06849  -6579499.97145  23966195.714    23966195.816    23966210.474
       219.000         161.000
   2046279.58749   1601328.79347  21205236.098    21205235.632    21205245.184
       240.000         206.000
 -19931586.60249 -15505929.26947  21313549.937    21313550.158    21313559.550
       243.000         207.000
 00  4 26 16 35 29.9990000  0  7G 2G26G 4G24G 5G 7G 9
   3356027.59349   2616810.22047  22023509.970    22023509.370    22023520.537
       232.000         193.000
   9467422.73549   7378329.69645  24514359.221    24514358.967    24514374.085
       214.000         150.000
 -21973779.64249 -17096278.45047  20569618.167    20569618.849    20569628.734
       239.000         203.000
  -8791720.87449  -6557403.78946  22658358.919    22658359.489    22658374.019
       222.000         171.000
  -8555298.99349  -6650308.41745  23948903.625    23948903.627    23948918.151
       217.000         159.000
   2091824.48849   1636818.25947  21213903.066    21213902.590    21213912.153
       241.000         205.000
 -19977720.00449 -15541877.36947  21304771.033    21304771.262    21304780.640
       244.000         207.000
 00  4 26 16 35 59.9990000  0  7G 2G26G 4G24G 5G 7G 9
   3401214.56449   2652020.73947  22032108.832    22032108.226    22032119.477
       232.000         192.000
   9539686.14849   7434638.62245  24528110.530    24528110.462    24528125.568
       214.000         151.000
 -22030975.71949 -17140846.78047  20558734.123    20558734.748    20558744.599
       239.000         204.000
  -8899355.33849  -6641274.67446  22637876.642    22637877.188    22637891.681
       221.000         172.000
  -8646131.53449  -6721086.91045  23931618.531    23931618.655    23931633.218
       215.000         161.000
   2137561.01149   1672457.06247  21222606.463    21222606.001    21222615.576
       239.000         205.000
 -20023312.46249 -15577403.93947  21296095.098    21296095.299    21296104.662
       243.000         207.000
 00  4 26 16 36 29.9990000  0  7G 2G26G 4G24G 5G 7G 9
   3446702.04549   2687465.40747  22040764.884    22040764.291    22040775.569
       233.000         193.000
   9612028.64649   7491009.17845  24541877.053    24541876.920    24541892.078
       216.000         151.000
 -22087561.88449 -17184939.84947  20547966.114    20547966.734    20547976.557
       240.000         203.000
  -9006759.02849  -6724965.70846  22617438.310    22617438.812    22617453.286
       221.000         173.000
  -8736898.21949  -6791814.09845  23914346.111    23914346.237    23914360.867
       212.000         159.000
   2183529.54649   1708276.64147  21231354.040    21231353.564    21231363.147
       240.000         205.000
 -20068341.48249 -15612491.48347  21287526.353    21287526.539    21287535.906
       243.000         207.000
 00  4 26 16 36 59.9990000  0  7G 2G26G 4G24G 5G 7G 9
   3492495.88549   2723148.83347  22049479.214    22049478.642    22049489.949
       230.000         192.000
   9684437.58949   7547431.51345  24555656.266    24555656.014    24555671.149
       213.000         149.000
 -22143556.95249 -17228572.30247  20537310.592    20537311.195    20537321.000
       239.000         204.000
  -9113948.09349  -6808489.52146  22597040.805    22597041.240    22597055.683
       223.000         172.000
  -8827605.11549  -6862494.67345  23897084.987    23897085.122    23897099.803
       216.000         160.000
   2229739.29549   1744284.18347  21240147.513    21240147.041    21240156.619
       240.000         205.000
 -20112820.88549 -15647150.74747  21279062.201    21279062.382    21279071.729
       243.000         208.000
 00  4 26 16 37 29.9990000  0  7G 2G26G 4G24G 5G 7G 9
   3538596.24149   2759071.10647  22058251.854    22058251.304    22058262.662
       231.000         192.000
   9756905.79349   7603900.00945  24569446.706    24569446.495    24569461.734
       212.000         149.000
 -22198972.82249 -17271753.44147  20526765.240    20526765.856    20526775.638
       239.000         203.000
  -9220913.68149  -6891839.18946  22576685.918    22576686.292    22576700.628
       224.000         173.000
  -8918260.99749  -6933135.52145  23879833.740    23879833.856    23879848.474
       214.000         160.000
   2276170.91549   1780464.61047  21248983.208    21248982.737    21248992.326
       240.000         205.000
 -20156762.86249 -15681391.24247  21270700.294    21270700.487    21270709.848
       243.000         208.000
 00  4 26 16 37 59.9990000  0  7G 2G26G 4G24G 5G 7G 9
   3584986.83349   2795219.54347  22067079.750    22067079.205    22067090.597
       233.000         192.000
   9829418.34349   7660403.06845  24583245.587    24583245.296    24583260.654
       215.000         149.000
 -22253812.27649 -17314485.45147  20516329.611    20516330.216    20516339.979
       239.000         204.000
  -9327655.62249  -6975014.58146  22556373.359    22556373.822    22556388.092
       226.000         173.000
  -9008895.58149  -7003759.76645  23862586.510    23862586.562    23862601.148
       215.000         159.000
   2322819.79649   1816814.32947  21257860.266    21257859.776    21257869.374
       241.000         205.000
 -20200161.77349 -15715208.56947  21262441.763    21262441.933    21262451.280
       242.000         208.000
 00  4 26 16 38 29.9990000  0  7G 2G26G 4G24G 5G 7G 9
   3631688.06249   2831610.03647  22075966.813    22075966.250    22075977.671
       233.000         191.000
   9901975.09749   7716940.59845  24597052.752    24597052.588    24597067.918
       212.000         149.000
 -22308067.25749 -17356762.03747  20506005.249    20506005.815    20506015.529
       240.000         204.000
  -9434155.83749  -7058001.61046  22536107.079    22536107.469    22536121.726
       222.000         178.000
  -9099511.90049  -7074369.77145  23845342.800    23845342.824    23845357.369
       215.000         159.000
   2369701.37549   1853345.38347  21266781.584    21266781.087    21266790.705
       241.000         205.000
 -20243002.28549 -15748590.77247  21254289.484    21254289.637    21254299.004
       243.000         208.000
 00  4 26 16 38 59.9990000  0  7G 2G26G 4G24G 5G 7G 9
   3678689.53049   2868234.46247  22084910.974    22084910.415    22084921.893
       234.000         192.000
   9974550.44949   7773492.60345  24610863.520    24610863.411    24610878.793
       209.000         148.000
 -22361761.66149 -17398601.79547  20495787.546    20495788.082    20495797.756
       240.000         203.000
  -9540413.71449  -7140799.80146  22515886.694    22515887.134    22515901.397
       228.000         176.000
  -9190131.98949  -7144982.73345  23828098.361    23828098.294    23828112.867
       216.000         161.000
   2416776.77449   1890027.46747  21275739.803    21275739.287    21275748.917
       240.000         205.000
 -20285293.25349 -15781544.76847  21246241.805    21246241.931    21246251.302
       242.000         208.000
 00  4 26 16 39 29.9990000  0  7G 2G26G 4G24G 5G 7G 9
   3726004.91049   2905103.51247  22093914.942    22093914.319    22093925.841
       232.000         192.000
  10047144.17049   7830058.92045  24624677.895    24624677.664    24624693.132
       209.000         148.000
 -22414866.88949 -17439982.44547  20485681.908    20485682.459    20485692.119
       239.000         203.000
  -9646378.59849  -7223369.70046  22495722.168    22495722.598    22495736.812
       223.000         175.000
  -9280740.41949  -7215586.60645  23810856.045    23810855.994    23810870.558
       212.000         158.000
   2464045.54449   1926860.21347  21284734.804    21284734.283    21284743.927
       240.000         204.000
 -20327005.10349 -15814047.49747  21238304.325    21238304.420    21238313.785
       243.000         208.000
 00  4 26 16 39 59.9990000  0  7G 2G26G 4G24G 5G 7G 9
   3773631.03549   2942214.68347  22102977.978    22102977.363    22102988.860
       231.000         191.000
  10119742.33149   7886628.71545  24638492.893    24638492.746    24638508.323
       209.000         145.000
 -22467385.43449 -17480905.93847  20475687.959    20475688.482    20475698.125
       239.000         204.000
  -9752053.01949  -7305713.32646  22475612.791    22475613.294    22475627.392
       228.000         175.000
  -9371320.61449  -7286168.46245  23793619.080    23793619.044    23793633.604
       217.000         161.000
   2511519.03849   1963852.48847  21293768.781    21293768.226    21293777.876
       240.000         204.000
 -20368127.18549 -15846090.67147  21230478.967    21230479.117    21230488.494
       243.000         208.000
 00  4 26 16 40 29.9990000  0  7G 2G26G 4G24G 5G 7G 9
   3821563.94349   2979564.88847  22112099.343    22112098.751    22112110.268
       230.000         190.000
  10192336.32649   7943195.25045  24652307.251    24652307.039    24652322.726
       209.000         146.000
 -22519323.89349 -17521377.43147  20465804.382    20465804.902    20465814.527
       239.000         204.000
  -9857447.85849  -7387838.97646  22455556.751    22455557.219    22455571.405
       226.000         178.000
  -9461853.42749  -7356713.40545  23776391.088    23776391.122    23776405.662
       214.000         158.000
   2559175.25649   2000987.14547  21302837.485    21302836.955    21302846.609
       241.000         204.000
 -20408679.59149 -15877689.94147  21222762.070    21222762.227    21222771.610
       243.000         208.000
 00  4 26 16 40 59.9990000  0  7G 2G26G 4G24G 5G 7G 9
   3869801.96649   3017152.83747  22121278.794    22121278.209    22121289.762
       231.000         189.000
  10264941.68649   7999770.64545  24666123.781    24666123.539    24666139.259
       210.000         147.000
 -22570672.24049 -17561389.09047  20456033.046    20456033.598    20456043.218
       239.000         204.000
  -9962557.57349  -7469742.55046  22435555.013    22435555.423    22435569.511
       226.000         180.000
  -9552320.47949  -7427207.10045  23759175.735    23759175.738    23759190.310
       216.000         161.000
   2607010.41349   2038261.23147  21311940.271    21311939.731    21311949.390
       240.000         204.000
 -20448663.29449 -15908846.06947  21215153.428    21215153.565    21215162.959
       242.000         208.000
 00  4 26 16 41 29.9990000  0  7G 2G26G 4G24G 5G 7G 9
   3918354.60549   3054985.91847  22130518.199    22130517.574    22130529.104
       231.000         190.000
  10337578.82049   8056370.79845  24679946.329    24679946.107    24679961.879
       208.000         147.000
 -22621410.26249 -17600925.18747  20446377.900    20446378.434    20446388.047
       239.000         204.000
 -10067383.60349  -7551425.02646  22415607.157    22415607.592    22415621.693
       224.000         175.000
  -9642690.59749  -7497625.26845  23741978.821    23741978.782    23741993.264
       218.000         161.000
   2655057.49549   2075700.45147  21321083.327    21321082.828    21321092.505
       240.000         204.000
 -20488064.90049 -15939548.61647  21207655.559    21207655.683    21207665.078
       242.000         208.000
 00  4 26 16 41 59.9990000  0  7G 2G26G 4G24G 5G 7G 9
   3967219.09049   3093062.01047  22139816.937    22139816.270    22139827.815
       231.000         189.000
  10410250.06649   8112997.54845  24693775.350    24693775.129    24693790.860
       206.000         146.000
 -22671542.11549 -17639988.95947  20436838.091    20436838.616    20436848.215
       239.000         204.000
 -10171976.82849  -7632926.15146  22395703.678    22395704.105    22395718.100
       225.000         179.000
  -9732966.94649  -7567970.38245  23724799.862    23724799.783    23724814.184
       215.000         162.000
   2703314.99249   2113303.62847  21330266.467    21330265.969    21330275.657
       240.000         203.000
 -20526898.22049 -15969808.34747  21200265.857    21200265.947    21200275.356
       243.000         209.000
 00  4 26 16 42 29.9990000  0  7G 2G26G 4G24G 5G 7G 9
   4016404.90949   3131388.48147  22149176.777    22149176.099    22149187.682
       228.000         188.000
  10482965.89749   8169659.01345  24707612.913    24707612.650    24707628.450
       206.000         145.000
 -22721052.16149 -17678568.20647  20427416.627    20427417.133    20427426.718
       238.000         204.000
 -10276332.57949  -7714242.21146  22375845.468    22375845.810    22375859.823
       225.000         179.000
  -9823170.32449  -7638258.63245  23707634.575    23707634.519    23707648.910
       216.000         162.000
   2751787.46149   2151074.31847  21339490.555    21339490.019    21339499.723
       239.000         204.000
 -20565151.89549 -15999616.40247  21192986.418    21192986.493    21192995.921
       242.000         209.000
 00  4 26 16 42 59.9990000  0  7G 2G26G 4G24G 5G 7G 9
   4065898.49449   3169954.76446  22158595.271    22158594.530    22158606.086
       229.000         187.000
  10555714.06749   8226345.63745  24721456.607    24721456.274    24721472.223
       208.000         144.000
 -22769957.08349 -17716675.92647  20418110.335    20418110.821    20418120.394
       239.000         204.000
 -10380454.33349  -7795375.94746  22356031.658    22356031.978    22356045.922
       227.000         180.000
  -9913335.10249  -7708516.78745  23690476.675    23690476.634    23690491.101
       213.000         161.000
   2800478.49549   2189015.31047  21348756.182    21348755.648    21348765.376
       240.000         203.000
 -20602822.46449 -16028970.09347  21185817.959    21185818.036    21185827.470
       242.000         209.000
 00  4 26 16 43 29.9990000  0  7G 2G26G 4G24G 5G 7G 9
   4115713.36549   3208771.43047  22168074.815    22168074.078    22168085.683
       231.000         189.000
  10628484.78049   8283049.85445  24735304.523    24735304.220    24735320.243
       210.000         145.000
 -22818257.98549 -17754312.97047  20408919.006    20408919.439    20408928.987
       239.000         204.000
 -10484325.73849  -7876314.57446  22336265.434    22336265.793    22336279.759
       228.000         180.000
 -10003470.13949  -7778751.78345  23673324.469    23673324.415    23673338.843
       213.000         160.000
   2849397.70749   2227134.11447  21358065.210    21358064.692    21358074.456
       239.000         203.000
 -20639890.83949 -16057854.54347  21178764.123    21178764.155    21178773.587
       243.000         209.000
 00  4 26 16 43 59.9990000  0  7G 2G26G 4G24G 5G 7G 9
   4165842.59249   3247833.05347  22177614.194    22177613.477    22177625.088
       233.000         189.000
  10701260.04649   8339757.66845  24749153.355    24749153.091    24749169.132
       210.000         148.000
 -22865964.69349 -17791487.00147  20399840.717    20399841.133    20399850.677
       240.000         204.000
 -10587934.43649  -7957048.52746  22316549.386    22316549.651    22316563.528
       225.000         179.000
 -10093596.85349  -7848980.28545  23656173.855    23656173.801    23656188.213
       216.000         160.000
   2898520.78949   2265411.77647  21367413.057    21367412.540    21367422.310
       239.000         203.000
 -20676370.31549 -16086280.10847  21171822.307    21171822.337    21171831.764
       243.000         209.000
 00  4 26 16 44 29.9990000  0  7G 2G26G 4G24G 5G 7G 9
   4216284.18849   3287138.06447  22187213.000    22187212.283    22187223.915
       231.000         189.000
  10774062.89549   8396486.94345  24763007.417    24763007.166    24763023.204
       207.000         145.000
 -22913068.83949 -17828191.50447  20390877.092    20390877.496    20390887.020
       239.000         204.000
 -10691225.20849  -8037534.76146  22296893.699    22296893.972    22296907.821
       228.000         180.000
 -10183707.82449  -7919196.51946  23639026.216    23639026.180    23639040.538
       217.000         163.000
   2947854.11749   2303853.27247  21376800.960    21376800.409    21376810.170
       240.000         202.000
 -20712253.21949 -16114240.81447  21164994.026    21164994.051    21165003.487
       243.000         209.000
 00  4 26 16 44 59.9990000  0  7G 2G26G 4G24G 5G 7G 9
   4267036.12149   3326684.89547  22196870.819    22196870.138    22196881.779
       231.000         189.000
  10846891.15849   8453235.97845  24776866.259    24776866.000    24776882.192
       210.000         147.000
 -22959579.85849 -17864433.83147  20382026.328    20382026.736    20382036.252
       239.000         204.000
 -10794204.12549  -8117777.95246  22277297.352    22277297.632    22277311.473
       229.000         182.000
 -10273791.79149  -7989391.73545  23621883.845    23621883.734    23621898.053
       218.000         160.000
   2997380.84649   2342445.46347  21386225.702    21386225.096    21386234.842
       240.000         202.000
 -20747553.81649 -16141747.76547  21158276.557    21158276.573    21158286.006
       243.000         209.000
 00  4 26 16 45 29.9990000  0  7G 2G26G 4G24G 5G 7G 9
   4318110.36749   3366482.87347  22206590.072    22206589.364    22206601.023
       232.000         188.000
  10919742.94449   8510003.41745  24790729.627    24790729.374    24790745.618
       207.000         146.000
 -23005483.01749 -17900202.50147  20373291.283    20373291.638    20373301.156
       239.000         204.000
 -10896875.90249  -8197781.82546  22257759.489    22257759.763    22257773.559
       226.000         180.000
 -10363832.39849  -8059553.16645  23604749.648    23604749.528    23604763.812
       217.000         162.000
   3047086.62849   2381177.18347  21395684.420    21395683.833    21395693.598
       239.000         202.000
 -20782274.33549 -16168802.71547  21151669.487    21151669.487    21151678.922
       243.000         209.000
 00  4 26 16 45 59.9990000  0  7G 2G26G 4G24G 5G 7G 9
   4369498.15249   3406525.16547  22216368.925    22216368.228    22216379.916
       234.000         190.000
  10992621.12049   8566791.35945  24804598.144    24804597.832    24804614.067
       205.000         145.000
 -23050768.78649 -17935490.09147  20364673.658    20364674.027    20364683.540
       240.000         205.000
 -10999259.98249  -8277561.53046  22238276.298    22238276.634    22238290.382
       230.000         181.000
 -10453838.52049  -8129687.71645  23587621.984    23587621.867    23587636.167
       213.000         160.000
   3096949.81649   2420031.55847  21405173.140    21405172.536    21405182.305
       240.000         202.000
 -20816432.85349 -16195419.74547  21145169.323    21145169.331    21145178.775
       243.000         209.000
 00  4 26 16 46 29.9990000  0  7G 2G26G 4G24G 5G 7G 9
   4421210.85649   3446820.64647  22226209.680    22226208.932    22226220.626
       232.000         188.000
  11065528.18949   8623601.81845  24818472.150    24818471.751    24818488.059
       209.000         148.000
 -23095425.11949 -17970287.21747  20356175.799    20356176.195    20356185.705
       240.000         205.000
 -11101359.94349  -8357119.84046  22218847.277    22218847.577    22218861.315
       229.000         182.000
 -10543803.76749  -8199790.41245  23570502.055    23570501.950    23570516.214
       216.000         160.000
   3146977.17449   2459013.85147  21414693.078    21414692.465    21414702.263
       239.000         201.000
 -20850005.00749 -16221579.87047  21138780.764    21138780.758    21138790.181
       243.000         209.000
 00  4 26 16 46 59.9990000  0  7G 2G26G 4G24G 5G 7G 9
   4473255.72649   3487374.92647  22236113.533    22236112.830    22236124.613
       229.000         188.000
  11138433.20149   8680410.68545  24832345.630    24832345.233    24832361.663
       211.000         149.000
 -23139454.06249 -18004595.46347  20347797.374    20347797.767    20347807.259
       239.000         205.000
 -11203186.94749  -8436465.46746  22199470.221    22199470.491    22199484.201
       230.000         182.000
 -10633725.50449  -8269859.22045  23553390.451    23553390.349    23553404.631
       218.000         161.000
   3197168.01249   2498123.53847  21424244.098    21424243.482    21424253.318
       238.000         201.000
 -20882989.61149 -16247282.16947  21132503.982    21132503.990    21132513.405
       243.000         209.000
 00  4 26 16 47 29.9990000  0  7G 2G26G 4G24G 5G 7G 9
   4525636.46849   3528190.96047  22246081.363    22246080.642    22246092.475
       230.000         190.000
  11211343.04449   8737223.29345  24846220.006    24846219.702    24846236.145
       209.000         144.000
 -23182817.87149 -18038385.39947  20339545.504    20339545.879    20339555.373
       239.000         205.000
 -11304692.34949  -8515560.48046  22180154.355    22180154.580    22180168.235
       227.000         182.000
 -10723582.91349  -8339877.93445  23536291.235    23536291.060    23536305.197
       215.000         162.000
   3247552.75249   2537384.31147  21433831.976    21433831.424    21433841.283
       238.000         201.000
 -20915362.86149 -16272508.08047  21126343.591    21126343.567    21126352.993
       243.000         209.000
 00  4 26 16 47 59.9990000  0  7G 2G26G 4G24G 5G 7G 9
   4578317.18949   3569240.73147  22256106.217    22256105.536    22256117.353
       231.000         188.000
  11284232.35949   8794019.94645  24860090.732    24860090.341    24860106.764
       207.000         145.000
 -23225539.50249 -18071674.93747  20331415.805    20331416.215    20331425.698
       240.000         205.000
 -11405885.65049  -8594412.29646  22160897.841    22160898.073    22160911.667
       227.000         183.000
 -10813405.24149  -8409869.24345  23519198.435    23519198.327    23519212.512
       215.000         161.000
   3298129.66749   2576794.83347  21443456.485    21443455.920    21443465.818
       239.000         201.000
 -20947147.09249 -16297275.02347  21120295.273    21120295.246    21120304.656
       244.000         209.000
 00  4 26 16 48 29.9990000  0  7G 2G26G 4G24G 5G 7G 9
   4631306.58549   3610531.02947  22266189.947    22266189.211    22266201.125
       233.000         189.000
  11357094.40149   8850795.34145  24873956.222    24873955.753    24873972.135
       210.000         145.000
 -23267624.59549 -18104468.45347  20323407.263    20323407.655    20323417.133
       241.000         205.000
 -11506749.42349  -8673007.33446  22141703.990    22141704.245    22141717.822
       231.000         182.000
 -10903161.94749  -8479809.45645  23502118.136    23502118.068    23502132.247
       218.000         160.000
   3348919.40449   2616371.18347  21453121.527    21453120.932    21453130.846
       241.000         201.000
 -20978318.63549 -16321564.54047  21114363.530    21114363.504    21114372.911
       244.000         209.000
 00  4 26 16 48 59.9990000  0  7G 2G26G 4G24G 5G 7G 9
   4684576.14949   3652039.63747  22276327.011    22276326.197    22276338.089
       233.000         190.000
  11429907.27849   8907532.37145  24887812.183    24887811.688    24887828.232
       206.000         143.000
 -23309098.03049 -18136785.37147  20315515.157    20315515.502    20315524.971
       240.000         205.000
 -11607312.51349  -8751368.06346  22122567.331    22122567.637    22122581.191
       230.000         182.000
 -10992864.88549  -8549707.78146  23485048.288    23485048.137    23485062.316
       220.000         165.000
   3399892.32149   2656090.25447  21462821.434    21462820.810    21462830.730
       239.000         201.000
 -21008916.65749 -16345407.16547  21108540.906    21108540.903    21108550.308
       244.000         209.000
 00  4 26 16 49 29.9990000  0  7G 2G26G 4G24G 5G 7G 9
   4738145.08149   3693781.49747  22286520.965    22286520.118    22286532.051
       233.000         190.000
  11502684.85049   8964241.96545  24901661.464    24901660.984    24901677.466
       203.000         147.000
 -23349952.22149 -18168619.75847  20307740.832    20307741.182    20307750.641
       240.000         205.000
 -11707582.50949  -8829500.42146  22103486.499    22103486.819    22103500.299
       228.000         183.000
 -11082511.74749  -8619562.40645  23467988.952    23467988.838    23468002.922
       213.000         161.000
   3451048.17749   2695951.87647  21472556.132    21472555.500    21472565.422
       238.000         201.000
 -21038933.75249 -16368797.11947  21102828.883    21102828.855    21102838.233
       244.000         209.000
 00  4 26 16 49 59.9990000  0  7G 2G26G 4G24G 5G 7G 9
   4792036.23949   3735774.46947  22296776.147    22296775.367    22296787.342
       230.000         191.000
  11575431.14249   9020927.06945  24915504.725    24915504.257    24915521.033
       209.000         147.000
 -23390207.12149 -18199987.16047  20300080.551    20300080.914    20300090.361
       239.000         205.000
 -11807579.11849  -8907419.75246  22084457.775    22084457.999    22084471.498
       233.000         184.000
 -11172089.35849  -8689363.04545  23450942.823    23450942.715    23450956.842
       216.000         162.000
   3502371.45449   2735943.95547  21482322.682    21482322.062    21482331.972
       239.000         201.000
 -21068367.50949 -16391732.52347  21097227.874    21097227.829    21097237.197
       243.000         209.000
 00  4 26 16 50 29.9990000  0  7G 2G26G 4G24G 5G 7G 9
   4846251.43049   3778019.91347  22307093.151    22307092.310    22307104.341
       231.000         188.000
  11648147.20449   9077588.70545  24929342.353    24929341.843    24929358.668
       212.000         145.000
 -23429873.41049 -18230895.91347  20292532.287    20292532.643    20292542.070
       240.000         204.000
 -11907288.12449  -8985114.95846  22065483.719    22065483.940    22065497.368
       231.000         183.000
 -11261592.81549  -8759105.95946  23433910.954    23433910.758    23433924.723
       221.000         164.000
   3553837.79249   2776047.51347  21492116.456    21492115.826    21492125.749
       240.000         200.000
 -21097228.34849 -16414221.49447  21091735.880    21091735.820    21091745.161
       244.000         209.000
 00  4 26 16 50 59.9990000  0  7G 2G26G 4G24G 5G 7G 9
   4900804.79949   3820528.89447  22317474.439    22317473.616    22317485.621
       231.000         191.000
  11720856.60249   9134245.07745  24943178.674    24943178.226    24943195.126
       208.000         142.000
 -23468922.47849 -18261323.71947  20285101.478    20285101.824    20285111.248
       239.000         205.000
 -12006673.35749  -9062557.87146  22046571.253    22046571.477    22046584.846
       230.000         183.000
 -11351027.92949  -8828795.53446  23416891.875    23416891.719    23416905.751
       217.000         164.000
   3605476.87249   2816285.68347  21501943.087    21501942.451    21501952.391
       239.000         200.000
 -21125518.42849 -16436265.72247  21086352.494    21086352.425    21086361.736
       243.000         208.000
 00  4 26 16 51 29.9990000  0  7G 2G26G 4G24G 5G 7G 9
   4955684.08149   3863291.81147  22327917.749    22327916.887    22327928.919
       234.000         189.000
  11793544.96149   9190885.13645  24957011.184    24957010.608    24957027.352
       206.000         147.000
 -23507361.79849 -18291276.39447  20277786.664    20277787.026    20277796.443
       239.000         204.000
 -12105708.40949  -9139727.93746  22027725.441    22027725.649    22027738.992
       229.000         183.000
 -11440405.11749  -8898440.04445  23399884.024    23399883.838    23399897.703
       214.000         161.000
   3657292.91349   2856661.73947  21511803.415    21511802.776    21511812.737
       238.000         201.000
 -21153232.38949 -16457861.02747  21081078.719    21081078.638    21081087.948
       243.000         209.000
 00  4 26 16 51 59.9990000  0  7G 2G26G 4G24G 5G 7G 9
   5010857.75349   3906284.10547  22338416.998    22338416.181    22338428.308
       229.000         189.000
  11866200.92149   9247499.91345  24970837.426    24970836.759    24970853.545
       208.000         141.000
 -23545202.80649 -18320762.85347  20270585.710    20270586.081    20270595.506
       238.000         205.000
 -12204382.56949  -9216616.76546  22008948.289    22008948.477    22008961.829
       233.000         183.000
 -11529727.77149  -8968042.02146  23382886.348    23382886.168    23382900.150
       221.000         168.000
   3709276.64649   2897168.47447  21521695.729    21521695.021    21521704.999
       238.000         200.000
 -21180377.13449 -16479012.78547  21075913.243    21075913.165    21075922.454
       243.000         208.000
 00  4 26 16 52 29.9990000  0  7G 2G26G 4G24G 5G 7G 9
   5066329.11449   3949508.42046  22348973.144    22348972.213    22348984.246
       230.000         187.000
  11938825.38549   9304090.09045  24984657.434    24984656.804    24984673.802
       211.000         145.000
 -23582423.62049 -18349766.05847  20263502.793    20263503.164    20263512.567
       238.000         205.000
 -12302681.11649  -9293212.92346  21990242.615    21990242.803    21990256.091
       230.000         183.000
 -11618996.20249  -9037601.76345  23365898.905    23365898.845    23365912.770
       215.000         159.000
   3761447.96749   2937821.38347  21531623.652    21531622.944    21531632.942
       238.000         200.000
 -21206928.68149 -16499702.31347  21070860.707    21070860.602    21070869.863
       243.000         209.000
 00  4 26 16 52 59.9990000  0  7G 2G26G 4G24G 5G 7G 9
   5122108.75049   3992972.88447  22359587.721    22359586.853    22359598.978
       234.000         190.000
  12011400.82949   9360642.17145  24998468.265    24998467.773    24998484.674
       203.000         143.000
 -23619018.72249 -18378281.69947  20256539.000    20256539.345    20256548.706
       239.000         204.000
 -12400641.97849  -9369545.95246  21971601.228    21971601.395    21971614.663
       228.000         183.000
 -11708200.04349  -9107111.17046  23348924.105    23348923.934    23348937.806
       218.000         166.000
   3813806.94149   2978620.51547  21541587.319    21541586.596    21541596.600
       238.000         200.000
 -21232864.63549 -16519912.15447  21065925.253    21065925.162    21065934.418
       243.000         209.000
 00  4 26 16 53 29.9990000  0  7G 2G26G 4G24G 5G 7G 9
   5178212.34649   4036689.82947  22370263.970    22370263.113    22370275.235
       233.000         191.000
  12083933.66249   9417160.95945  25012270.987    25012270.512    25012287.561
       209.000         146.000
 -23654978.62449 -18406302.37647  20249695.997    20249696.376    20249705.729
       239.000         205.000
 -12498280.10349  -9445627.50746  21953021.152    21953021.374    21953034.593
       229.000         183.000
 -11797307.82449  -9176545.75546  23331967.353    23331967.162    23331980.973
       221.000         163.000
   3866335.31849   3019551.66347  21551583.229    21551582.475    21551592.495
       239.000         200.000
 -21258162.60149 -16539624.85947  21061111.247    21061111.145    21061120.385
       243.000         209.000
 00  4 26 16 53 59.9990000  0  7G 2G26G 4G24G 5G 7G 9
   5234652.28549   4080668.86146  22381004.295    22381003.393    22381015.522
       227.000         185.000
  12156430.17949   9473651.45745  25026066.706    25026066.309    25026083.389
       207.000         146.000
 -23690296.56149 -18433822.81647  20242975.223    20242975.585    20242984.907
       239.000         205.000
 -12595620.11449  -9521476.74346  21934497.865    21934498.092    21934511.295
       232.000         184.000
 -11886321.71449  -9245907.12546  23315028.493    23315028.272    23315042.154
       215.000         163.000
   3919029.10049   3060611.69047  21561610.610    21561609.833    21561619.866
       240.000         200.000
 -21282823.35549 -16558841.04047  21056418.479    21056418.350    21056427.600
       245.000         209.000
 00  4 26 16 54 29.9990000  0  7G 2G26G 4G24G 5G 7G 9
   5291404.98749   4124891.58847  22391804.044    22391803.173    22391815.383
       229.000         189.000
  12228864.74349   9530093.65545  25039850.937    25039850.411    25039867.557
       211.000         146.000
 -23724984.74849 -18460852.53147  20236374.235    20236374.611    20236383.923
       238.000         205.000
 -12692692.41649  -9597117.35646  21916025.534    21916025.752    21916038.976
       230.000         185.000
 -11975265.88049  -9315214.22645  23298103.050    23298102.798    23298116.431
       217.000         161.000
   3971858.76249   3101777.59747  21571663.744    21571663.042    21571673.084
       238.000         200.000
 -21306879.98249 -16577586.46647  21051840.651    21051840.550    21051849.787
       243.000         209.000
 00  4 26 16 54 59.9990000  0  7G 2G26G 4G24G 5G 7G 9
   5348487.62249   4169371.41347  22402666.592    22402665.697    22402677.981
       230.000         188.000
  12301279.14049   9586520.20945  25053631.070    25053630.627    25053647.757
       207.000         141.000
 -23759009.29949 -18487365.14547  20229899.562    20229899.929    20229909.238
       238.000         205.000
 -12789466.00949  -9672525.24146  21897610.078    21897610.240    21897623.460
       231.000         184.000
 -12064106.72249  -9384440.76646  23281197.077    23281196.815    23281210.531
       221.000         167.000
   4024855.46749   3143073.66047  21581748.743    21581748.018    21581758.076
       239.000         199.000
 -21330331.32749 -16595860.25647  21047378.026    21047377.930    21047387.135
       244.000         208.000
 00  4 26 16 55 29.9990000  0  7G 2G26G 4G24G 5G 7G 9
   5405859.01949   4214076.23746  22413584.215    22413583.241    22413595.577
       225.000         186.000
  12373673.69049   9642931.25045  25067407.715    25067407.184    25067424.267
       208.000         145.000
 -23792388.41249 -18513374.82447  20223547.719    20223548.077    20223557.376
       239.000         205.000
 -12885923.62649  -9747686.91046  21879254.724    21879254.879    21879268.076
       231.000         185.000
 -12152880.12749  -9453614.77146  23264304.006    23264303.738    23264317.407
       218.000         164.000
   4078007.02449   3184490.38647  21591863.266    21591862.484    21591872.558
       238.000         200.000
 -21353207.99549 -16613686.24647  21043024.756    21043024.633    21043033.836
       244.000         209.000
 00  4 26 16 55 59.9990000  0  7G 2G26G 4G24G 5G 7G 9
   5463522.78649   4259008.88846  22424557.359    22424556.426    22424568.742
       228.000         187.000
  12446047.07649   9699325.80045  25081180.017    25081179.483    25081196.689
       206.000         144.000
 -23825115.76549 -18538876.63247  20217319.897    20217320.233    20217329.538
       238.000         205.000
 -12982037.11949  -9822580.42946  21860964.921    21860965.015    21860978.179
       228.000         186.000
 -12241587.99849  -9522737.70046  23247423.488    23247423.179    23247436.840
       219.000         167.000
   4131332.93549   3226042.97847  21602010.910    21602010.121    21602020.213
       238.000         199.000
 -21375503.71449 -16631059.54447  21038782.010    21038781.869    21038791.075
       244.000         208.000
 00  4 26 16 56 29.9990000  0  7G 2G26G 4G24G 5G 7G 9
   5521493.17649   4304180.45646  22435588.931    22435587.916    22435600.296
       230.000         187.000
  12518407.39549   9755710.20145  25094950.072    25094949.423    25094966.717
       205.000         143.000
 -23857179.99049 -18563861.70747  20211218.302    20211218.596    20211227.896
       240.000         205.000
 -13077771.12749  -9897178.23846  21842747.265    21842747.340    21842760.489
       230.000         187.000
 -12330210.71149  -9591794.28846  23230559.087    23230558.742    23230572.386
       222.000         167.000
   4184854.27749   3267747.85847  21612195.784    21612194.955    21612205.063
       239.000         199.000
 -21397207.01649 -16647971.21947  21034652.019    21034651.881    21034661.086
       244.000         208.000
 00  4 26 16 56 59.9990000  0  7G 2G26G 4G24G 5G 7G 9
   5579795.08049   4349610.35746  22446683.570    22446682.521    22446694.925
       228.000         186.000
  12590754.60849   9812084.29445  25108717.632    25108716.857    25108734.259
       209.000         144.000
 -23888590.41249 -18588337.33247  20205241.087    20205241.380    20205250.667
       239.000         206.000
 -13173119.41349  -9971475.47446  21824602.931    21824603.058    21824616.203
       231.000         187.000
 -12418754.90249  -9660789.66746  23213709.615    23213709.289    23213722.951
       219.000         166.000
   4238583.61649   3309614.80847  21622420.247    21622419.363    21622429.485
       238.000         200.000
 -21418298.50149 -16664406.15747  21030638.479    21030638.322    21030647.527
       244.000         208.000
 00  4 26 16 57 29.9990000  0  7G 2G26G 4G24G 5G 7G 9
   5638422.75549   4395294.10246  22457839.977    22457839.033    22457851.543
       229.000         187.000
  12663035.69749   9868406.96945  25122472.610    25122471.765    25122489.131
       206.000         142.000
 -23919370.34749 -18612321.67447  20199383.903    20199384.140    20199393.432
       239.000         205.000
 -13268089.68449 -10045478.16847  21806530.617    21806530.719    21806543.865
       233.000         188.000
 -12507254.18949  -9729750.07446  23196868.708    23196868.374    23196881.956
       220.000         168.000
   4292480.95149   3351612.65647  21632676.650    21632675.755    21632685.871
       239.000         199.000
 -21438775.43549 -16680362.22447  21026741.875    21026741.708    21026750.896
       243.000         208.000
 00  4 26 16 57 59.9990000  0  7G 2G26G 4G24G 5G 7G 9
   5697352.39949   4441213.17846  22469054.040    22469053.104    22469065.641
       227.000         185.000
  12735185.00149   9924626.79245  25136202.380    25136201.438    25136219.078
       213.000         148.000
 -23949557.28749 -18635843.94047  20193639.510    20193639.736    20193649.013
       239.000         205.000
 -13362728.39349 -10119222.49547  21788521.420    21788521.495    21788534.591
       231.000         188.000
 -12595734.23349  -9798695.46946  23180031.434    23180031.092    23180044.677
       220.000         166.000
   4346505.96749   3393710.00147  21642957.299    21642956.416    21642966.558
       238.000         199.000
 -21458677.64949 -16695870.46147  21022954.643    21022954.460    21022963.634
       244.000         208.000
 00  4 26 16 58 29.9990000  0  7G 2G26G 4G24G 5G 7G 9
   5756620.30749   4487395.84347  22480332.611    22480331.566    22480344.066
       232.000         188.000
  12807242.28049   9980775.09845  25149914.540    25149913.816    25149931.321
       204.000         133.000
 -23979118.38449 -18658878.53447  20188014.248    20188014.444    20188023.703
       240.000         206.000
 -13457012.09249 -10192690.20447  21770579.748    21770579.810    21770592.892
       232.000         188.000
 -12684163.56249  -9867601.34646  23163203.876    23163203.497    23163217.041
       221.000         167.000
   4400681.43849   3435924.58347  21653266.622    21653265.742    21653275.878
       238.000         199.000
 -21477970.24749 -16710903.66847  21019283.355    21019283.168    21019292.360
       244.000         208.000
 00  4 26 16 58 59.9990000  0  7G 2G26G 4G24G 5G 7G 9
   5816244.41949   4533856.01447  22491678.721    22491677.729    22491690.356
       232.000         188.000
  12879227.77749  10036867.31745  25163613.272    25163612.394    25163630.051
       209.000         147.000
 -24008028.17049 -18681405.61947  20182512.888    20182513.072    20182522.330
       238.000         205.000
 -13550926.19149 -10265869.89247  21752708.397    21752708.473    21752721.532
       232.000         188.000
 -12772516.18349  -9936447.44446  23146390.931    23146390.494    23146404.060
       220.000         168.000
   4455019.15749   3478265.58947  21663606.837    21663605.930    21663616.075
       237.000         199.000
 -21496625.15249 -16725439.97947  21015733.452    21015733.276    21015742.450
       243.000         208.000
 00  4 26 16 59 29.9990000  0  7G 2G26G 4G24G 5G 7G 9
   5876169.93549   4580551.10046  22503082.260    22503081.296    22503093.938
       227.000         187.000
  12951109.25549  10092878.53245  25177291.892    25177291.195    25177308.881
       206.000         134.000
 -24036320.47349 -18703451.55847  20177129.023    20177129.213    20177138.449
       239.000         205.000
 -13644495.01549 -10338780.55147  21734902.761    21734902.821    21734915.864
       233.000         189.000
 -12860802.92749 -10005242.21446  23129590.333    23129589.985    23129603.594
       221.000         169.000
   4509487.02349   3520708.01247  21673971.713    21673970.854    21673980.992
       238.000         198.000
 -21514678.08949 -16739507.22247  21012298.141    21012297.939    21012307.094
       245.000         208.000
 00  4 26 16 59 59.9990000  0  7G 2G26G 4G24G 5G 7G 9
   5936400.75849   4627484.07546  22514543.923    22514542.954    22514555.657
       228.000         186.000
  13022922.58449  10148836.74545  25190957.959    25190957.147    25190974.709
       208.000         144.000
 -24063983.39849 -18725007.07947  20171864.952    20171865.131    20171874.345
       239.000         205.000
 -13737717.45349 -10411421.30347  21717163.050    21717163.091    21717176.109
       232.000         189.000
 -12948998.83549 -10073966.20546  23112807.162    23112806.796    23112820.441
       218.000         167.000
   4564120.36249   3563279.37647  21684368.086    21684367.281    21684377.439
       237.000         198.000
 -21532132.68749 -16753108.22847  21008976.639    21008976.448    21008985.604
       243.000         208.000
 00  4 26 17  0 29.9990000  0  7G 2G26G 4G24G 5G 7G 9
   5996934.32249   4674652.94246  22526063.165    22526062.210    22526074.934
       226.000         184.000
  13094676.93649  10204748.83345  25204612.444    25204611.741    25204629.563
       207.000         140.000
 -24091017.47249 -18746072.55747  20166720.541    20166720.719    20166729.919
       239.000         205.000
 -13830591.97049 -10483790.94547  21699489.509    21699489.577    21699502.566
       234.000         189.000
 -13037112.95049 -10142626.47146  23096039.630    23096039.219    23096052.749
       222.000         168.000
   4618912.28449   3605974.31547  21694794.708    21694793.902    21694804.053
       238.000         198.000
 -21548984.36849 -16766239.42747  21005769.913    21005769.700    21005778.847
       244.000         208.000
 00  4 26 17  0 59.9990000  0  8G16G 2G26G 4G24G 5G 7G 9
   -130287.54059    -95585.15255  24482370.233    24482370.183    24482389.645
       213.000         151.000
   6057760.34949   4722049.66446  22537638.135    22537637.137    22537649.943
       226.000         185.000
  13166351.03949  10260598.49645  25218251.851    25218251.163    25218269.023
       204.000         136.000
 -24117422.11449 -18766647.57747  20161695.873    20161696.065    20161705.269
       239.000         205.000
 -13923113.19549 -10555885.32147  21681883.177    21681883.275    21681896.224
       234.000         189.000
 -13125145.99649 -10211223.54346  23079287.351    23079286.999    23079300.593
       224.000         169.000
   4673866.31449   3648795.56247  21705252.247    21705251.368    21705261.515
       238.000         198.000
 -21565239.19049 -16778905.54647  21002676.754    21002676.542    21002685.682
       244.000         208.000
 00  4 26 17  1 29.9990000  0  8G16G 2G26G 4G24G 5G 7G 9
   -175604.81549   -130897.23345  24473746.702    24473746.200    24473765.175
       213.000         154.000
   6118891.78249   4769684.36946  22549271.195    22549270.160    22549282.995
       225.000         183.000
  13237940.82249  10316382.43245  25231875.175    25231874.363    25231892.346
       210.000         146.000
 -24143173.98449 -18786713.93847  20156795.428    20156795.623    20156804.819
       238.000         205.000
 -14015266.18249 -10627692.74147  21664346.942    21664347.064    21664360.012
       233.000         190.000
 -13213085.09849 -10279747.44646  23062552.984    23062552.667    23062566.252
       221.000         168.000
   4728999.59249   3691756.47547  21715743.823    21715742.933    21715753.102
       238.000         198.000
 -21580890.24949 -16791101.19847  20999698.505    20999698.268    20999707.406
       243.000         208.000
 00  4 26 17  1 59.9990000  0  7G16G 2G 4G24G 5G 7G 9
   -220468.85759   -165856.15955  24465209.388    24465208.735    24465228.295
       215.000         157.000
   6180375.20649   4817593.33446  22560971.221    22560970.195    22560983.109
       223.000         183.000
 -24168216.80849 -18806227.80547  20152029.909    20152030.127    20152039.327
       239.000         205.000
 -14107022.10449 -10699190.75347  21646886.274    21646886.416    21646899.337
       234.000         191.000
 -13300903.90749 -10348177.58946  23045841.696    23045841.258    23045854.822
       224.000         169.000
   4784336.31749   3734875.92147  21726274.146    21726273.215    21726283.383
       238.000         197.000
 -21595895.74349 -16802793.80847  20996843.063    20996842.826    20996851.966
       244.000         208.000
 00  4 26 17  2 29.9990000  0  7G16G 2G 4G24G 5G 7G 9
   -264902.27349   -200479.50245  24456754.016    24456753.516    24456772.839
       220.000         160.000
   6242204.07049   4865771.50646  22572737.094    22572736.005    22572748.908
       224.000         183.000
 -24192560.60549 -18825196.98247  20147397.432    20147397.632    20147406.826
       238.000         205.000
 -14198384.16949 -10770381.87747  21629500.572    21629500.706    21629513.598
       232.000         191.000
 -13388613.91049 -10416522.96346  23029150.983    23029150.562    23029164.085
       223.000         171.000
   4839856.07449   3778137.98347  21736839.241    21736838.320    21736848.523
       237.000         197.000
 -21610249.01849 -16813978.20447  20994111.761    20994111.514    20994120.647
       244.000         209.000
 00  4 26 17  2 59.9990000  0  7G16G 2G 4G24G 5G 7G 9
   -308931.69549   -234788.04946  24448375.437    24448374.812    24448394.237
       217.000         163.000
   6304345.18249   4914192.95346  22584562.150    22584561.141    22584574.155
       227.000         184.000
 -24216229.41549 -18843640.18947  20142893.366    20142893.581    20142902.775
       238.000         205.000
 -14289382.39949 -10841289.49147  21612184.165    21612184.242    21612197.097
       232.000         192.000
 -13476241.37649 -10484804.01446  23012475.891    23012475.523    23012489.024
       224.000         170.000
   4895533.88049   3821523.21447  21747434.352    21747433.493    21747443.724
       236.000         197.000
 -21623984.92249 -16824681.52447  20991497.911    20991497.661    20991506.804
       244.000         208.000
 00  4 26 17  3 29.9990000  0  7G16G 2G 4G24G 5G 7G 9
   -352553.54849   -268779.02646  24440074.431    24440073.842    24440093.197
       217.000         164.000
   6366803.55549   4962861.63946  22596447.659    22596446.675    22596459.750
       223.000         182.000
 -24239230.88149 -18861563.38947  20138516.314    20138516.530    20138525.712
       238.000         205.000
 -14380004.93049 -10911904.35747  21594939.204    21594939.267    21594952.103
       233.000         192.000
 -13563780.59549 -10553016.30846  22995817.741    22995817.325    22995830.773
       222.000         171.000
   4951360.38949   3865024.31947  21758057.796    21758056.989    21758067.243
       238.000         197.000
 -21637099.64349 -16834900.81347  20989002.288    20989002.038    20989011.174
       244.000         209.000
 00  4 26 17  3 59.9990000  0  7G16G 2G 4G24G 5G 7G 9
   -395769.91549   -302454.03646  24431850.606    24431849.993    24431869.299
       218.000         165.000
   6429569.32549   5011769.83746  22608391.806    22608390.774    22608403.926
       221.000         181.000
 -24261586.86249 -18878983.61947  20134262.136    20134262.319    20134271.493
       238.000         205.000
 -14470241.43349 -10982218.41147  21577767.651    21577767.750    21577780.587
       233.000         192.000
 -13651248.81449 -10621173.27946  22979172.988    22979172.611    22979186.052
       223.000         172.000
   5007320.54549   3908629.55747  21768706.776    21768705.898    21768716.183
       237.000         197.000
 -21649598.12549 -16844639.91647  20986623.948    20986623.677    20986632.817
       244.000         208.000
 00  4 26 17  4 29.9990000  0  7G16G 2G 4G24G 5G 7G 9
   -438558.68249   -335795.82946  24423708.139    24423707.518    24423726.850
       216.000         164.000
   6492638.85649   5060914.79546  22620393.874    22620392.729    22620405.753
       224.000         185.000
 -24283313.69849 -18895913.59447  20130127.656    20130127.809    20130136.981
       237.000         205.000
 -14560066.53149 -11052211.90347  21560674.484    21560674.528    21560687.355
       233.000         193.000
 -13738639.52149 -10689269.84946  22962543.038    22962542.641    22962556.081
       223.000         172.000
   5063415.21749   3952339.62947  21779381.334    21779380.422    21779390.725
       235.000         196.000
 -21661491.46949 -16853907.47847  20984360.700    20984360.435    20984369.591
       243.000         209.000
 00  4 26 17  4 59.9990000  0  7G16G 2G 4G24G 5G 7G 9
   -480906.63449   -368794.13145  24415649.506    24415648.936    24415668.243
       212.000         160.000
   6556008.44449   5110293.47746  22632452.841    22632451.703    22632464.741
       226.000         184.000
 -24304418.10149 -18912358.56947  20126111.645    20126111.772    20126120.927
       238.000         205.000
 -14649473.10649 -11121879.26747  21543660.886    21543660.938    21543673.754
       235.000         193.000
 -13825942.53249 -10757298.07446  22945929.728    22945929.346    22945942.766
       225.000         171.000
   5119628.37549   3996142.02447  21790078.363    21790077.497    21790087.830
       236.000         197.000
 -21672788.69949 -16862710.54447  20982210.931    20982210.665    20982219.814
       244.000         208.000
 00  4 26 17  5 29.9990000  0  7G16G 2G 4G24G 5G 7G 9
   -522818.09349   -401452.30245  24407673.977    24407673.410    24407692.715
       208.000         155.000
   6619670.30249   5159899.89046  22644567.272    22644566.212    22644579.382
       218.000         176.000
 -24324912.86049 -18928328.49547  20122211.632    20122211.732    20122220.896
       237.000         205.000
 -14738463.31649 -11191222.20647  21526726.574    21526726.600    21526739.364
       235.000         193.000
 -13913158.76549 -10825258.70146  22929333.067    22929332.630    22929345.976
       223.000         172.000
   5175944.37849   4040024.56047  21800795.013    21800794.127    21800804.504
       236.000         196.000
 -21683491.79249 -16871050.64347  20980174.207    20980173.936    20980183.112
       243.000         208.000
 00  4 26 17  5 59.9990000  0  7G16G 2G 4G24G 5G 7G 9
   -564297.28849   -433773.66545  24399780.686    24399780.151    24399799.422
       210.000         153.000
   6683616.14049   5209727.60546  22656736.155    22656734.979    22656748.157
       223.000         179.000
 -24344799.58849 -18943824.63247  20118427.264    20118427.406    20118436.569
       238.000         205.000
 -14827062.21249 -11260260.19647  21509866.686    21509866.707    21509879.489
       236.000         193.000
 -14000293.04049 -10893155.45846  22912751.865    22912751.460    22912764.763
       228.000         173.000
   5232364.15049   4083987.95247  21811531.377    21811530.496    21811540.911
       237.000         196.000
 -21693604.38849 -16878930.61447  20978249.848    20978249.583    20978258.750
       244.000         209.000
 00  4 26 17  6 29.9990000  0  7G16G 2G 4G24G 5G 7G 9
   -605319.25349   -465738.74545  24391974.401    24391973.956    24391993.137
       211.000         152.000
   6747869.17649   5259794.68646  22668963.096    22668961.982    22668975.245
       224.000         186.000
 -24364054.61949 -18958828.55047  20114763.151    20114763.291    20114772.446
       239.000         205.000
 -14915276.91549 -11328998.84747  21493079.941    21493079.940    21493092.671
       234.000         193.000
 -14087305.52749 -10960957.28746  22896193.850    22896193.466    22896206.775
       225.000         172.000
   5288911.54849   4128050.78447  21822292.039    21822291.153    21822301.603
       236.000         196.000
 -21703101.38349 -16886330.89547  20976442.606    20976442.347    20976451.541
       245.000         209.000
 00  4 26 17  6 59.9990000  0  7G16G 2G 4G24G 5G 7G 9
   -645893.77149   -497355.15945  24384253.347    24384252.884    24384272.015
       211.000         152.000
   6812423.03249   5310096.20046  22681247.551    22681246.351    22681259.580
       214.000         172.000
 -24382674.30249 -18973337.38847  20111219.958    20111220.071    20111229.216
       239.000         205.000
 -15003134.65449 -11397459.33547  21476361.105    21476361.094    21476373.811
       236.000         194.000
 -14174200.66349 -11028667.70846  22879658.306    22879657.854    22879671.096
       226.000         173.000
   5345587.13349   4172213.49747  21833077.090    21833076.226    21833086.683
       237.000         196.000
 -21711978.41949 -16893248.09547  20974753.418    20974753.122    20974762.331
       244.000         208.000
 00  4 26 17  7 29.9990000  0  7G16G 2G 4G24G 5G 7G 9
   -686036.23249   -528634.93045  24376614.454    24376613.959    24376633.075
       210.000         150.000
   6877266.61349   5360623.43446  22693587.075    22693585.847    22693599.133
       223.000         179.000
 -24400663.52049 -18987354.96447  20107796.700    20107796.832    20107805.960
       239.000         205.000
 -15090646.25149 -11465650.11847  21459708.159    21459708.115    21459720.803
       237.000         193.000
 -14260994.33549 -11096299.05046  22863141.867    22863141.459    22863154.710
       225.000         172.000
   5402403.41349   4216485.84147  21843888.984    21843888.079    21843898.530
       238.000         196.000
 -21720241.05649 -16899686.54147  20973181.075    20973180.815    20973190.022
       244.000         208.000
 00  4 26 17  7 59.9990000  0  7G16G 2G 4G24G 5G 7G 9
   -725729.14149   -559564.38445  24369061.110    24369060.622    24369079.696
       212.000         151.000
   6942419.35849   5411391.55046  22705985.284    22705984.125    22705997.551
       218.000         173.000
 -24418002.01549 -19000865.47547  20104497.320    20104497.432    20104506.547
       239.000         205.000
 -15177795.22949 -11533558.32347  21443124.159    21443124.138    21443136.817
       236.000         194.000
 -14347677.93849 -11163844.62546  22846646.569    22846646.099    22846659.292
       226.000         175.000
   5459391.62649   4260892.14547  21854733.501    21854732.627    21854743.108
       236.000         197.000
 -21727866.99549 -16905628.86347  20971729.897    20971729.634    20971738.882
       244.000         209.000
 00  4 26 17  8 29.9990000  0  7G16G 2G 4G24G 5G 7G 9
   -764969.17949   -590140.94345  24361593.984    24361593.435    24361612.527
       213.000         152.000
   7007881.35349   5462400.76046  22718442.621    22718441.371    22718454.694
       219.000         181.000
 -24434686.06249 -19013866.02247  20101322.460    20101322.563    20101331.645
       238.000         205.000
 -15264556.90749 -11601164.75047  21426613.931    21426613.876    21426626.516
       236.000         194.000
 -14434253.99849 -11231306.38546  22830171.607    22830171.136    22830184.291
       226.000         174.000
   5516553.38849   4305433.69547  21865611.142    21865610.222    21865620.723
       237.000         196.000
 -21734851.77549 -16911071.58047  20970400.790    20970400.501    20970409.761
       244.000         209.000
 00  4 26 17  8 59.9990000  0  7G16G 2G 4G24G 5G 7G 9
   -803769.91249   -620375.17645  24354210.335    24354209.882    24354228.897
       212.000         153.000
   7073653.99349   5513651.94746  22730958.814    22730957.608    22730971.024
       226.000         183.000
 -24450712.28049 -19026353.97647  20098272.757    20098272.860    20098281.933
       237.000         204.000
 -15350905.46149 -11668449.25647  21410182.285    21410182.225    21410194.835
       236.000         195.000
 -14520743.03449 -11298700.35446  22813713.157    22813712.755    22813725.907
       227.000         174.000
   5573884.09149   4350106.89447  21876520.849    21876519.941    21876530.480
       234.000         196.000
 -21741207.19249 -16916023.88447  20969191.433    20969191.136    20969200.413
       244.000         209.000
 00  4 26 17  9 29.9990000  0  7G16G 2G 4G24G 5G 7G 9
   -842137.50049   -650271.86445  24346909.139    24346908.699    24346927.732
       215.000         157.000
   7139739.92849   5565147.32946  22743534.608    22743533.474    22743546.832
       223.000         177.000
 -24466085.75849 -19038333.31547  20095347.272    20095347.390    20095356.434
       238.000         204.000
 -15436832.14749 -11735405.04347  21393830.920    21393830.859    21393843.454
       239.000         196.000
 -14607159.89549 -11366038.06246  22797268.464    22797268.091    22797281.216
       226.000         175.000
   5631378.39349   4394907.58247  21887461.699    21887460.801    21887471.375
       237.000         196.000
 -21746947.57349 -16920496.93647  20968099.118    20968098.804    20968108.107
       244.000         209.000
 00  4 26 17  9 59.9990000  0  7G16G 2G 4G24G 5G 7G 9
   -880068.21849   -679828.09545  24339691.124    24339690.677    24339709.713
       217.000         158.000
   7206145.30449   5616891.50846  22756171.391    22756170.190    22756183.758
       228.000         185.000
 -24480799.67349 -19049798.70147  20092547.315    20092547.421    20092556.456
       238.000         205.000
 -15522328.62349 -11802025.58447  21377561.426    21377561.356    21377573.945
       236.000         196.000
 -14693502.29449 -11433317.75746  22780838.014    22780837.633    22780850.753
       225.000         175.000
   5689017.36449   4439821.02147  21898430.125    21898429.180    21898439.786
       235.000         195.000
 -21752079.77449 -16924496.08647  20967122.531    20967122.201    20967131.517
       244.000         209.000
 00  4 26 17 10 29.9990000  0  7G16G 2G 4G24G 5G 7G 9
   -917551.79649   -709035.90545  24332558.168    24332557.722    24332576.744
       216.000         158.000
   7272884.35849   5668895.79546  22768871.487    22768870.290    22768883.827
       228.000         186.000
 -24494844.08249 -19060742.40047  20089874.782    20089874.851    20089883.860
       238.000         204.000
 -15607379.46649 -11868298.87947  21361376.745    21361376.669    21361389.222
       235.000         196.000
 -14779747.12249 -11500521.42046  22764426.129    22764425.714    22764438.790
       227.000         176.000
   5746781.80949   4484832.21747  21909422.386    21909421.452    21909432.085
       236.000         196.000
 -21756610.37749 -16928026.45247  20966260.416    20966260.070    20966269.415
       244.000         209.000
 00  4 26 17 10 59.9990000  0  7G16G 2G 4G24G 5G 7G 9
   -954585.84649   -737893.42545  24325510.758    24325510.323    24325529.288
       215.000         157.000
   7339959.55049   5721161.96046  22781635.763    22781634.502    22781648.112
       219.000         172.000
 -24508223.95549 -19071168.28747  20087328.682    20087328.722    20087337.715
       237.000         205.000
 -15691997.46449 -11934234.90047  21345274.425    21345274.324    21345286.885
       236.000         196.000
 -14865893.53349 -11567648.39046  22748032.862    22748032.496    22748045.605
       227.000         177.000
   5804659.50449   4529931.64647  21920436.132    21920435.229    21920445.914
       233.000         195.000
 -21760548.32649 -16931095.01647  20965511.104    20965510.739    20965520.099
       244.000         209.000
 00  4 26 17 11 29.9990000  0  7G16G 2G 4G24G 5G 7G 9
   -991160.84049   -766393.22245  24318550.624    24318550.213    24318569.185
       213.000         156.000
   7407361.39449   5773682.67946  22794462.089    22794460.773    22794474.398
       231.000         184.000
 -24520951.62549 -19081085.96047  20084906.646    20084906.705    20084915.699
       240.000         204.000
 -15776197.06749 -11999844.89347  21329251.702    21329251.602    21329264.165
       238.000         196.000
 -14951929.50749 -11634689.31546  22731660.755    22731660.347    22731673.356
       228.000         175.000
   5862649.43949   4575118.54747  21931471.323    21931470.397    21931481.081
       237.000         195.000
 -21763885.92649 -16933695.77547  20964876.050    20964875.647    20964885.012
       245.000         209.000
 00  4 26 17 11 59.9990000  0  7G16G 2G 4G24G 5G 7G 9
  -1027257.28049   -794520.08945  24311681.566    24311681.153    24311700.149
       211.000         156.000
   7475090.27049   5826458.20246  22807350.534    22807349.256    22807362.996
       216.000         171.000
 -24533024.34149 -19090493.26847  20082609.296    20082609.341    20082618.316
       240.000         204.000
 -15859970.45449 -12065122.76647  21313310.154    21313310.013    21313322.560
       238.000         197.000
 -15037839.22649 -11701631.84646  22715312.597    22715312.182    22715325.201
       227.000         177.000
   5920755.24149   4620395.74247  21942528.609    21942527.606    21942538.326
       236.000         196.000
 -21766610.83949 -16935819.10947  20964357.542    20964357.150    20964366.531
       244.000         209.000
 00  4 26 17 12 29.9990000  0  7G16G 2G 4G24G 5G 7G 9
  -1062874.72649   -822273.72045  24304903.622    24304903.244    24304922.235
       212.000         154.000
   7543128.70849   5879475.00246  22820298.160    22820296.785    22820310.420
       228.000         180.000
 -24544458.39649 -19099402.91847  20080433.511    20080433.512    20080442.475
       239.000         204.000
 -15943330.83149 -12130078.83247  21297447.187    21297447.014    21297459.540
       238.000         197.000
 -15123633.63949 -11768484.55446  22698986.401    22698985.974    22698998.913
       225.000         176.000
   5978980.74049   4665766.19547  21953608.703    21953607.628    21953618.344
       235.000         195.000
 -21768729.23249 -16937469.83747  20963954.452    20963954.056    20963963.459
       244.000         209.000
 00  4 26 17 12 59.9990000  0  7G16G 2G 4G24G 5G 7G 9
  -1098038.30549   -849673.70945  24298212.032    24298211.700    24298230.724
       210.000         153.000
   7611438.06849   5932702.82146  22833296.892    22833295.651    22833309.532
       228.000         185.000
 -24555282.08549 -19107836.95547  20078373.876    20078373.858    20078382.807
       239.000         204.000
 -16026305.97749 -12194734.69347  21281657.539    21281657.305    21281669.818
       237.000         197.000
 -15209341.53349 -11835269.82646  22682676.756    22682676.265    22682689.179
       228.000         177.000
   6037324.74549   4711228.99947  21964711.300    21964710.213    21964720.920
       235.000         194.000
 -21770265.02749 -16938666.58847  20963662.219    20963661.807    20963671.246
       244.000         209.000
 00  4 26 17 13 29.9990000  0  7G16G 2G 4G24G 5G 7G 9
  -1132719.56849   -876697.87545  24291612.251    24291611.982    24291630.990
       210.000         151.000
   7680047.34749   5986164.38646  22846352.927    22846351.694    22846365.627
       219.000         169.000
 -24565456.66349 -19115765.19347  20076437.766    20076437.709    20076446.652
       239.000         204.000
 -16108857.16949 -12259060.21347  21265948.510    21265948.286    21265960.767
       237.000         197.000
 -15294928.91049 -11901961.19546  22666389.946    22666389.440    22666402.347
       229.000         179.000
   6095826.54849   4756814.75347  21975843.900    21975842.781    21975853.529
       234.000         195.000
 -21771190.67149 -16939387.90247  20963486.128    20963485.690    20963495.136
       244.000         209.000
 00  4 26 17 13 59.9990000  0  7G16G 2G 4G24G 5G 7G 9
  -1166943.46249   -903365.62045  24285099.568    24285099.286    24285118.308
       210.000         152.000
   7748938.97049   6039845.97446  22859462.984    22859461.581    22859475.427
       225.000         182.000
 -24574993.27049 -19123196.31047  20074623.027    20074622.956    20074631.893
       239.000         204.000
 -16190995.01749 -12323063.63847  21250318.137    21250317.922    21250330.381
       237.000         197.000
 -15380419.26649 -11968576.95846  22650121.629    22650121.112    22650133.977
       227.000         177.000
   6154448.48449   4802494.10647  21986999.337    21986998.217    21987009.001
       234.000         195.000
 -21771536.16149 -16939657.14347  20963420.396    20963419.961    20963429.414
       244.000         209.000
 00  4 26 17 14 29.9990000  0  7G16G 2G 4G24G 5G 7G 9
  -1200656.59549   -929635.39645  24278684.012    24278683.742    24278702.715
       209.000         152.000
   7818187.95449   6093805.99646  22872640.662    22872639.321    22872653.253
       223.000         175.000
 -24583814.01049 -19130069.61747  20072944.503    20072944.441    20072953.383
       240.000         204.000
 -16272645.54349 -12386687.33047  21234780.436    21234780.263    21234792.698
       237.000         198.000
 -15465735.06349 -12035056.70346  22633886.573    22633886.013    22633898.852
       228.000         177.000
   6213254.64849   4848317.02947  21998189.700    21998188.669    21998199.474
       235.000         194.000
 -21771224.37349 -16939414.22047  20963479.786    20963479.324    20963488.792
       245.000         209.000
 00  4 26 17 14 59.9990000  0  7G16G 2G 4G24G 5G 7G 9
  -1233906.14549   -955543.93845  24272356.660    24272356.395    24272375.351
       212.000         151.000
   7887751.29749   6148010.99446  22885878.404    22885876.978    22885890.912
       229.000         183.000
 -24591969.51949 -19136424.55747  20071392.564    20071392.504    20071401.433
       239.000         204.000
 -16353860.52349 -12449971.64147  21219325.632    21219325.490    21219337.927
       237.000         198.000
 -15550929.38049 -12101441.79546  22617674.484    22617673.982    22617686.734
       226.000         178.000
   6272180.85549   4894233.49247  22009403.006    22009402.001    22009412.852
       234.000         195.000
 -21770300.99449 -16938694.73547  20963655.533    20963655.074    20963664.545
       244.000         209.000
 00  4 26 17 15 29.9990000  0  7G16G 2G 4G24G 5G 7G 9
  -1266699.77949   -981097.26145  24266116.085    24266115.861    24266134.734
       212.000         150.000
   7957628.46349   6202460.45346  22899175.601    22899174.261    22899188.357
       222.000         173.000
 -24599478.42249 -19142275.64547  20069963.655    20069963.603    20069972.546
       239.000         204.000
 -16434639.34249 -12512916.09147  21203953.842    21203953.714    21203966.142
       236.000         198.000
 -15636013.65449 -12167741.14046  22601483.357    22601482.909    22601495.695
       227.000         177.000
   6331205.52349   4940226.67847  22020635.103    22020634.082    22020644.954
       234.000         194.000
 -21768762.22449 -16937495.72547  20963948.376    20963947.913    20963957.404
       245.000         209.000
 00  4 26 17 15 59.9990000  0  7G16G 2G 4G24G 5G 7G 9
  -1299031.25649  -1006290.44845  24259963.515    24259963.298    24259982.056
       210.000         149.000
   8027817.24049   6257152.86646  22912532.214    22912530.891    22912544.959
       222.000         177.000
 -24606344.64949 -19147625.93547  20068657.053    20068657.023    20068665.955
       239.000         205.000
 -16514973.64449 -12575514.15547  21188666.656    21188666.518    21188678.932
       237.000         198.000
 -15720978.14749 -12233947.13546  22585315.085    22585314.618    22585327.403
       228.000         180.000
   6390338.23049   4986304.04347  22031887.768    22031886.711    22031897.602
       235.000         195.000
 -21766585.96749 -16935799.96847  20964362.549    20964362.075    20964371.569
       244.000         210.000
 00  4 26 17 16 29.9990000  0  7G16G 2G 4G24G 5G 7G 9
  -1330902.25949  -1031124.81245  24253898.472    24253898.312    24253917.047
       209.000         150.000
   8098305.22249   6312078.27946  22925945.879    22925944.513    22925958.714
       226.000         176.000
 -24612583.49149 -19152487.36847  20067469.835    20067469.812    20067478.736
       239.000         204.000
 -16594882.55049 -12637780.74047  21173460.393    21173460.291    21173472.694
       238.000         198.000
 -15805826.90749 -12300062.96246  22569168.778    22569168.342    22569181.082
       229.000         179.000
   6449583.72449   5032469.28347  22043161.907    22043160.835    22043171.747
       236.000         195.000
 -21763777.52949 -16933611.61347  20964897.007    20964896.540    20964906.032
       245.000         209.000
 00  4 26 17 16 59.9990000  0  7G16G 2G 4G24G 5G 7G 9
  -1362294.19149  -1055585.83945  24247924.635    24247924.488    24247943.184
       203.000         148.000
   8169102.39749   6367244.71846  22939418.320    22939416.940    22939431.199
       221.000         176.000
 -24618192.90549 -19156858.32647  20066402.400    20066402.376    20066411.297
       238.000         204.000
 -16674364.18249 -12699714.37547  21158335.482    21158335.361    21158347.756
       237.000         198.000
 -15890559.30549 -12366088.10746  22553044.751    22553044.255    22553057.011
       229.000         179.000
   6508956.03749   5078733.33747  22054460.092    22054459.041    22054469.969
       235.000         194.000
 -21760339.58749 -16930932.73347  20965551.278    20965550.797    20965560.288
       245.000         209.000
 00  4 26 17 17 29.9990000  0  7G16G 2G 4G24G 5G 7G 9
  -1393213.32049  -1079678.46745  24242040.744    24242040.623    24242059.303
       207.000         152.000
   8240200.33949   6422645.45946  22952947.895    22952946.551    22952960.838
       226.000         175.000
 -24623163.81649 -19160731.75747  20065456.434    20065456.406    20065465.363
       238.000         204.000
 -16753415.34949 -12761312.59247  21143292.465    21143292.347    21143304.725
       238.000         199.000
 -15975168.12049 -12432016.94546  22536944.139    22536943.652    22536956.373
       229.000         179.000
   6568457.40649   5125097.96647  22065782.878    22065781.832    22065792.736
       236.000         194.000
 -21756279.42149 -16927769.00347  20966323.946    20966323.453    20966332.950
       244.000         209.000
 00  4 26 17 17 59.9990000  0  7G16G 2G 4G24G 5G 7G 9
  -1423628.77249  -1103378.64745  24236252.811    24236252.624    24236271.256
       210.000         153.000
   8311614.80249   6478292.86546  22966537.841    22966536.478    22966550.739
       222.000         174.000
 -24627458.10049 -19164077.94947  20064639.282    20064639.232    20064648.184
       239.000         204.000
 -16832026.21349 -12822567.71547  21128333.292    21128333.141    21128345.499
       237.000         199.000
 -16059641.23449 -12497840.06646  22520869.464    22520868.917    22520881.572
       230.000         180.000
   6628090.68349   5171565.36047  22077130.711    22077129.703    22077140.630
       233.000         193.000
 -21751592.67349 -16924117.03547  20967215.834    20967215.330    20967224.820
       245.000         210.000
 00  4 26 17 18 29.9990000  0  7G16G 2G 4G24G 5G 7G 9
  -1453534.65749  -1126681.82645  24230561.866    24230561.629    24230580.197
       210.000         153.000
   8383348.94849   6534189.35646  22980188.774    22980187.302    22980201.645
       223.000         176.000
 -24631076.48949 -19166897.47147  20063950.719    20063950.666    20063959.628
       238.000         204.000
 -16910194.89049 -12883478.27747  21113458.234    21113458.063    21113470.420
       238.000         199.000
 -16143991.02349 -12563567.08846  22504818.235    22504817.639    22504830.248
       231.000         180.000
   6687837.30749   5218121.07847  22088500.173    22088499.175    22088510.138
       234.000         194.000
 -21746306.15449 -16919997.71347  20968221.882    20968221.365    20968230.851
       245.000         210.000
 00  4 26 17 18 59.9990000  0  7G16G 2G 4G24G 5G 7G 9
  -1482931.55449  -1149588.38345  24224967.731    24224967.439    24224985.989
       207.000         151.000
   8455381.07549   6590318.04546  22993896.062    22993894.641    22993909.006
       229.000         176.000
 -24634031.74249 -19169200.25547  20063388.390    20063388.311    20063397.254
       240.000         204.000
 -16987920.63049 -12944043.69047  21098667.466    21098667.299    21098679.637
       237.000         200.000
 -16228233.63449 -12629210.57946  22488787.354    22488786.761    22488799.331
       230.000         181.000
   6747679.81049   5264751.52247  22099887.880    22099886.899    22099897.866
       234.000         193.000
 -21740431.53449 -16915420.12647  20969339.841    20969339.314    20969348.800
       246.000         210.000
 00  4 26 17 19 29.9990000  0  7G16G 2G 4G24G 5G 7G 9
  -1511800.05749  -1172083.20645  24219474.095    24219473.779    24219492.342
       201.000         142.000
   8527711.39949   6646679.11146  23007660.424    23007658.931    23007673.306
       218.000         170.000
 -24636306.50249 -19170972.78747  20062955.487    20062955.423    20062964.392
       238.000         204.000
 -17065178.92849 -13004244.87147  21083965.613    21083965.433    21083977.775
       238.000         199.000
 -16312343.93649 -12694750.98146  22472781.633    22472781.038    22472793.568
       230.000         181.000
   6807631.67849   5311467.17947  22111296.385    22111295.418    22111306.401
       233.000         192.000
 -21733954.83149 -16910373.38247  20970572.307    20970571.819    20970581.308
       245.000         210.000
 00  4 26 17 19 59.9990000  0  7G16G 2G 4G24G 5G 7G 9
  -1540167.37249  -1194187.48245  24214075.724    24214075.460    24214094.008
       200.000         142.000
   8600323.96449   6703260.08746  23021478.274    23021476.802    23021491.242
       226.000         178.000
 -24637935.89249 -19172242.44547  20062645.436    20062645.375    20062654.333
       238.000         204.000
 -17141981.78649 -13064091.15547  21069350.442    21069350.259    21069362.585
       238.000         199.000
 -16396328.98449 -12760193.78546  22456799.750    22456799.159    22456811.665
       230.000         181.000
   6867673.34649   5358252.80147  22122722.060    22122721.040    22122732.013
       234.000         193.000
 -21726896.02449 -16904873.05347  20971915.557    20971915.066    20971924.569
       245.000         210.000
 00  4 26 17 20 29.9990000  0  7G16G 2G 4G24G 5G 7G 9
  -1568053.45349  -1215916.85945  24208768.999    24208768.753    24208787.197
       200.000         142.000
   8673208.23949   6760052.77346  23035347.853    23035346.412    23035360.866
       222.000         169.000
 -24638943.04449 -19173027.23747  20062453.753    20062453.693    20062462.663
       238.000         204.000
 -17218336.05849 -13123587.89347  21054820.605    21054820.440    21054832.764
       236.000         200.000
 -16480176.54649 -12825529.45546  22440844.011    22440843.430    22440855.902
       230.000         181.000
   6927826.52549   5405125.32147  22134168.909    22134167.897    22134178.888
       232.000         192.000
 -21719268.77749 -16898929.78847  20973366.984    20973366.504    20973376.006
       245.000         210.000
 00  4 26 17 20 59.9990000  0  7G16G 2G 4G24G 5G 7G 9
  -1595469.79349  -1237280.13445  24203551.711    24203551.454    24203569.961
       205.000         146.000
   8746347.27449   6817043.96446  23049265.796    23049264.420    23049279.035
       219.000         177.000
 -24639334.58049 -19173332.32747  20062379.219    20062379.175    20062388.163
       238.000         205.000
 -17294261.08649 -13182750.14947  21040372.463    21040372.309    21040384.614
       238.000         200.000
 -16563882.90549 -12890755.09146  22424915.165    22424914.572    22424927.026
       228.000         181.000
   6988086.50049   5452081.07347  22145636.038    22145635.037    22145646.053
       232.000         193.000
 -21711075.64549 -16892545.56547  20974926.161    20974925.649    20974935.157
       245.000         210.000
 00  4 26 17 21 29.9990000  0  7G16G 2G 4G24G 5G 7G 9
  -1622429.14149  -1258287.34045  24198421.543    24198421.182    24198439.715
       206.000         148.000
   8819754.43949   6874244.15646  23063235.146    23063233.628    23063248.098
       225.000         164.000
 -24639119.30749 -19173164.58847  20062420.229    20062420.153    20062429.140
       239.000         205.000
 -17369755.48149 -13241576.86347  21026006.314    21026006.129    21026018.406
       239.000         200.000
 -16647438.89649 -12955863.56146  22409014.921    22409014.349    22409026.760
       228.000         181.000
   7048451.61649   5499118.72647  22157123.226    22157122.215    22157133.259
       233.000         193.000
 -21702311.35149 -16885716.28547  20976593.995    20976593.481    20976602.999
       246.000         210.000
 00  4 26 17 21 59.9990000  0  7G16G 2G 4G24G 5G 7G 9
  -1648913.71649  -1278924.55045  24193381.441    24193381.210    24193399.627
       198.000         138.000
   8893442.75549   6931663.33246  23077257.544    23077256.135    23077270.788
       225.000         180.000
 -24638298.24349 -19172524.80447  20062576.475    20062576.404    20062585.378
       239.000         205.000
 -17444806.89049 -13300058.40147  21011724.474    21011724.259    21011736.505
       239.000         200.000
 -16730846.18049 -13020856.16546  22393142.917    22393142.378    22393154.769
       231.000         182.000
   7108936.11449   5546249.40947  22168633.180    22168632.068    22168643.136
       235.000         191.000
 -21692963.16949 -16878432.03147  20978372.938    20978372.409    20978381.943
       246.000         210.000
 00  4 26 17 22 29.9990000  0  7G16G 2G 4G24G 5G 7G 9
  -1674893.43049  -1299168.40345  24188437.652    24188437.227    24188455.749
       204.000         143.000
   8967415.93449   6989304.51445  23091334.320    23091332.930    23091347.684
       215.000         162.000
 -24636859.13449 -19171403.42147  20062850.329    20062850.258    20062859.246
       238.000         205.000
 -17519407.70149 -13358188.81547  20997528.333    20997528.125    20997540.347
       239.000         200.000
 -16814120.73249 -13085745.34246  22377296.192    22377295.659    22377308.034
       231.000         182.000
   7169549.65649   5593480.63547  22180167.681    22180166.508    22180177.587
       235.000         192.000
 -21683015.59549 -16870680.71047  20980265.927    20980265.395    20980274.944
       245.000         210.000
 00  4 26 17 22 59.9990000  0  7G16G 2G 4G24G 5G 7G 9
  -1700355.43349  -1319008.79545  24183592.331    24183591.822    24183610.350
       198.000         134.000
   9041675.94449   7047169.24646  23105465.885    23105464.394    23105479.131
       224.000         176.000
 -24634803.14949 -19169801.35647  20063241.559    20063241.503    20063250.493
       239.000         205.000
 -17593545.42049 -13415958.37047  20983420.281    20983420.109    20983432.307
       240.000         201.000
 -16897279.91149 -13150544.59846  22361471.476    22361470.917    22361483.279
       231.000         182.000
   7230266.33649   5640792.23147  22191721.732    22191720.573    22191731.676
       233.000         191.000
 -21672437.58249 -16862438.13747  20982278.880    20982278.356    20982287.913
       245.000         210.000
 00  4 26 17 23 29.9990000  0  7G16G 2G 4G24G 5G 7G 9
  -1725311.51149  -1338455.00745  24178843.256    24178842.724    24178861.162
       202.000         134.000
   9116219.64349   7105254.96046  23119651.096    23119649.693    23119664.553
       218.000         165.000
 -24632146.32049 -19167731.11747  20063747.157    20063747.068    20063756.067
       238.000         205.000
 -17667221.90349 -13473368.53247  20969400.050    20969399.847    20969412.042
       238.000         201.000
 -16980350.41749 -13215274.77646  22345663.685    22345663.064    22345675.366
       227.000         183.000
   7291078.60049   5688178.29847  22203293.912    22203292.810    22203303.964
       233.000         190.000
 -21661243.45849 -16853715.48747  20984409.093    20984408.545    20984418.113
       245.000         210.000
 00  4 26 17 23 59.9990000  0  7G16G 2G 4G24G 5G 7G 9
  -1749744.97449  -1357493.99645  24174193.710    24174193.161    24174211.515
       203.000         139.000
   9191060.71249   7163572.43846  23133893.125    23133891.657    23133906.574
       225.000         173.000
 -24628857.89449 -19165168.71847  20064372.917    20064372.825    20064381.823
       239.000         205.000
 -17740428.57149 -13530412.59947  20955469.185    20955468.997    20955481.180
       240.000         201.000
 -17063325.80549 -13279930.83646  22329873.943    22329873.314    22329885.579
       229.000         183.000
   7352005.71149   5735653.85647  22214887.996    22214886.931    22214898.084
       234.000         191.000
 -21649425.72849 -16844506.90247  20986657.964    20986657.421    20986667.003
       245.000         210.000
 00  4 26 17 24 29.9990000  0  7G16G 2G 4G24G 5G 7G 9
  -1773656.49249  -1376126.28045  24169643.464    24169642.848    24169661.203
       204.000         140.000
   9266218.15549   7222136.39746  23148195.253    23148193.824    23148208.871
       214.000         166.000
 -24624911.66649 -19162093.74547  20065123.864    20065123.778    20065132.792
       238.000         205.000
 -17813160.45649 -13587086.71247  20941628.706    20941628.505    20941640.669
       238.000         201.000
 -17146177.28149 -13344490.33146  22314107.784    22314107.145    22314119.406
       229.000         184.000
   7413050.52049   5783221.12847  22226504.552    22226503.442    22226514.660
       230.000         190.000
 -21636964.52949 -16834796.90847  20989029.318    20989028.748    20989038.335
       245.000         210.000
 00  4 26 17 24 59.9990000  0  7G16G 2G 4G24G 5G 7G 9
  -1797069.82249  -1394370.30745  24165187.948    24165187.313    24165205.594
       206.000         143.000
   9341691.73149   7280946.76846  23162557.667    23162556.169    23162571.201
       220.000         165.000
 -24620307.46949 -19158506.07747  20066000.047    20065999.924    20066008.946
       238.000         205.000
 -17885424.31249 -13643396.11847  20927877.291    20927877.078    20927889.233
       239.000         201.000
 -17228887.60449 -13408939.84846  22298368.425    22298367.800    22298380.036
       231.000         184.000
   7474208.71349   5830876.73347  22238142.586    22238141.514    22238152.797
       231.000         191.000
 -21623873.37449 -16824596.04747  20991520.500    20991519.942    20991529.536
       245.000         210.000
 00  4 26 17 25 29.9990000  0  7G16G 2G 4G24G 5G 7G 9
  -1820003.54549  -1412240.63745  24160823.689    24160823.157    24160841.428
       203.000         144.000
   9417464.94349   7339990.53046  23176976.895    23176975.470    23176990.555
       225.000         174.000
 -24615044.03349 -19154404.71147  20067001.679    20067001.537    20067010.562
       239.000         205.000
 -17957233.39749 -13699351.15047  20914212.422    20914212.211    20914224.345
       238.000         201.000
 -17311453.20449 -13473276.58246  22282656.658    22282656.037    22282668.241
       230.000         184.000
   7535483.09149   5878622.89847  22249802.794    22249801.713    22249813.013
       232.000         189.000
 -21610186.58049 -16813931.04047  20994125.005    20994124.459    20994134.059
       245.000         210.000
 00  4 26 17 25 59.9990000  0  7G16G 2G 4G24G 5G 7G 9
  -1842465.39549  -1429743.35545  24156549.212    24156548.700    24156567.014
       206.000         144.000
   9493523.89349   7399257.04845  23191450.829    23191449.306    23191464.402
       212.000         161.000
 -24609121.18849 -19149789.52147  20068128.786    20068128.618    20068137.654
       238.000         205.000
 -18028595.77349 -13754958.10847  20900632.571    20900632.329    20900644.459
       239.000         201.000
 -17393858.01949 -13537488.04046  22266975.520    22266974.867    22266987.016
       231.000         185.000
   7596853.70049   5926444.04747  22261481.282    22261480.200    22261491.529
       230.000         188.000
 -21595901.80849 -16802800.07647  20996843.340    20996842.784    20996852.390
       245.000         210.000
 00  4 26 17 26 29.9990000  0  7G16G 2G 4G24G 5G 7G 9
  -1864453.81149  -1446877.20845  24152364.918    24152364.320    24152382.623
       208.000         147.000
   9569855.77749   7458736.11046  23205976.158    23205974.759    23205990.119
       222.000         170.000
 -24602545.63249 -19144665.72547  20069380.097    20069379.935    20069388.948
       238.000         205.000
 -18099504.07149 -13810211.24747  20887139.116    20887138.868    20887150.967
       239.000         201.000
 -17476095.32549 -13601568.97246  22251326.245    22251325.570    22251337.695
       231.000         185.000
   7658309.17049   5974331.31547  22273176.023    22273174.877    22273186.250
       233.000         190.000
 -21581031.51749 -16791212.86647  20999673.077    20999672.526    20999682.145
       244.000         210.000
 00  4 26 17 26 59.9990000  0  7G16G 2G 4G24G 5G 7G 9
  -1885947.45449  -1463625.53345  24148274.823    24148274.193    24148292.364
       207.000         145.000
   9646469.04449   7518434.49746  23220555.548    23220554.044    23220569.361
       219.000         163.000
 -24595311.68549 -19139028.90247  20070756.703    20070756.524    20070765.527
       239.000         205.000
 -18169935.83749 -13865093.05947  20873736.344    20873736.076    20873748.138
       239.000         202.000
 -17558167.53649 -13665521.25246  22235708.346    22235707.677    22235719.795
       232.000         186.000
   7719863.90249   6022295.92947  22284889.635    22284888.451    22284899.839
       230.000         189.000
 -21565584.56249 -16779176.30747  21002612.553    21002611.999    21002621.619
       245.000         210.000
 00  4 26 17 27 29.9990000  0  7G16G 2G 4G24G 5G 7G 9
  -1906941.06149  -1479984.19845  24144279.958    24144279.249    24144297.343
       207.000         146.000
   9723348.53749   7578340.33745  23235185.406    23235183.942    23235199.181
       216.000         161.000
 -24587442.34749 -19132896.96047  20072254.229    20072254.015    20072263.027
       238.000         205.000
 -18239901.25149 -13919611.47147  20860422.273    20860422.036    20860434.070
       239.000         201.000
 -17640096.00949 -13729361.50946  22220117.761    22220117.135    22220129.227
       230.000         186.000
   7781498.13249   6070322.47946  22296618.283    22296617.105    22296628.541
       231.000         187.000
 -21549578.17849 -16766703.82747  21005658.484    21005657.944    21005667.564
       245.000         210.000
 00  4 26 17 27 59.9990000  0  7G16G 2G 4G24G 5G 7G 9
  -1927423.06149  -1495944.19745  24140382.479    24140381.686    24140399.714
       209.000         147.000
   9800504.99249   7638461.96946  23249868.024    23249866.518    23249881.870
       220.000         169.000
 -24578953.60849 -19126282.37047  20073869.623    20073869.368    20073878.376
       239.000         205.000
 -18309393.92649 -13973761.52747  20847198.221    20847197.955    20847209.977
       240.000         202.000
 -17721884.48149 -13793092.70146  22204553.888    22204553.252    22204565.288
       232.000         187.000
   7843221.70149   6118418.65947  22308364.075    22308362.828    22308374.251
       232.000         189.000
 -21533012.08149 -16753795.20747  21008810.945    21008810.385    21008820.024
       245.000         210.000
 00  4 26 17 28 29.9990000  0  7G16G 2G 4G24G 5G 7G 9
  -1947366.93749  -1511484.92345  24136587.402    24136586.538    24136604.501
       212.000         149.000
   9877957.49149   7698814.20446  23264606.939    23264605.441    23264620.935
       217.000         163.000
 -24569846.19949 -19119185.70047  20075602.690    20075602.460    20075611.470
       239.000         204.000
 -18378392.40449 -14027526.48747  20834068.197    20834067.932    20834079.906
       240.000         202.000
 -17803538.92149 -13856719.45646  22189015.548    22189014.860    22189026.871
       232.000         186.000
   7905058.30349   6166602.89747  22320131.322    22320130.063    22320141.510
       231.000         189.000
 -21515866.66749 -16740435.17147  21012073.617    21012073.065    21012082.708
       245.000         210.000
 00  4 26 17 28 59.9990000  0  7G16G 2G 4G24G 5G 7G 9
  -1966766.86249  -1526601.82445  24132895.797    24132894.947    24132912.788
       211.000         147.000
   9955710.75049   7759401.01345  23279403.226    23279401.638    23279416.965
       218.000         159.000
 -24560139.21249 -19111621.83347  20077449.862    20077449.643    20077458.664
       238.000         205.000
 -18446905.91549 -14080913.56347  20821030.447    20821030.169    20821042.122
       239.000         202.000
 -17885074.76349 -13920253.78046  22173499.691    22173499.032    22173511.047
       232.000         186.000
   7967003.93449   6214872.07346  22331919.145    22331917.960    22331929.471
       230.000         187.000
 -21498128.52249 -16726613.27547  21015449.095    21015448.553    21015458.209
       245.000         210.000
 00  4 26 17 29 29.9990000  0  7G16G 2G 4G24G 5G 7G 9
  -1985629.92049  -1541300.40945  24129306.300    24129305.405    24129323.211
       207.000         144.000
  10033753.98649   7820213.50645  23294254.317    23294252.852    23294268.399
       214.000         162.000
 -24549852.40149 -19103606.15447  20079407.387    20079407.172    20079416.182
       239.000         204.000
 -18514955.44549 -14133939.10047  20808081.020    20808080.733    20808092.634
       240.000         202.000
 -17966489.03249 -13983693.39147  22158006.962    22158006.327    22158018.319
       232.000         188.000
   8029045.22049   6263215.82847  22343725.321    22343724.120    22343735.649
       233.000         188.000
 -21479790.36249 -16712323.83447  21018938.791    21018938.231    21018947.885
       244.000         210.000
 00  4 26 17 29 59.9990000  0  7G16G 2G 4G24G 5G 7G 9
  -2003961.90349  -1555585.14445  24125817.867    24125817.007    24125834.705
       210.000         145.000
  10112082.26349   7881248.29646  23309160.117    23309158.555    23309174.097
       221.000         164.000
 -24538982.15549 -19095135.84147  20081475.928    20081475.728    20081484.722
       239.000         204.000
 -18582548.17449 -14186608.67647  20795218.492    20795218.201    20795230.081
       240.000         202.000
 -18047777.16749 -14047034.68746  22142538.261    22142537.649    22142549.620
       233.000         187.000
   8091176.84449   6311629.99047  22355548.731    22355547.506    22355559.001
       231.000         188.000
 -21460846.93149 -16697562.75247  21022543.640    21022543.074    21022552.735
       245.000         210.000
 00  4 26 17 30 29.9990000  0  7G16G 2G 4G24G 5G 7G 9
  -2021769.12949  -1569460.90845  24122429.240    24122428.364    24122446.121
       209.000         147.000
  10190695.42749   7942504.96945  23324119.927    23324118.342    23324134.027
       213.000         160.000
 -24527516.08249 -19086201.25947  20083657.862    20083657.661    20083666.652
       239.000         204.000
 -18649683.71449 -14238922.01647  20782442.947    20782442.672    20782454.524
       240.000         202.000
 -18128925.66749 -14110267.20947  22127096.170    22127095.558    22127107.483
       234.000         188.000
   8153377.70249   6360098.08246  22367385.231    22367384.004    22367395.565
       230.000         187.000
 -21441292.52049 -16682325.58647  21026264.752    21026264.186    21026273.853
       244.000         210.000
 00  4 26 17 30 59.9990000  0  7G16G 2G 4G24G 5G 7G 9
  -2039057.42849  -1582932.30645  24119139.464    24119138.533    24119156.274
       209.000         146.000
  10269584.03049   8003976.30745  23339132.175    23339130.561    23339146.345
       219.000         161.000
 -24515449.82049 -19076798.98747  20085954.018    20085953.813    20085962.802
       239.000         205.000
 -18716361.88649 -14290878.96647  20769754.484    20769754.202    20769766.009
       240.000         202.000
 -18209915.20549 -14173375.84646  22111684.292    22111683.684    22111695.608
       232.000         187.000
   8215640.79649   6408614.66047  22379233.565    22379232.329    22379243.944
       231.000         189.000
 -21421149.40149 -16666629.68747  21030097.855    21030097.300    21030106.981
       245.000         209.000
 00  4 26 17 31 29.9990000  0  7G16G 2G 4G24G 5G 7G 9
  -2055848.94049  -1596016.60545  24115944.137    24115943.286    24115960.906
       210.000         145.000
  10348722.02049   8065641.97445  23354191.772    23354190.190    23354206.035
       210.000         154.000
 -24502776.32949 -19066923.54447  20088365.693    20088365.505    20088374.489
       238.000         204.000
 -18782575.42149 -14342473.86047  20757154.403    20757154.133    20757165.915
       240.000         202.000
 -18290730.26249 -14236348.52446  22096305.607    22096305.020    22096316.946
       233.000         187.000
   8277953.54349   6457169.97246  22391091.525    22391090.198    22391101.789
       230.000         187.000
 -21400444.14649 -16650495.76147  21034037.937    21034037.411    21034047.074
       244.000         209.000
 00  4 26 17 31 59.9990000  0  7G16G 2G 4G24G 5G 7G 9
  -2072124.49849  -1608698.87645  24112846.974    24112846.164    24112863.840
       209.000         148.000
  10428129.20049   8127517.41846  23369302.833    23369301.174    23369317.054
       221.000         166.000
 -24489462.03449 -19056548.77747  20090899.346    20090899.148    20090908.136
       238.000         205.000
 -18848271.97149 -14393665.90147  20744652.717    20744652.453    20744664.206
       241.000         202.000
 -18371350.84349 -14299169.67147  22080963.881    22080963.354    22080975.253
       234.000         188.000
   8340339.33849   6505782.16046  22402963.105    22402961.874    22402973.523
       229.000         187.000
 -21379158.65249 -16633909.70347  21038088.469    21038087.938    21038097.597
       245.000         209.000
 00  4 26 17 32 29.9990000  0  7G16G 2G 4G24G 5G 7G 9
  -2087890.60449  -1620984.14645  24109846.739    24109845.967    24109863.645
       203.000         144.000
  10507787.35649   8189588.34645  23384461.389    23384459.802    23384475.857
       206.000         155.000
 -24475528.26249 -19045691.29647  20093550.805    20093550.638    20093559.662
       237.000         204.000
 -18913451.52149 -14444455.10047  20732249.444    20732249.154    20732260.885
       239.000         203.000
 -18451801.88349 -14361858.71547  22065654.513    22065653.958    22065665.830
       231.000         188.000
   8402790.66049   6554445.41047  22414847.239    22414846.038    22414857.770
       229.000         188.000
 -21357307.66949 -16616882.99447  21042246.590    21042246.060    21042255.722
       244.000         209.000
 00  4 26 17 32 59.9990000  0  7G16G 2G 4G24G 5G 7G 9
  -2103129.10249  -1632858.23145  24106946.726    24106946.077    24106963.881
       204.000         136.000
  10587688.50849   8251848.66345  23399666.323    23399664.710    23399680.842
       217.000         159.000
 -24460972.93649 -19034349.49147  20096320.590    20096320.445    20096329.456
       238.000         204.000
 -18978106.11249 -14494835.24247  20719946.049    20719945.740    20719957.452
       240.000         203.000
 -18532092.74849 -14424422.94247  22050375.658    22050375.061    22050386.926
       233.000         188.000
   8465333.16149   6603179.71646  22426748.845    22426747.612    22426759.323
       231.000         187.000
 -21334881.19749 -16599407.85747  21046514.237    21046513.693    21046523.370
       244.000         209.000
 00  4 26 17 33 29.9990000  0  7G16G 2G 4G24G 5G 7G 9
  -2117854.87949  -1644332.82745  24104144.423    24104143.763    24104161.536
       211.000         138.000
  10667823.28049   8314291.05245  23414915.647    23414914.087    23414930.195
       208.000         151.000
 -24445809.72849 -19022534.00847  20099206.074    20099205.913    20099214.930
       238.000         204.000
 -19042256.44449 -14544822.45047  20707738.622    20707738.295    20707749.979
       240.000         203.000
 -18612248.74749 -14486882.08247  22035122.477    22035121.826    22035133.674
       235.000         189.000
   8527957.97749   6651978.14246  22438666.038    22438664.784    22438676.501
       228.000         183.000
 -21311877.57149 -16581482.98947  21050891.682    21050891.153    21050900.852
       244.000         209.000
 00  4 26 17 33 59.9990000  0  7G16G 2G 4G24G 5G 7G 9
  -2132032.64049  -1655380.34645  24101446.401    24101445.776    24101463.421
       206.000         137.000
  10748236.83449   8376950.59945  23430218.181    23430216.550    23430232.753
       216.000         161.000
 -24430029.62249 -19010237.83747  20102208.954    20102208.768    20102217.793
       238.000         205.000
 -19105906.77449 -14594420.05947  20695626.325    20695625.994    20695637.638
       241.000         203.000
 -18692270.32049 -14549236.47247  22019894.807    22019894.159    22019906.012
       235.000         188.000
   8590697.22449   6700865.75246  22450605.080    22450603.770    22450615.494
       231.000         186.000
 -21288261.04949 -16563080.55047  21055385.784    21055385.256    21055394.973
       244.000         209.000
 00  4 26 17 34 29.9990000  0  7G16G 2G 4G24G 5G 7G 9
  -2145662.96549  -1666001.35645  24098852.578    24098851.945    24098869.705
       208.000         144.000
  10828922.05449   8439821.91245  23445572.269    23445570.638    23445586.833
       211.000         149.000
 -24413639.35049 -18997466.20247  20105327.907    20105327.750    20105336.768
       237.000         205.000
 -19169087.29049 -14643651.57447  20683603.471    20683603.119    20683614.733
       240.000         203.000
 -18772157.18049 -14611485.88847  22004692.749    22004692.135    22004703.976
       235.000         189.000
   8653545.50549   6749838.29747  22462564.785    22462563.489    22462575.262
       228.000         188.000
 -21264053.80049 -16544217.79747  21059992.286    21059991.748    21060001.499
       243.000         209.000
